[[{"header":{"parameterUnit":"m.s-1","parameterCategory":1,"la1":31.0,"la2":29.5877,"lo1":-88.7671,"lo2":-86.6584,"dy":0.0162,"dx":0.0185,"nx":115,"ny":88,"refTime":"2026-03-16T00:00:00:Z","depth":0,"parameterNumber":2,"parameterNumberName":"U-component_of_WINDS"},"data":[0.0,0.0,0.0,0.0,0.0,0.0,0.0,0.0,0.0,0.0,0.0,0.0,0.0,0.0,0.0,0.0,0.0,0.0,0.0,0.0,0.0,0.0,0.0,0.0,0.0,0.0,0.0,0.0,0.0,0.0,0.0,0.0,0.0,0.0,0.0,0.0,0.0,0.0,0.0,0.0,0.0,0.0,0.0,0.0,0.0,0.0,0.0,0.0,0.0,0.0,0.0,0.0,0.0,0.0,0.0,0.0,0.0,0.0,0.0,0.0,0.0,0.0,0.0,0.0,0.0,0.0,0.0,0.0,0.0,0.0,0.0,0.0,0.0,0.0,0.0,0.0,0.0,0.0,0.0,0.0,0.0,0.0,0.0,0.0,0.0,0.0,0.0,0.0,0.0,0.0,0.0,0.0,0.0,0.0,0.0,0.0,0.0,0.0,0.0,0.0,0.0,0.0,0.0,0.0,0.0,0.0,0.0,0.0,0.0,0.0,0.0,0.0,0.0,0.0,0.0,0.0,0.0,0.0,0.0,0.0,0.0,0.0,0.0,0.0,0.0,0.0,0.0,0.0,0.0,0.0,0.0,0.0,0.0,0.0,0.0,0.0,0.0,0.0,0.0,0.0,0.0,0.0,0.0,0.0,0.0,0.0,0.0,0.0,0.0,0.0,0.0,0.0,0.0,0.0,0.0,0.0,0.0,0.0,0.0,0.0,0.0,0.0,0.0,0.0,0.0,0.0,0.0,0.0,0.0,0.0,0.0,0.0,0.0,0.0,0.0,0.0,0.0,0.0,0.0,0.0,0.0,0.0,0.0,0.0,0.0,0.0,0.0,0.0,0.0,0.0,0.0,0.0,0.0,0.0,0.0,0.0,0.0,0.0,0.0,0.0,0.0,0.0,0.0,0.0,0.0,0.0,0.0,0.0,0.0,0.0,0.0,0.0,0.0,0.0,0.0,0.0,0.0,0.0,0.0,0.0,0.0,0.0,0.0,0.0,0.0,0.0,0.0,0.0,0.0,0.0,0.0,0.0,0.0,0.0,0.0,0.0,0.0,0.0,0.0,0.0,0.0,0.0,0.0,0.0,0.0,0.0,0.0,0.0,0.0,0.0,0.0,0.0,0.0,0.0,0.0,0.0,0.0,0.0,0.0,0.0,0.0,0.0,0.0,0.0,0.0,0.0,0.0,0.0,0.0,0.0,0.0,0.0,0.0,0.0,0.0,0.0,0.0,0.0,0.0,0.0,0.0,0.0,0.0,0.0,0.0,0.0,0.0,0.0,0.0,0.0,0.0,0.0,0.0,0.0,0.0,0.0,0.0,0.0,0.0,0.0,0.0,0.0,0.0,0.0,0.0,0.0,0.0,0.0,0.0,0.0,0.0,0.0,0.0,0.0,0.0,0.0,0.0,0.0,0.0,0.0,0.0,0.0,0.0,0.0,0.0,0.0,0.0,0.0,0.0,0.0,0.0,0.0,0.0,0.0,0.0,0.0,0.0,0.0,0.0,0.0,0.0,0.0,0.0,0.0,0.0,0.0,0.0,0.0,0.0,0.0,0.0,0.0,0.0,0.0,0.0,0.0,0.0,0.0,0.0,0.0,0.0,0.0,0.0,0.0,0.0,0.0,0.0,0.0,0.0,0.0,0.0,0.0,0.0,0.0,0.0,0.0,0.0,0.0,0.0,0.0,0.0,0.0,0.0,0.0,0.0,0.0,0.0,0.0,0.0,0.0,0.0,0.0,0.0,0.0,0.0,0.0,0.0,0.0,0.0,0.0,0.0,0.0,0.0,0.0,0.0,0.0,0.0,0.0,0.0,0.0,0.0,0.0,0.0,0.0,0.0,0.0,0.0,0.0,0.0,0.0,0.0,0.0,0.0,0.0,0.0,0.0,0.0,0.0,0.0,0.0,0.0,0.0,0.0,0.0,0.0,0.0,0.0,0.0,0.0,0.0,0.0,0.0,0.0,0.0,0.0,0.0,0.0,0.0,0.0,0.0,0.0,0.0,0.0,0.0,0.0,0.0,0.0,0.0,0.0,0.0,0.0,0.0,0.0,0.0,0.0,0.0,0.0,0.0,0.0,0.0,0.0,0.0,0.0,0.0,0.0,0.0,0.0,0.0,0.0,0.0,0.0,0.0,0.0,0.0,0.0,0.0,0.0,0.0,0.0,0.0,0.0,0.0,0.0,0.0,0.0,0.0,0.0,0.0,0.0,0.0,0.0,0.0,0.0,0.0,0.0,0.0,0.0,0.0,0.0,0.0,0.0,0.0,0.0,0.0,0.0,0.0,0.0,0.0,0.0,0.0,0.0,0.0,0.0,0.0,0.0,0.0,0.0,0.0,0.0,0.0,0.0,0.0,0.0,0.0,0.0,0.0,0.0,0.0,0.0,0.0,0.0,0.0,0.0,0.0,0.0,0.0,0.0,0.0,0.0,0.0,0.0,0.0,0.0,0.0,0.0,0.0,0.0,0.0,0.0,0.0,0.0,0.0,0.0,0.0,0.0,0.0,0.0,0.0,0.0,0.0,0.0,0.0,0.0,0.0,0.0,0.0,0.0,0.0,0.0,0.0,0.0,0.0,0.0,0.0,0.0,0.0,0.0,0.0,0.0,0.0,0.0,0.0,0.0,0.0,0.0,0.0,0.0,0.0,0.0,0.0,0.0,0.0,0.0,0.0,0.0,0.0,0.0,0.0,0.0,0.0,0.0,0.0,0.0,0.0,0.0,0.0,0.0,0.0,0.0,0.0,0.0,0.0,0.0,0.0,0.0,0.0,0.0,0.0,0.0,0.0,0.0,0.0,0.0,0.0,0.0,0.0,0.0,0.0,0.0,0.0,0.0,0.0,0.0,0.0,0.0,0.0,0.0,0.0,0.0,0.0,0.0,0.0,0.0,0.0,0.0,0.0,0.0,0.0,0.0,0.0,0.0,0.0,0.0,0.0,0.0,0.0,0.0,0.0,0.0,0.0,0.0,0.0,0.0,0.0,0.0,0.0,0.0,0.0,0.0,0.0,0.0,0.0,0.0,0.0,0.0,0.0,0.0,0.0,0.0,0.0,0.0,0.0,0.0,0.0,0.0,0.0,0.0,0.0,0.0,0.0,0.0,0.0,0.0,0.0,0.0,0.0,0.0,0.0,0.0,0.0,0.0,0.0,0.0,0.0,0.0,0.0,0.0,0.0,0.0,0.0,0.0,0.0,0.0,0.0,0.0,0.0,0.0,0.0,0.0,0.0,0.0,0.0,0.0,0.0,0.0,0.0,0.0,0.0,0.0,0.0,0.0,0.0,0.0,0.0,0.0,0.0,0.0,0.0,0.0,0.0,0.0,0.0,0.0,0.0,0.0,0.0,0.0,0.0,0.0,0.0,0.0,0.0,0.0,0.0,0.0,0.0,0.0,0.0,0.0,0.0,0.0,0.0,0.0,0.0,0.0,0.0,0.0,0.0,0.0,0.0,0.0,0.0,0.0,0.0,0.0,0.0,0.0,0.0,0.0,0.0,0.0,0.0,0.0,0.0,0.0,0.0,0.0,0.0,0.0,0.0,0.0,0.0,0.0,0.0,0.0,0.0,0.0,0.0,0.0,0.0,0.0,0.0,0.0,0.0,0.0,0.0,0.0,0.0,0.0,0.0,0.0,0.0,0.0,0.0,0.0,0.0,0.0,0.0,0.0,0.0,0.0,0.0,0.0,0.0,0.0,0.0,0.0,0.0,0.0,0.0,0.0,0.0,0.0,0.0,0.0,0.0,0.0,0.0,0.0,0.0,0.0,0.0,0.0,0.0,0.0,0.0,0.0,0.0,0.0,0.0,0.0,0.0,0.0,0.0,0.0,0.0,0.0,0.0,0.0,0.0,0.0,0.0,0.0,0.0,0.0,0.0,0.0,0.0,0.0,0.0,0.0,0.0,0.0,0.0,0.0,0.0,0.0,0.0,0.0,0.0,0.0,0.0,0.0,0.0,0.0,0.0,0.0,0.0,0.0,0.0,0.0,0.0,0.0,0.0,0.0,0.0,0.0,0.0,0.0,0.0,0.0,0.0,0.0,0.0,0.0,0.0,0.0,0.0,0.0,0.0,0.0,0.0,0.0,0.0,0.0,0.0,0.0,0.0,0.0,0.0,0.0,0.0,0.0,0.0,0.0,0.0,0.0,0.0,0.0,0.0,0.0,0.0,0.0,0.0,0.0,0.0,0.0,0.0,0.0,0.0,0.0,0.0,0.0,0.0,0.0,0.0,0.0,0.0,0.0,0.0,0.0,0.0,0.0,0.0,0.0,0.0,3.569,0.0,0.0,0.0,0.0,0.0,0.0,0.0,0.0,0.0,0.0,0.0,0.0,0.0,0.0,0.0,0.0,0.0,0.0,0.0,0.0,0.0,0.0,0.0,0.0,0.0,0.0,0.0,0.0,0.0,0.0,0.0,0.0,0.0,0.0,0.0,0.0,0.0,0.0,0.0,0.0,0.0,0.0,0.0,0.0,0.0,0.0,0.0,0.0,0.0,0.0,0.0,0.0,0.0,0.0,0.0,0.0,0.0,0.0,0.0,0.0,0.0,0.0,0.0,0.0,0.0,0.0,0.0,0.0,0.0,0.0,0.0,0.0,0.0,0.0,0.0,0.0,0.0,0.0,0.0,0.0,0.0,0.0,0.0,0.0,0.0,0.0,0.0,0.0,0.0,0.0,0.0,0.0,0.0,0.0,0.0,0.0,0.0,0.0,0.0,0.0,0.0,0.0,0.0,0.0,0.0,0.0,0.0,0.0,0.0,0.0,3.958,3.9546,3.8497,3.7584,3.6874,0.0,0.0,0.0,0.0,0.0,0.0,0.0,0.0,0.0,0.0,0.0,0.0,0.0,0.0,0.0,0.0,0.0,0.0,0.0,0.0,0.0,0.0,0.0,0.0,0.0,0.0,0.0,0.0,0.0,0.0,0.0,0.0,0.0,0.0,0.0,0.0,0.0,0.0,0.0,0.0,0.0,0.0,0.0,0.0,0.0,0.0,0.0,0.0,0.0,0.0,0.0,0.0,0.0,0.0,0.0,0.0,0.0,0.0,0.0,0.0,0.0,0.0,0.0,0.0,0.0,0.0,0.0,0.0,0.0,0.0,0.0,0.0,0.0,0.0,0.0,0.0,0.0,0.0,0.0,0.0,0.0,0.0,0.0,0.0,0.0,0.0,0.0,0.0,0.0,0.0,0.0,0.0,0.0,0.0,0.0,0.0,0.0,0.0,0.0,0.0,0.0,0.0,0.0,0.0,0.0,0.0,0.0,0.0,0.0,0.0,0.0,0.0,3.9411,3.8497,3.8125,0.0,0.0,0.0,0.0,0.0,0.0,0.0,0.0,0.0,0.0,0.0,0.0,0.0,0.0,0.0,0.0,0.0,0.0,0.0,0.0,0.0,0.0,0.0,0.0,0.0,0.0,0.0,0.0,0.0,0.0,0.0,0.0,0.0,0.0,0.0,0.0,0.0,0.0,0.0,0.0,0.0,0.0,0.0,0.0,0.0,0.0,0.0,0.0,0.0,0.0,0.0,0.0,0.0,0.0,0.0,0.0,0.0,0.0,0.0,0.0,0.0,0.0,0.0,0.0,0.0,0.0,0.0,0.0,0.0,0.0,0.0,0.0,0.0,0.0,0.0,0.0,0.0,0.0,0.0,0.0,0.0,0.0,0.0,0.0,0.0,0.0,0.0,0.0,0.0,0.0,0.0,0.0,0.0,0.0,0.0,0.0,0.0,0.0,0.0,0.0,0.0,0.0,0.0,0.0,0.0,0.0,0.0,0.0,0.0,0.0,4.1035,4.3031,4.1644,0.0,3.9005,0.0,0.0,0.0,0.0,0.0,0.0,0.0,0.0,0.0,0.0,0.0,0.0,0.0,0.0,0.0,0.0,0.0,0.0,0.0,0.0,0.0,0.0,0.0,0.0,0.0,0.0,0.0,0.0,0.0,0.0,0.0,0.0,0.0,0.0,0.0,0.0,0.0,0.0,0.0,0.0,0.0,0.0,0.0,0.0,0.0,0.0,0.0,0.0,0.0,0.0,0.0,0.0,0.0,0.0,0.0,0.0,0.0,0.0,0.0,0.0,0.0,0.0,0.0,0.0,0.0,0.0,0.0,0.0,0.0,0.0,0.0,0.0,0.0,0.0,0.0,0.0,0.0,0.0,0.0,0.0,0.0,0.0,0.0,0.0,0.0,0.0,0.0,0.0,0.0,0.0,0.0,0.0,0.0,0.0,0.0,0.0,0.0,0.0,0.0,0.0,0.0,0.0,0.0,0.0,0.0,0.0,0.0,0.0,0.0,0.0,4.2489,4.3403,4.1982,4.0324,0.0,0.0,0.0,0.0,0.0,0.0,0.0,0.0,0.0,0.0,0.0,0.0,0.0,0.0,0.0,0.0,0.0,0.0,0.0,0.0,0.0,0.0,0.0,0.0,0.0,0.0,0.0,0.0,0.0,0.0,0.0,0.0,0.0,0.0,0.0,0.0,0.0,0.0,0.0,0.0,0.0,0.0,0.0,0.0,0.0,0.0,0.0,0.0,0.0,0.0,0.0,0.0,0.0,0.0,0.0,0.0,0.0,0.0,0.0,0.0,0.0,0.0,0.0,0.0,0.0,0.0,0.0,0.0,0.0,0.0,0.0,0.0,0.0,0.0,0.0,0.0,0.0,0.0,0.0,0.0,0.0,0.0,0.0,0.0,0.0,0.0,0.0,0.0,0.0,0.0,0.0,0.0,0.0,0.0,0.0,0.0,0.0,0.0,0.0,0.0,0.0,0.0,0.0,0.0,0.0,0.0,0.0,0.0,0.0,0.0,4.2929,0.0,4.3673,4.2692,4.0798,3.8024,0.0,0.0,0.0,0.0,0.0,0.0,0.0,0.0,0.0,0.0,0.0,0.0,0.0,0.0,0.0,0.0,0.0,0.0,0.0,0.0,0.0,0.0,0.0,0.0,0.0,0.0,0.0,0.0,0.0,0.0,0.0,0.0,0.0,0.0,0.0,0.0,0.0,0.0,0.0,0.0,0.0,0.0,0.0,0.0,0.0,0.0,0.0,0.0,0.0,0.0,0.0,0.0,0.0,0.0,0.0,0.0,0.0,0.0,0.0,0.0,0.0,0.0,0.0,0.0,0.0,0.0,0.0,0.0,0.0,0.0,0.0,0.0,0.0,0.0,0.0,0.0,0.0,0.0,0.0,0.0,0.0,0.0,0.0,0.0,0.0,0.0,0.0,0.0,0.0,0.0,0.0,0.0,0.0,0.0,0.0,0.0,0.0,0.0,0.0,0.0,0.0,0.0,0.0,0.0,0.0,0.0,0.0,0.0,0.0,4.4451,4.3775,4.4609,4.4451,4.2388,0.0,0.0,0.0,0.0,0.0,0.0,0.0,0.0,0.0,0.0,0.0,0.0,0.0,0.0,0.0,0.0,0.0,0.0,0.0,0.0,0.0,0.0,0.0,0.0,0.0,0.0,0.0,0.0,0.0,0.0,0.0,0.0,0.0,0.0,0.0,0.0,0.0,0.0,0.0,0.0,0.0,0.0,0.0,0.0,0.0,0.0,0.0,0.0,0.0,0.0,0.0,0.0,0.0,0.0,0.0,0.0,0.0,0.0,0.0,0.0,0.0,0.0,0.0,0.0,0.0,0.0,0.0,0.0,0.0,0.0,0.0,0.0,0.0,0.0,0.0,0.0,0.0,0.0,0.0,0.0,0.0,0.0,0.0,0.0,0.0,0.0,0.0,0.0,0.0,0.0,0.0,0.0,0.0,0.0,0.0,0.0,0.0,0.0,0.0,0.0,0.0,0.0,0.0,0.0,0.0,0.0,0.0,0.0,0.0,4.2475,4.3458,4.528,4.7763,4.4799,4.2023,0.0,0.0,0.0,0.0,0.0,0.0,0.0,0.0,0.0,0.0,0.0,0.0,0.0,0.0,0.0,0.0,0.0,0.0,0.0,0.0,0.0,0.0,0.0,0.0,0.0,0.0,0.0,0.0,0.0,0.0,0.0,0.0,0.0,0.0,0.0,0.0,0.0,0.0,0.0,0.0,0.0,0.0,0.0,0.0,0.0,0.0,0.0,0.0,0.0,0.0,0.0,0.0,0.0,0.0,0.0,0.0,0.0,0.0,0.0,0.0,0.0,0.0,0.0,0.0,0.0,0.0,0.0,0.0,0.0,0.0,0.0,0.0,0.0,0.0,0.0,0.0,0.0,0.0,0.0,0.0,0.0,0.0,0.0,0.0,0.0,0.0,0.0,0.0,0.0,0.0,0.0,0.0,0.0,0.0,0.0,0.0,0.0,0.0,0.0,0.0,0.0,0.0,0.0,0.0,0.0,0.0,0.0,0.0,0.0,4.2655,0.0,4.7684,0.0,4.5506,4.2272,0.0,0.0,0.0,0.0,0.0,0.0,0.0,0.0,0.0,0.0,0.0,0.0,0.0,0.0,0.0,0.0,0.0,0.0,0.0,0.0,0.0,0.0,0.0,0.0,0.0,0.0,0.0,0.0,0.0,0.0,0.0,0.0,0.0,0.0,0.0,0.0,0.0,0.0,0.0,0.0,0.0,0.0,0.0,0.0,0.0,0.0,0.0,0.0,0.0,0.0,0.0,0.0,0.0,0.0,0.0,0.0,0.0,0.0,0.0,0.0,0.0,0.0,0.0,0.0,0.0,0.0,0.0,0.0,0.0,0.0,0.0,0.0,0.0,0.0,0.0,0.0,0.0,0.0,0.0,0.0,0.0,0.0,0.0,0.0,0.0,0.0,0.0,0.0,0.0,0.0,0.0,0.0,0.0,0.0,0.0,0.0,0.0,0.0,0.0,0.0,0.0,0.0,0.0,0.0,0.0,0.0,0.0,0.0,4.2689,4.763,5.0594,5.0728,4.7913,4.6838,4.3321,0.0,0.0,0.0,0.0,0.0,0.0,0.0,0.0,0.0,0.0,0.0,0.0,0.0,0.0,0.0,0.0,0.0,0.0,0.0,0.0,0.0,0.0,0.0,0.0,0.0,0.0,0.0,0.0,0.0,0.0,0.0,0.0,0.0,0.0,0.0,0.0,0.0,0.0,0.0,0.0,0.0,0.0,0.0,0.0,0.0,0.0,0.0,0.0,0.0,0.0,0.0,0.0,0.0,0.0,0.0,0.0,0.0,0.0,0.0,0.0,0.0,0.0,0.0,0.0,0.0,0.0,0.0,0.0,0.0,0.0,0.0,0.0,0.0,0.0,0.0,0.0,0.0,0.0,0.0,0.0,0.0,0.0,0.0,0.0,0.0,0.0,0.0,0.0,0.0,0.0,0.0,0.0,0.0,0.0,0.0,0.0,0.0,0.0,0.0,0.0,0.0,0.0,0.0,0.0,0.0,0.0,0.0,0.0,0.0,4.6235,4.9126,5.1527,5.2988,4.821,4.5158,0.0,0.0,0.0,0.0,0.0,0.0,0.0,0.0,0.0,0.0,0.0,0.0,0.0,0.0,0.0,0.0,0.0,0.0,0.0,0.0,0.0,0.0,0.0,0.0,0.0,0.0,0.0,0.0,0.0,0.0,0.0,0.0,0.0,0.0,0.0,0.0,0.0,0.0,0.0,0.0,0.0,0.0,0.0,0.0,0.0,0.0,0.0,0.0,0.0,0.0,0.0,0.0,0.0,0.0,0.0,0.0,0.0,0.0,0.0,0.0,0.0,0.0,0.0,0.0,0.0,0.0,0.0,0.0,0.0,0.0,0.0,0.0,0.0,0.0,0.0,0.0,0.0,0.0,0.0,0.0,0.0,0.0,0.0,0.0,0.0,0.0,0.0,0.0,0.0,0.0,0.0,0.0,0.0,0.0,0.0,0.0,0.0,0.0,0.0,0.0,0.0,0.0,0.0,0.0,0.0,0.0,0.0,0.0,0.0,5.1203,5.3168,5.4963,5.6552,5.1108,4.7735,4.6704,0.0,0.0,0.0,0.0,0.0,0.0,0.0,0.0,0.0,0.0,0.0,0.0,0.0,0.0,0.0,0.0,0.0,0.0,0.0,0.0,0.0,0.0,0.0,0.0,0.0,0.0,0.0,0.0,0.0,0.0,0.0,0.0,0.0,0.0,0.0,0.0,0.0,0.0,0.0,0.0,0.0,0.0,0.0,0.0,0.0,0.0,0.0,0.0,0.0,0.0,0.0,0.0,0.0,0.0,0.0,0.0,0.0,0.0,0.0,0.0,0.0,0.0,0.0,0.0,0.0,0.0,0.0,0.0,0.0,0.0,0.0,0.0,0.0,0.0,0.0,0.0,0.0,0.0,0.0,0.0,0.0,0.0,0.0,0.0,0.0,0.0,0.0,0.0,0.0,0.0,0.0,0.0,0.0,0.0,0.0,0.0,0.0,0.0,0.0,0.0,0.0,0.0,0.0,0.0,0.0,0.0,0.0,0.0,6.0953,6.1857,6.1227,5.8914,5.5354,5.1036,0.0,0.0,0.0,0.0,0.0,0.0,0.0,0.0,0.0,0.0,0.0,0.0,0.0,0.0,0.0,0.0,0.0,0.0,0.0,0.0,0.0,0.0,0.0,0.0,0.0,0.0,0.0,0.0,0.0,0.0,0.0,0.0,0.0,0.0,0.0,0.0,0.0,0.0,0.0,0.0,0.0,0.0,0.0,0.0,0.0,0.0,0.0,0.0,0.0,0.0,0.0,0.0,0.0,0.0,0.0,0.0,0.0,0.0,0.0,0.0,0.0,0.0,0.0,0.0,0.0,0.0,0.0,0.0,0.0,0.0,0.0,0.0,0.0,0.0,0.0,0.0,0.0,0.0,0.0,0.0,0.0,0.0,0.0,0.0,0.0,0.0,0.0,0.0,0.0,0.0,0.0,0.0,0.0,0.0,0.0,0.0,0.0,0.0,0.0,0.0,0.0,0.0,0.0,0.0,0.0,0.0,0.0,0.0,0.0,6.3348,6.8621,7.0293,6.776,6.0639,5.553,0.0,0.0,0.0,0.0,0.0,0.0,0.0,0.0,0.0,0.0,0.0,0.0,0.0,0.0,0.0,0.0,0.0,0.0,0.0,0.0,0.0,0.0,0.0,0.0,0.0,0.0,0.0,0.0,0.0,0.0,0.0,0.0,0.0,0.0,0.0,0.0,0.0,0.0,0.0,0.0,0.0,0.0,0.0,0.0,0.0,0.0,0.0,0.0,0.0,0.0,0.0,0.0,0.0,0.0,0.0,0.0,0.0,0.0,0.0,0.0,0.0,0.0,0.0,0.0,0.0,0.0,0.0,0.0,0.0,0.0,0.0,0.0,0.0,0.0,0.0,0.0,0.0,0.0,0.0,0.0,0.0,0.0,0.0,0.0,0.0,0.0,0.0,0.0,0.0,0.0,0.0,0.0,0.0,0.0,0.0,0.0,0.0,0.0,0.0,0.0,0.0,0.0,0.0,0.0,0.0,0.0,0.0,0.0,6.2185,6.8669,7.5434,7.8332,7.6937,6.7944,6.086,0.0,0.0,0.0,0.0,0.0,0.0,0.0,0.0,0.0,0.0,0.0,0.0,0.0,0.0,0.0,0.0,0.0,0.0,0.0,0.0,0.0,0.0,0.0,0.0,0.0,0.0,0.0,0.0,0.0,0.0,0.0,0.0,0.0,0.0,0.0,0.0,0.0,0.0,0.0,0.0,0.0,0.0,0.0,0.0,0.0,0.0,0.0,0.0,0.0,0.0,0.0,0.0,0.0,0.0,0.0,0.0,0.0,0.0,0.0,0.0,0.0,0.0,0.0,0.0,0.0,0.0,0.0,0.0,0.0,0.0,0.0,0.0,0.0,0.0,0.0,0.0,0.0,0.0,0.0,0.0,0.0,0.0,0.0,0.0,0.0,0.0,0.0,0.0,0.0,0.0,0.0,0.0,0.0,0.0,0.0,0.0,0.0,0.0,0.0,0.0,0.0,0.0,0.0,0.0,0.0,0.0,0.0,0.0,6.732,7.4918,8.1452,8.4792,8.4425,7.5322,6.6219,0.0,0.0,0.0,0.0,0.0,0.0,0.0,0.0,0.0,0.0,0.0,0.0,0.0,0.0,0.0,0.0,0.0,0.0,0.0,0.0,0.0,0.0,0.0,0.0,0.0,0.0,0.0,0.0,0.0,0.0,0.0,0.0,0.0,0.0,0.0,0.0,0.0,0.0,0.0,0.0,0.0,0.0,0.0,0.0,0.0,0.0,0.0,0.0,0.0,0.0,0.0,0.0,0.0,0.0,0.0,0.0,0.0,0.0,0.0,0.0,0.0,0.0,0.0,0.0,0.0,0.0,0.0,0.0,0.0,0.0,0.0,0.0,0.0,0.0,0.0,0.0,0.0,0.0,0.0,0.0,0.0,0.0,0.0,0.0,0.0,0.0,0.0,0.0,0.0,0.0,0.0,0.0,0.0,0.0,0.0,0.0,0.0,0.0,0.0,0.0,0.0,0.0,0.0,0.0,0.0,0.0,0.0,0.0,6.9668,7.5799,8.281,8.6187,8.549,7.613,6.8054,0.0,0.0,0.0,0.0,0.0,0.0,0.0,0.0,0.0,0.0,0.0,0.0,0.0,0.0,0.0,0.0,0.0,0.0,0.0,0.0,0.0,0.0,0.0,0.0,0.0,0.0,0.0,0.0,0.0,0.0,0.0,0.0,0.0,0.0,0.0,0.0,0.0,0.0,0.0,0.0,0.0,0.0,0.0,0.0,0.0,0.0,0.0,0.0,4.0377,0.0,0.0,0.0,0.0,0.0,0.0,0.0,0.0,0.0,0.0,0.0,0.0,0.0,0.0,0.0,0.0,0.0,0.0,0.0,0.0,0.0,0.0,0.0,0.0,0.0,0.0,0.0,0.0,0.0,0.0,0.0,0.0,0.0,0.0,0.0,0.0,0.0,0.0,0.0,0.0,0.0,0.0,0.0,0.0,0.0,0.0,0.0,0.0,0.0,0.0,0.0,0.0,0.0,0.0,0.0,0.0,0.0,0.0,0.0,7.2312,7.8332,8.4792,8.7766,8.6701,7.9727,7.2312,0.0,0.0,0.0,0.0,0.0,0.0,0.0,0.0,0.0,0.0,0.0,0.0,0.0,0.0,0.0,0.0,0.0,0.0,0.0,0.0,0.0,0.0,0.0,0.0,0.0,0.0,0.0,0.0,0.0,0.0,0.0,0.0,0.0,0.0,0.0,0.0,0.0,0.0,0.0,0.0,0.0,0.0,0.0,0.0,0.0,0.0,0.0,0.0,0.0,0.0,0.0,0.0,0.0,0.0,0.0,0.0,0.0,0.0,0.0,0.0,0.0,0.0,0.0,0.0,0.0,0.0,0.0,0.0,0.0,0.0,0.0,0.0,0.0,0.0,0.0,0.0,0.0,0.0,0.0,0.0,0.0,0.0,0.0,0.0,0.0,0.0,0.0,0.0,0.0,0.0,0.0,0.0,0.0,0.0,0.0,0.0,0.0,0.0,0.0,0.0,0.0,0.0,0.0,0.0,0.0,0.0,0.0,6.6696,7.4404,8.1379,8.6701,8.905,8.8169,8.3875,7.7047,6.7614,0.0,0.0,0.0,0.0,0.0,0.0,0.0,0.0,0.0,0.0,0.0,0.0,0.0,0.0,0.0,0.0,0.0,0.0,0.0,0.0,0.0,0.0,0.0,0.0,0.0,0.0,0.0,0.0,0.0,0.0,0.0,0.0,0.0,0.0,0.0,0.0,0.0,0.0,3.5215,3.9247,0.0,0.0,0.0,0.0,0.0,0.0,0.0,0.0,4.1928,0.0,0.0,0.0,0.0,0.0,0.0,0.0,0.0,0.0,0.0,0.0,0.0,0.0,0.0,0.0,0.0,0.0,0.0,0.0,0.0,0.0,0.0,0.0,0.0,0.0,0.0,0.0,0.0,0.0,0.0,0.0,0.0,0.0,0.0,0.0,0.0,0.0,0.0,0.0,0.0,0.0,0.0,0.0,0.0,0.0,0.0,0.0,0.0,0.0,0.0,0.0,0.0,0.0,0.0,0.0,0.0,6.5705,6.8164,7.4074,8.3765,8.7545,8.905,8.8169,8.549,7.9764,7.0807,0.0,0.0,0.0,0.0,0.0,0.0,0.0,0.0,0.0,0.0,0.0,0.0,0.0,0.0,0.0,0.0,0.0,0.0,0.0,0.0,0.0,0.0,0.0,0.0,0.0,0.0,0.0,0.0,0.0,0.0,0.0,0.0,0.0,0.0,0.0,0.0,0.0,0.0,0.0,4.5313,4.6956,0.0,0.0,0.0,0.0,0.0,0.0,0.0,0.0,4.4662,0.0,0.0,0.0,0.0,0.0,0.0,0.0,0.0,0.0,0.0,0.0,0.0,0.0,0.0,0.0,0.0,0.0,0.0,0.0,0.0,0.0,0.0,0.0,0.0,0.0,0.0,0.0,0.0,0.0,0.0,0.0,0.0,0.0,0.0,0.0,0.0,0.0,0.0,0.0,0.0,0.0,0.0,0.0,0.0,0.0,0.0,0.0,0.0,0.0,0.0,0.0,0.0,0.0,0.0,0.0,6.5411,7.1138,7.7598,8.4939,8.7545,8.861,8.8096,8.3434,7.7855,0.0,0.0,0.0,0.0,0.0,0.0,0.0,0.0,0.0,0.0,0.0,0.0,0.0,0.0,0.0,0.0,0.0,0.0,0.0,0.0,0.0,0.0,0.0,0.0,0.0,0.0,0.0,0.0,0.0,0.0,0.0,0.0,0.0,0.0,0.0,0.0,0.0,0.0,0.0,0.0,4.809,4.9969,5.3545,0.0,0.0,0.0,0.0,0.0,0.0,4.7787,4.6657,0.0,0.0,0.0,0.0,0.0,0.0,0.0,0.0,0.0,0.0,0.0,0.0,0.0,0.0,0.0,0.0,0.0,0.0,0.0,0.0,0.0,0.0,0.0,0.0,0.0,0.0,0.0,0.0,0.0,0.0,0.0,0.0,0.0,0.0,0.0,0.0,0.0,0.0,0.0,0.0,0.0,0.0,0.0,0.0,0.0,0.0,0.0,0.0,0.0,0.0,0.0,0.0,0.0,0.0,0.0,6.4273,7.3046,8.0424,8.6004,8.7545,8.828,8.8316,8.2003,7.6203,0.0,0.0,0.0,0.0,0.0,0.0,0.0,0.0,0.0,0.0,0.0,0.0,0.0,0.0,0.0,0.0,0.0,0.0,0.0,0.0,0.0,0.0,0.0,0.0,0.0,0.0,0.0,0.0,0.0,0.0,0.0,0.0,0.0,0.0,0.0,0.0,0.0,0.0,0.0,0.0,0.0,5.3203,5.6364,5.4264,0.0,0.0,0.0,0.0,5.2045,5.1665,0.0,0.0,0.0,0.0,0.0,0.0,0.0,0.0,0.0,0.0,0.0,0.0,0.0,0.0,0.0,0.0,0.0,0.0,0.0,0.0,0.0,0.0,0.0,0.0,0.0,0.0,0.0,0.0,0.0,0.0,0.0,0.0,0.0,0.0,0.0,0.0,0.0,0.0,0.0,0.0,0.0,0.0,0.0,0.0,0.0,0.0,0.0,0.0,0.0,0.0,0.0,0.0,0.0,0.0,0.0,0.0,6.4934,7.1174,7.8699,8.7399,8.8096,8.8536,8.9197,8.5013,7.8772,0.0,0.0,0.0,0.0,0.0,0.0,0.0,0.0,0.0,0.0,0.0,0.0,0.0,0.0,0.0,0.0,0.0,0.0,0.0,0.0,0.0,0.0,0.0,0.0,0.0,0.0,0.0,0.0,0.0,0.0,0.0,0.0,0.0,0.0,0.0,0.0,0.0,0.0,0.0,0.0,0.0,5.7314,5.7166,5.6572,5.5862,0.0,0.0,5.6802,6.0098,6.2084,0.0,0.0,0.0,0.0,0.0,0.0,0.0,0.0,0.0,0.0,0.0,0.0,0.0,0.0,0.0,0.0,0.0,0.0,0.0,0.0,0.0,0.0,0.0,0.0,0.0,0.0,0.0,0.0,0.0,0.0,0.0,0.0,0.0,0.0,0.0,0.0,0.0,0.0,0.0,0.0,0.0,0.0,0.0,0.0,0.0,0.0,0.0,0.0,0.0,0.0,0.0,0.0,0.0,0.0,0.0,5.8437,6.5375,7.4918,8.259,8.7949,8.8647,8.905,8.9381,8.2847,7.6387,0.0,0.0,0.0,0.0,0.0,0.0,0.0,0.0,0.0,0.0,0.0,0.0,0.0,0.0,0.0,0.0,0.0,0.0,0.0,0.0,0.0,0.0,0.0,0.0,0.0,0.0,0.0,0.0,0.0,0.0,0.0,0.0,0.0,0.0,0.0,0.0,0.0,0.0,0.0,0.0,0.0,0.0,6.0268,6.0733,0.0,0.0,0.0,6.1618,6.3576,0.0,0.0,0.0,0.0,0.0,0.0,0.0,0.0,0.0,0.0,0.0,0.0,0.0,0.0,0.0,0.0,0.0,0.0,0.0,0.0,0.0,0.0,0.0,0.0,0.0,0.0,0.0,0.0,0.0,0.0,0.0,0.0,0.0,0.0,0.0,0.0,0.0,0.0,0.0,0.0,0.0,0.0,0.0,0.0,0.0,0.0,0.0,0.0,0.0,0.0,0.0,0.0,0.0,0.0,0.0,0.0,0.0,6.5742,7.8112,8.5857,8.839,8.9087,8.9417,8.9271,8.1929,0.0,0.0,0.0,0.0,0.0,0.0,0.0,0.0,0.0,0.0,0.0,0.0,0.0,0.0,0.0,0.0,0.0,0.0,0.0,0.0,0.0,0.0,0.0,0.0,0.0,0.0,0.0,2.5575,0.0,0.0,0.0,0.0,0.0,0.0,0.0,0.0,0.0,0.0,0.0,0.0,0.0,0.0,6.026,6.2908,6.4785,6.6329,0.0,0.0,6.6549,6.754,6.9265,6.7797,0.0,0.0,0.0,0.0,0.0,0.0,0.0,0.0,0.0,0.0,0.0,0.0,0.0,0.0,0.0,0.0,0.0,0.0,0.0,0.0,0.0,0.0,0.0,0.0,0.0,0.0,0.0,0.0,0.0,0.0,0.0,0.0,0.0,0.0,0.0,0.0,0.0,0.0,0.0,0.0,0.0,0.0,0.0,0.0,0.0,0.0,0.0,0.0,0.0,0.0,0.0,0.0,0.0,0.0,0.0,6.6623,7.8405,8.6151,8.9197,8.9381,8.9417,8.9344,8.5196,7.8185,0.0,0.0,0.0,0.0,0.0,0.0,0.0,0.0,0.0,0.0,0.0,0.0,0.0,0.0,0.0,0.0,0.0,0.0,0.0,0.0,0.0,0.0,0.0,0.0,0.0,0.0,0.0,0.0,0.0,0.0,0.0,0.0,0.0,0.0,0.0,0.0,0.0,0.0,0.0,0.0,0.0,6.1753,6.3981,6.8016,7.1651,0.0,7.2936,7.2496,7.4037,7.8075,7.6644,6.3503,0.0,0.0,0.0,0.0,0.0,0.0,0.0,0.0,0.0,0.0,0.0,0.0,0.0,0.0,0.0,0.0,0.0,0.0,0.0,0.0,0.0,0.0,0.0,0.0,0.0,0.0,0.0,0.0,0.0,0.0,0.0,0.0,0.0,0.0,0.0,0.0,0.0,0.0,0.0,0.0,0.0,0.0,0.0,0.0,0.0,0.0,0.0,0.0,0.0,0.0,0.0,0.0,0.0,6.2108,6.6586,7.9433,8.7178,8.9344,9.0372,9.0665,9.0152,8.6261,7.969,0.0,0.0,0.0,0.0,0.0,0.0,0.0,0.0,0.0,0.0,0.0,0.0,0.0,0.0,0.0,0.0,0.0,0.0,0.0,0.0,0.0,0.0,0.0,0.0,0.0,0.0,0.0,0.0,3.4677,3.5773,3.4983,0.0,0.0,0.0,0.0,0.0,0.0,0.0,0.0,0.0,0.0,6.5945,6.9672,7.3423,0.0,0.0,7.7708,7.7194,7.7818,7.7781,7.4735,6.5999,6.1263,0.0,0.0,0.0,0.0,0.0,0.0,0.0,0.0,0.0,0.0,0.0,0.0,0.0,0.0,0.0,0.0,0.0,0.0,0.0,0.0,0.0,0.0,0.0,0.0,0.0,0.0,0.0,0.0,0.0,0.0,0.0,0.0,0.0,0.0,0.0,0.0,0.0,0.0,0.0,0.0,0.0,0.0,0.0,0.0,0.0,0.0,0.0,0.0,0.0,0.0,0.0,0.0,6.3025,6.7577,8.0388,8.7912,8.9748,9.1106,9.1436,9.0555,8.7178,8.1269,0.0,0.0,0.0,0.0,0.0,0.0,0.0,0.0,0.0,0.0,0.0,0.0,0.0,0.0,0.0,0.0,0.0,0.0,0.0,0.0,0.0,0.0,0.0,0.0,0.0,0.0,0.0,0.0,3.8096,3.8671,3.6993,0.0,0.0,0.0,0.0,0.0,0.0,0.0,0.0,0.0,0.0,6.9527,7.3842,7.7056,7.936,8.0461,7.9727,7.9029,7.9029,7.7524,7.4111,6.7577,0.0,0.0,0.0,0.0,0.0,0.0,0.0,0.0,0.0,0.0,0.0,0.0,0.0,0.0,0.0,0.0,0.0,0.0,0.0,0.0,0.0,0.0,0.0,0.0,0.0,0.0,0.0,4.2213,0.0,0.0,3.9827,0.0,0.0,0.0,0.0,0.0,0.0,0.0,0.0,0.0,0.0,0.0,0.0,0.0,0.0,0.0,0.0,0.0,0.0,0.0,0.0,0.0,0.0,6.431,7.0036,8.1195,8.8169,9.0482,9.1363,9.1436,9.0592,8.8243,8.3141,7.4918,0.0,0.0,0.0,0.0,0.0,0.0,0.0,0.0,0.0,0.0,0.0,0.0,0.0,0.0,0.0,0.0,0.0,0.0,0.0,0.0,0.0,0.0,0.0,0.0,0.0,0.0,3.7559,3.8053,3.7768,0.0,0.0,0.0,0.0,0.0,0.0,0.0,0.0,0.0,0.0,6.5327,7.1781,7.5555,7.8222,7.9837,7.991,7.8516,7.7451,7.7524,7.8589,7.668,0.0,0.0,0.0,0.0,0.0,0.0,0.0,0.0,0.0,0.0,0.0,0.0,0.0,0.0,0.0,0.0,0.0,0.0,0.0,0.0,0.0,0.0,0.0,0.0,0.0,0.0,0.0,4.9114,4.7095,0.0,0.0,0.0,0.0,0.0,0.0,0.0,0.0,0.0,0.0,0.0,5.8334,6.0152,0.0,0.0,0.0,0.0,0.0,0.0,0.0,0.0,0.0,0.0,0.0,0.0,6.387,7.0257,8.0718,8.7362,8.9748,9.1106,9.1657,9.1363,8.905,8.3308,7.374,0.0,0.0,0.0,0.0,0.0,0.0,0.0,0.0,0.0,0.0,0.0,0.0,0.0,0.0,0.0,0.0,0.0,0.0,0.0,0.0,0.0,0.0,0.0,0.0,0.0,3.9346,0.0,0.0,0.0,0.0,0.0,0.0,0.0,0.0,0.0,0.0,0.0,5.5274,6.2295,6.869,7.3859,7.7304,7.9837,8.1562,0.0,0.0,0.0,0.0,0.0,0.0,0.0,0.0,0.0,0.0,0.0,0.0,0.0,0.0,6.414,5.3997,5.1694,5.1261,5.1165,0.0,0.0,0.0,0.0,0.0,0.0,0.0,0.0,0.0,0.0,0.0,0.0,0.0,0.0,5.4326,0.0,5.2259,0.0,0.0,0.0,0.0,0.0,0.0,0.0,0.0,6.0407,6.3816,6.5223,6.7091,6.7277,0.0,6.355,5.8486,0.0,0.0,0.0,0.0,0.0,0.0,0.0,0.0,6.4861,7.1468,8.1158,8.7399,8.9748,9.1106,9.1803,9.173,8.8904,8.3275,7.4723,6.8951,6.3338,0.0,0.0,0.0,0.0,0.0,0.0,0.0,0.0,0.0,0.0,0.0,0.0,0.0,0.0,0.0,0.0,0.0,0.0,0.0,0.0,0.0,0.0,0.0,4.2853,0.0,0.0,0.0,0.0,0.0,0.0,0.0,0.0,0.0,5.0052,5.5424,6.1604,6.7648,7.2468,7.6166,7.8295,0.0,0.0,0.0,0.0,0.0,0.0,0.0,7.5065,7.3964,7.1688,7.0036,7.0183,7.2202,7.3303,7.1651,0.0,0.0,6.2218,5.9832,5.9465,5.9428,6.0493,6.1447,6.1741,6.3466,6.4824,0.0,0.0,0.0,0.0,0.0,0.0,0.0,0.0,5.7483,5.829,0.0,5.7621,0.0,0.0,0.0,0.0,0.0,5.7859,0.0,0.0,7.0524,7.3915,7.2742,7.3452,7.3404,7.2645,7.1907,6.8693,6.2965,5.5397,0.0,0.0,0.0,0.0,0.0,0.0,6.732,7.3744,8.2443,8.8133,9.0445,9.1363,9.1767,9.1657,8.7986,8.3448,7.8177,7.5501,7.0953,6.3899,5.955,0.0,0.0,0.0,0.0,0.0,0.0,0.0,0.0,0.0,0.0,0.0,0.0,0.0,0.0,0.0,0.0,0.0,0.0,0.0,0.0,4.5809,0.0,0.0,0.0,0.0,0.0,0.0,0.0,0.0,0.0,0.0,5.6915,6.1914,6.7737,7.2951,0.0,0.0,0.0,0.0,7.9874,7.9984,7.9323,7.8883,7.8919,8.0057,7.991,7.69,0.0,0.0,7.5946,7.7231,7.7818,7.4698,7.6203,7.679,7.4368,7.0954,6.8935,6.8898,6.8348,6.8311,6.9119,7.0513,7.1615,6.8037,0.0,0.0,0.0,0.0,6.2695,6.4934,6.8017,6.8017,6.699,6.5191,6.4156,0.0,0.0,0.0,0.0,0.0,0.0,6.5031,6.8565,7.3258,7.6916,7.9685,8.052,8.0786,8.0558,7.9215,7.6639,7.2941,6.8368,6.087,5.0802,0.0,0.0,0.0,0.0,6.8972,7.5395,8.2517,8.7325,8.9711,9.1106,9.151,9.0959,8.872,8.5955,8.2501,7.9892,7.5825,7.0124,6.5674,0.0,0.0,0.0,0.0,0.0,0.0,0.0,0.0,0.0,0.0,0.0,0.0,0.0,0.0,0.0,0.0,0.0,0.0,0.0,4.5024,4.6621,4.7223,0.0,0.0,0.0,0.0,0.0,0.0,0.0,0.0,0.0,6.822,6.9153,7.0857,0.0,0.0,7.7047,7.7598,7.9396,8.1048,8.2186,8.2663,0.0,8.3654,8.2663,8.1929,8.2113,8.3434,8.4022,8.2884,8.3251,8.3434,8.2406,8.2406,8.226,8.1415,7.7414,7.4294,7.4037,7.4294,7.5028,7.6387,7.7524,7.8369,7.8115,7.2224,6.8284,6.7543,6.9082,6.9559,7.1762,7.4918,7.4918,7.4139,7.2815,7.1947,6.8714,6.3966,6.2427,0.0,0.0,0.0,7.0854,7.4948,7.8068,8.1185,8.4131,8.5009,8.5238,8.4856,8.3358,8.1324,7.8941,7.6106,6.9767,6.03,0.0,0.0,6.0052,6.6182,7.2055,7.7561,8.3618,8.7619,8.9381,9.0959,9.14,9.0629,8.9344,8.7593,8.5321,8.3329,8.0318,7.6161,7.1751,6.6436,0.0,0.0,0.0,0.0,0.0,0.0,0.0,0.0,0.0,0.0,0.0,3.8779,3.5678,0.0,0.0,0.0,4.2874,4.6458,4.9828,5.0722,0.0,0.0,0.0,0.0,0.0,0.0,0.0,6.0713,6.6256,7.1138,7.4661,7.5432,7.6276,7.8075,7.8405,7.8809,7.9617,0.0,8.2663,8.4572,8.5233,8.582,8.6591,8.582,8.5416,8.6371,8.6885,8.7215,8.7215,8.7215,8.7215,8.7105,8.6334,8.5563,8.5563,8.2186,7.947,7.9507,8.0131,8.1012,8.2003,8.2553,8.3067,8.6841,8.5328,7.7287,7.4548,7.5431,7.5678,7.7059,7.9154,7.9202,7.9865,8.0898,7.9954,7.7432,7.367,7.0135,0.0,7.1144,7.496,7.8312,8.1166,8.4161,8.6046,8.6885,8.7648,8.761,8.6846,8.5493,8.3919,8.2114,7.9991,7.6938,7.2944,6.8683,6.6659,6.7026,7.1578,7.5946,7.9874,8.5306,8.8573,8.9601,9.1033,9.1436,9.0629,8.9784,8.8477,8.6672,8.5729,8.4108,8.1451,7.7385,7.2514,6.6782,0.0,0.0,0.0,0.0,0.0,0.0,0.0,0.0,0.0,0.0,0.0,0.0,0.0,0.0,0.0,5.0251,0.0,5.6079,5.6692,0.0,0.0,0.0,5.6785,5.8657,6.1594,6.4714,6.7871,0.0,0.0,7.7598,8.0534,8.281,8.3691,8.292,8.2627,8.3471,8.3728,8.4609,8.6848,8.7325,8.7655,8.8463,8.8977,8.9344,8.9417,8.9601,8.9564,8.9528,8.9454,8.9491,8.9417,8.8243,8.7215,8.7215,8.582,8.4976,8.4866,8.5123,8.5527,8.549,8.549,8.5527,9.1658,9.0647,8.8014,8.5052,8.2108,8.2743,8.3403,8.3938,8.4055,8.3639,8.2729,8.2387,8.1332,7.9796,7.8867,7.9001,8.0057,8.2102,8.3806,8.519,8.7006,8.8646,9.0067,9.0298,9.0261,9.0031,8.9726,8.8138,8.5511,8.4306,8.2141,7.903,7.777,7.4588,6.9633,7.4037,7.7855,8.0718,8.5049,8.8573,9.1143,9.162,9.1436,9.0629,8.9234,8.7688,8.6119,8.5639,8.453,8.2557,8.0006,7.6784,7.2745,6.3358,0.0,0.0,0.0,0.0,0.0,0.0,0.0,0.0,0.0,4.5516,4.0047,0.0,4.7719,0.0,5.3555,5.7547,5.9127,5.8893,0.0,0.0,6.141,6.1814,6.5852,6.8091,7.0293,7.2899,7.6387,7.947,8.1709,8.3691,8.5453,8.6811,8.4792,8.3618,8.4976,8.6297,8.7472,8.8647,8.9821,9.0702,9.0812,9.1069,9.1216,9.1216,9.1216,9.1216,9.1216,9.0739,9.0335,9.0262,8.9528,8.8904,8.883,8.85,8.828,8.8096,8.6518,8.5086,8.5637,8.582,8.6004,9.5213,9.4635,9.3946,9.1862,8.9005,8.8164,8.7942,8.8261,8.8339,8.7817,8.6893,8.643,8.5515,8.4512,8.4474,8.4506,8.4778,8.6604,8.7883,8.8654,9.0219,9.1402,9.2326,9.2326,9.2326,9.2326,9.2326,9.1069,8.8695,8.7571,8.5853,8.352,8.2903,8.0388,7.6313,7.8332,8.0534,8.259,8.6224,8.9307,9.1693,9.1803,9.1069,8.9564,8.8316,8.6554,8.4242,8.3301,8.2297,8.1226,7.9362,7.6831,7.3668,6.6821,6.1243,0.0,0.0,0.0,0.0,0.0,0.0,0.0,0.0,0.0,0.0,0.0,5.2344,5.4252,5.8253,6.152,6.3466,6.3576,6.4861,6.8164,6.7614,6.8495,7.2239,7.4111,7.5873,7.7928,8.0388,8.27,8.4756,8.6114,8.7472,8.905,8.7729,8.6921,8.7766,8.872,8.9564,9.0372,9.1216,9.1803,9.1803,9.2427,9.2611,9.1987,9.2134,9.2281,9.1877,9.1436,9.1143,9.1106,9.0482,8.9931,8.9931,8.9638,8.9417,8.916,8.8023,8.7068,8.7325,8.7399,8.7582,9.7442,9.7288,9.6596,9.5865,9.4944,9.2375,9.1547,9.1884,9.1838,9.1736,9.1514,9.0608,8.9573,8.8453,8.8492,8.811,8.7575,8.9676,9.0951,9.1595,9.3018,9.3749,9.3864,9.3864,9.3864,9.3864,9.3753,9.2909,9.1372,9.0049,8.8489,8.6802,8.5608,8.4609,8.3728,8.3104,8.3508,8.4939,8.7912,9.0152,9.1583,9.1546,9.0335,8.8023,8.7031,8.5049,8.1856,8.0295,7.9425,7.9114,7.7678,7.5834,7.3409,6.9706,6.5551,0.0,5.7434,0.0,0.0,0.0,0.0,0.0,0.0,0.0,0.0,5.5757,5.8217,6.108,6.3686,6.6109,6.8421,6.9449,7.0917,7.3156,7.4147,7.5542,7.7855,7.9396,8.0901,8.259,8.4058,8.5527,8.7068,8.8023,8.9087,9.0445,9.0739,9.0665,9.0849,9.0776,9.0922,9.173,9.1877,9.206,9.217,9.3272,9.3749,9.2537,9.2758,9.2978,9.2317,9.217,9.2134,9.206,9.151,9.0996,9.0922,9.0298,8.9784,8.9821,8.9674,8.9491,8.9271,8.9197,8.9417,9.7134,9.6519,9.6365,9.6211,9.6057,9.6135,9.5117,9.3431,9.2917,9.2651,9.2503,9.2276,9.233,9.2563,9.2563,9.2486,9.2371,9.2832,9.3099,9.321,9.3557,9.4057,9.4749,9.4749,9.4749,9.4749,9.4129,9.3382,9.2389,9.096,8.9467,8.786,8.7608,8.6811,8.5453,0.0,0.0,0.0,8.8426,8.9895,9.0776,9.0188,8.872,8.6334,8.4829,0.0,7.947,7.9406,7.9425,7.9274,7.935,0.0,0.0,0.0,0.0,0.0,0.0,0.0,0.0,0.0,0.0,0.0,6.3272,6.1218,5.7602,6.1594,6.4971,6.6256,6.9119,7.1651,7.3377,7.4882,7.646,7.8185,7.914,8.0314,8.2039,8.2553,8.3581,8.582,8.6371,8.7178,8.8683,8.9674,9.0519,9.1473,9.2207,9.2611,9.2611,9.2024,9.1657,9.1803,9.2464,9.2868,9.2831,9.3712,9.4336,9.3896,9.3896,9.3969,9.3786,9.3749,9.3786,9.3749,9.3161,9.2611,9.2574,9.1913,9.1326,9.1326,9.1326,9.0959,8.9711,8.9417,8.9417,9.8552,0.0,9.8596,9.8288,0.0,9.798,9.7442,9.6312,9.599,9.5855,9.5723,9.527,9.506,9.498,9.4518,9.4326,9.4326,9.4326,9.4788,9.5557,9.5557,9.5826,9.6211,9.6249,9.6019,9.5634,9.525,9.463,9.3785,9.2733,9.1374,8.9817,8.9522,8.876,8.7619,8.839,8.861,8.8206,8.9381,9.0372,9.1143,9.0812,8.9234,8.6481,8.4829,0.0,0.0,0.0,0.0,0.0,0.0,0.0,0.0,0.0,0.0,7.3399,7.1014,6.9398,6.9013,6.9596,7.0348,7.1273,7.1864,6.9992,6.4949,6.7944,7.055,7.1762,7.4111,7.6019,7.7231,7.8772,8.0241,8.1452,8.2296,8.3251,8.4425,8.5306,8.6224,8.7325,8.7949,8.8683,8.9858,9.0702,9.151,9.2391,9.3161,9.3675,9.3675,9.3345,9.3051,9.3051,9.3749,9.4116,9.3896,9.474,9.5107,9.4593,9.463,9.4703,9.4336,9.4299,9.4299,9.4263,9.3932,9.3602,9.3161,9.3015,9.2905,9.2611,9.2758,9.2648,9.1473,9.0886,9.0592,9.9917,9.9942,10.0596,10.0058,9.8788,9.8942,9.9096,9.9211,0.0,0.0,0.0,9.7442,9.6828,9.6288,9.5672,9.5441,9.5441,9.5595,9.6326,9.748,9.7519,9.7403,9.7288,9.7442,9.7096,9.6326,9.6328,9.5944,9.5174,9.4381,9.3249,9.1876,9.1216,9.0592,8.9929,9.0482,9.0555,9.0115,9.0445,9.0996,9.1767,9.1657,9.0188,8.7288,8.5673,8.2994,7.9176,7.7084,7.5754,7.538,7.4997,7.5203,7.6255,7.6955,7.7669,7.8323,7.84,7.84,7.84,7.8554,7.8436,7.7987,7.9067,7.7866,7.3361,7.4221,7.5652,7.7268,7.8662,7.9837,8.0755,8.2186,8.3361,8.4168,8.4976,8.571,8.6407,8.7545,8.8426,8.883,8.9454,9.0225,9.1216,9.1877,9.2574,9.3382,9.4116,9.4593,9.463,9.441,9.4153,9.4189,9.474,9.518,9.4887,9.5658,9.6098,9.507,9.5327,9.5437,9.4923,9.4703,9.4703,9.485,9.463,9.4263,9.3749,9.3896,9.4079,9.3455,9.3822,9.4079,9.3455,9.2758,9.2134,9.898,9.8981,9.9096,9.9019,9.8865,9.9596,10.0289,10.0711,9.7954,9.6738,9.6661,9.5898,9.5814,9.6326,9.6903,9.7134,9.7211,9.7942,9.8019,9.7519,9.7519,9.7134,9.6519,9.7173,9.7096,9.6366,9.6351,9.6312,9.5982,9.4725,9.3569,9.2727,9.2675,9.2195,9.1545,9.1583,9.195,9.2537,9.1289,9.0996,9.1767,9.1143,8.9895,8.8096,8.6481,8.4058,8.0828,8.0351,8.005,7.9817,8.0894,8.1817,8.2451,8.2476,8.2593,8.2708,8.2708,8.2708,8.2747,8.3401,8.3853,8.4019,8.4883,8.3805,8.0099,7.9837,8.0645,8.2186,8.2553,8.3324,8.4756,8.571,8.6554,8.7362,8.8206,8.8793,8.8867,8.916,8.9895,9.1106,9.1363,9.206,9.3272,9.3749,9.4153,9.4923,9.518,9.5547,9.5841,9.5144,9.4373,9.4373,9.4997,9.5401,9.5474,9.6061,9.6465,9.6428,9.6355,9.6392,9.6208,9.6135,9.6171,9.6318,9.5731,9.529,9.507,9.463,9.441,9.4153,9.4336,9.4336,9.4189,9.3932,9.3418,9.9508,9.9558,9.9981,9.9904,9.9558,10.0404,10.0712,10.048,9.8631,9.7829,9.7706,9.6905,9.6432,9.6393,9.6713,9.7096,9.7519,9.7904,9.7903,9.7657,9.8019,9.7788,9.7201,9.7827,9.775,9.6981,9.6978,9.6748,9.6251,9.5576,9.4725,9.3536,9.2764,9.2159,9.1876,9.2281,9.2684,9.3088,9.2354,9.2354,9.3125,9.2794,9.206,9.0886,8.8867,8.6885,8.4976,8.3654,8.2903,8.2665,8.3697,8.4495,8.5152,8.5931,8.6555,8.6978,8.7478,8.7709,8.7709,8.8094,8.8382,8.8561,8.898,8.8405,8.6363,8.4948,8.4572,8.5306,8.5747,8.6297,8.7031,8.7839,8.8463,8.883,8.9931,9.0665,9.0812,9.1583,9.2354,9.3015,9.3161,9.3455,9.4189,9.4666,9.5034,9.5511,9.5841,9.6282,9.6649,9.6098,9.5584,9.5658,9.5914,9.6098,9.6171,9.6428,9.6685,9.6722,9.6722,9.6722,9.6722,9.6722,9.6722,9.6685,9.6355,9.5988,9.5658,9.5621,9.5401,9.5034,9.5364,9.5437,9.5107,9.463,9.4042,10.0727,10.0712,10.1135,10.0943,10.0442,10.1058,10.0943,10.0327,9.9549,9.9203,9.8897,9.8011,9.7333,9.6986,9.6904,9.7326,9.8019,9.8096,9.817,9.8293,9.8863,9.8708,9.8102,9.8748,9.8634,9.7865,9.7788,9.7365,9.6634,9.6403,9.5533,9.4102,9.2728,9.2094,9.2097,9.2758,9.3272,9.3602,9.3675,9.3932,9.452,9.4556,9.4263,9.3565,9.162,9.0152,8.9271,8.7288,8.6163,8.6041,8.6854,8.7587,8.8098,8.9573,9.071,9.1325,9.1979,9.2364,9.2364,9.2326,9.241,9.2512,9.2531,9.2239,9.1575,8.9971,8.8414,8.7835,8.8206,8.8757,8.9087,8.9784,9.0298,9.0555,9.1583,9.2317,9.2501,9.3529,9.441,9.4483,9.4556,9.4593,9.4887,9.5364,9.5768,9.5914,9.6318,9.6685,9.6722,9.6722,9.6722,9.6722,9.6722,9.6649,9.6722,9.6685,9.6722,9.6722,9.6722,9.6722,9.6722,9.6722,9.6722,9.6685,9.6685,9.6465,9.5988,9.6208,9.6318,9.5914,9.6171,9.6392,9.5878,9.5401,9.4666,10.2365,10.2251,10.1673,10.1289,10.125,10.1327,10.1289,10.1095,10.0428,9.9651,9.9012,9.8096,9.8063,9.8518,9.8481,9.8942,9.9712,9.9827,9.9788,9.9749,9.9942,9.9519,9.8709,9.9519,9.9519,9.875,9.8635,9.8173,9.7403,9.6674,9.5571,9.4157,9.3264,9.298,9.2978,9.3088,9.3822,9.5254,9.529,9.529,9.5364,9.5401,9.5364,9.529,9.4336,9.3492,9.2537,9.1693,9.1069,9.1211,9.239,9.3234,9.3449,9.473,9.5595,9.5634,9.5749,9.5826,9.5788,9.5826,9.5751,9.5867,9.5806,9.5513,9.4839,9.4635,9.2973,9.0328,8.9968,9.0702,9.14,9.217,9.2831,9.3345,9.3786,9.4079,9.4042,9.4189,9.4556,9.5327,9.5401,9.5658,9.6171,9.6428,9.6539,9.6465,9.6575,9.6722,9.6722,9.6722,9.6722,9.6722,9.6722,9.6722,9.6722,9.6722,9.6722,9.6722,9.6722,9.6722,9.6722,9.6722,9.6722,9.6722,9.6722,9.6612,9.6575,9.6685,9.6649,9.6502,9.6575,9.6649,9.6575,9.6428,9.5878,10.3366,10.3328,10.2981,10.2828,10.2828,10.2828,10.2558,10.2057,10.1737,10.1153,10.0386,9.9965,9.9232,9.8189,9.8595,9.8981,9.9327,9.9865,9.9593,9.8801,9.9141,9.8961,9.8323,9.8502,9.8697,9.8873,9.8873,9.8661,9.8212,9.7472,9.6591,9.5536,9.4809,9.4197,9.3896,9.4299,9.4887,9.5511,9.5988,9.6208,9.6208,9.6208,9.6208,9.6135,9.5437,9.4887,9.4483,9.3712,9.3272,9.3382,9.4747,9.5536,9.5498,9.6942,9.775,9.7788,9.7788,9.7788,9.7788,9.7788,9.7788,9.775,9.7786,9.7311,9.6138,9.6079,9.4932,9.2902,9.2611,9.2941,9.3235,9.3602,9.3969,9.4299,9.4703,9.4997,9.4997,9.5437,9.5878,9.6171,9.6208,9.6318,9.6612,9.6722,9.6722,9.6722,9.6722,9.6722,9.6722,9.6722,9.6722,9.6722,9.6722,9.6722,9.6722,9.6722,9.6722,9.6722,9.6722,9.6722,9.6722,9.6722,9.6722,9.6722,9.6722,9.6722,9.6685,9.6722,9.6722,9.6722,9.6722,9.6722,9.6722,9.6722,9.6318,10.4052,10.4174,10.3982,10.3905,10.3905,10.3905,10.352,10.302,10.2943,10.2481,10.1712,10.1635,10.0589,9.8911,9.9055,9.925,9.9519,9.9904,9.9591,9.8746,9.9097,9.8985,9.8475,9.8159,9.8383,9.8808,9.8668,9.8516,9.8472,9.8232,9.762,9.6847,9.6288,9.5678,9.5034,9.5516,9.5773,9.5878,9.6428,9.6722,9.6685,9.6722,9.6722,9.6649,9.6135,9.5841,9.5841,9.5254,9.496,9.4999,9.6173,9.6965,9.7253,9.8448,9.9285,9.9481,9.9481,9.9481,9.9481,9.9481,9.9481,9.9481,9.9481,9.8921,9.7779,9.7309,9.6642,9.547,9.5073,9.4887,9.463,9.4813,9.496,9.4997,9.5511,9.5841,9.5878,9.6392,9.6649,9.6722,9.6612,9.6722,9.6722,9.6722,9.6722,9.6722,9.6722,9.6722,9.6722,9.6722,9.6722,9.6722,9.6722,9.6722,9.6722,9.6722,9.6722,9.6722,9.6722,9.6722,9.6722,9.6722,9.6722,9.6722,9.6722,9.6722,9.6722,9.6722,9.6722,9.6722,9.6722,9.6722,9.6722,9.6722,9.6722,10.4346,10.4864,10.4251,10.3982,10.3905,10.3982,10.3905,10.3828,10.3828,10.3328,10.2597,10.2558,10.2019,10.1056,10.0481,10.0481,10.1019,10.0519,10.0558,10.0901,10.0383,10.0098,10.001,9.9308,9.8932,9.8952,9.8234,9.7901,9.7829,9.8393,9.8396,9.7706,9.7638,9.7247,9.6611,9.6504,9.6606,9.6693,9.6649,9.6722,9.6722,9.6722,9.6759,9.6759,9.6649,9.6575,9.6612,9.6612,9.6539,9.6575,9.727,9.8028,9.8856,9.9657,10.0442,10.1018,10.1135,10.1135,10.1096,10.1058,10.1058,10.1096,10.0981,10.0778,9.9755,9.906,9.8252,9.7644,9.6842,9.6245,9.5621,9.5951,9.6392,9.6428,9.6539,9.6612,9.6612,9.6612,9.6685,9.6722,9.6722,9.6722,9.6722,9.6722,9.6722,9.6722,9.6722,9.6722,9.6722,9.6722,9.6722,9.6722,9.6722,9.6722,9.6722,9.6722,9.6722,9.6722,9.6722,9.6722,9.6722,9.6722,9.6722,9.6722,9.6722,9.6722,9.6722,9.6722,9.6722,9.6722,9.6722,9.6722,9.6722,9.6722,9.6722,10.4911,10.5142,10.4836,10.5026,10.552,10.552,10.5174,10.4674,10.4674,10.4212,10.352,10.3443,10.3251,10.2943,10.2674,10.2366,10.2135,10.1827,10.1866,10.1938,10.0799,10.0196,10.0029,9.8909,9.8582,9.8899,9.8215,9.8287,9.921,9.958,9.958,9.9355,9.9269,9.8932,9.8185,9.761,9.7366,9.7351,9.699,9.6722,9.6795,9.7199,9.7456,9.7419,9.6942,9.6722,9.6722,9.6722,9.6722,9.6722,9.7422,9.8188,9.9007,10.0233,10.105,10.125,10.1289,10.1289,10.1289,10.1289,10.1289,10.1289,10.1289,10.1046,10.0233,9.9493,9.8651,9.7972,9.7691,9.7089,9.6539,9.6539,9.6722,9.6722,9.6722,9.6722,9.6722,9.6722,9.6722,9.6722,9.6722,9.6722,9.6722,9.6722,9.6722,9.6722,9.6722,9.6722,9.6722,9.6722,9.6722,9.6722,9.6722,9.6722,9.6722,9.6722,9.6722,9.6722,9.6722,9.6722,9.6722,9.6722,9.6722,9.6722,9.6722,9.6722,9.6722,9.6801,9.6838,9.6801,9.6838,9.6877,9.6722,9.6762,9.6762,10.518,10.518,10.518,10.5686,10.6326,10.6405,10.6097,10.552,10.552,10.5059,10.4405,10.4289,10.4135,10.3982,10.4174,10.3982,10.3405,10.3174,10.302,10.286,10.1377,10.063,10.033,9.8981,9.8611,9.9016,9.8811,9.923,10.0179,10.0748,10.0985,10.0985,10.1215,10.0833,9.9855,9.9208,9.878,9.8203,9.7724,9.7506,9.757,9.8007,9.83,9.8227,9.775,9.7493,9.7456,9.7236,9.7089,9.7166,9.7838,9.868,9.98,10.0994,10.1827,10.2058,10.1866,10.1866,10.2097,10.2135,10.2174,10.2135,10.2135,10.1897,10.1392,10.0659,9.9858,9.9215,9.8787,9.8355,9.7717,9.7493,9.7273,9.6906,9.6906,9.6942,9.6759,9.6722,9.6722,9.6722,9.6722,9.6722,9.6722,9.6722,9.6722,9.6722,9.6722,9.6722,9.6722,9.6722,9.6722,9.6722,9.6722,9.6722,9.6722,9.6722,9.6722,9.6722,9.6722,9.6722,9.6722,9.6722,9.6722,9.6722,9.6722,9.6722,9.6762,9.6952,9.699,9.7064,9.7137,9.7245,9.7101,9.6877,9.6801,10.5219,10.5282,10.5219,10.5754,10.6434,10.6595,10.6482,10.6444,10.6405,10.5905,10.5174,10.5097,10.4751,10.4289,10.4828,10.5097,10.4905,10.4328,10.3982,10.3744,10.2319,10.1557,10.1378,9.9941,9.9113,9.9117,9.9832,10.0145,10.0337,10.158,10.2258,10.2647,10.3186,10.2764,10.1454,10.1217,10.0539,9.9525,9.9029,9.8981,9.9117,9.9071,9.9108,9.9108,9.9035,9.9035,9.9108,9.8337,9.7897,9.797,9.8635,9.9832,10.1136,10.2141,10.2943,10.3443,10.302,10.3058,10.3635,10.3712,10.3597,10.3597,10.3751,10.3557,10.3318,10.2761,10.2,10.1174,10.0545,9.9829,9.9158,9.9071,9.8521,9.7163,9.7493,9.7603,9.7089,9.6795,9.6759,9.6869,9.6906,9.6759,9.6759,9.6722,9.6722,9.6722,9.6722,9.6722,9.6722,9.6722,9.6722,9.6722,9.6722,9.6722,9.6722,9.6722,9.6722,9.6722,9.6722,9.6722,9.6722,9.6722,9.6722,9.6722,9.6722,9.6722,9.6801,9.699,9.7422,9.7562,9.7663,9.7663,9.7422,9.721,9.684,10.5528,10.6012,10.6001,10.6465,10.7284,10.7851,10.7829,10.7328,10.729,10.6828,10.6097,10.602,10.5867,10.5713,10.5905,10.602,10.5982,10.5713,10.5328,10.4666,10.3678,10.2828,10.2207,10.1247,10.0167,9.9301,9.9345,9.9797,10.0395,10.1355,10.2067,10.2663,10.3498,10.3632,10.3076,10.2562,10.1741,10.0819,10.0217,9.9718,9.9223,9.9659,9.9916,9.9916,9.9952,10.0172,10.065,9.9438,9.8741,9.8741,9.8961,9.9833,10.14,10.2753,10.3595,10.3789,10.3674,10.3558,10.3828,10.3943,10.402,10.3943,10.3943,10.3905,10.3826,10.332,10.2485,10.1766,10.1238,10.0644,9.9563,10.0136,9.9952,9.8521,9.8557,9.8631,9.83,9.8264,9.8337,9.83,9.786,9.7566,9.7419,9.7163,9.6869,9.6832,9.6795,9.6759,9.6722,9.6759,9.6722,9.6722,9.6722,9.6722,9.6722,9.6722,9.6722,9.6722,9.6722,9.6722,9.6722,9.6722,9.6722,9.6722,9.6722,9.6762,9.6877,9.7137,9.7663,9.8058,9.8188,9.8058,9.783,9.7525,9.7173,10.6602,10.7295,10.7035,10.7355,10.8098,10.8701,10.8636,10.8136,10.7829,10.7405,10.6905,10.6559,10.6597,10.6828,10.6867,10.7059,10.7328,10.7328,10.7059,10.6284,10.4903,10.4121,10.3491,10.2436,10.1314,10.022,9.9989,10.0229,10.0795,10.1555,10.2343,10.3124,10.3985,10.4351,10.4326,10.3838,10.3209,10.2449,10.1584,10.0917,10.0573,10.0667,10.076,10.076,10.0723,10.1164,10.1788,10.0943,10.0172,9.9737,9.9787,10.0745,10.2305,10.3655,10.4543,10.4826,10.5136,10.5328,10.5328,10.5751,10.5751,10.5751,10.5751,10.579,10.571,10.5173,10.4556,10.3529,10.3101,10.2217,10.0944,10.0919,10.1023,10.0136,9.9695,9.9438,9.9218,9.9108,9.9071,9.8924,9.8631,9.8411,9.819,9.8007,9.7603,9.7566,9.7346,9.7126,9.7052,9.6906,9.6795,9.6722,9.6722,9.6722,9.6722,9.6722,9.6722,9.6722,9.6722,9.6722,9.6722,9.6722,9.6722,9.6722,9.6722,9.6722,9.6801,9.7388,9.783,9.8215,9.8614,9.8591,9.8342,9.7927,9.7525,10.8213,10.8854,10.8115,10.8289,10.897,10.9133,10.9136,10.8867,10.8252,10.7944,10.7636,10.7098,10.7098,10.7636,10.7752,10.8098,10.8752,10.8675,10.8598,10.8009,10.669,10.5536,10.5148,10.3748,10.2575,10.1965,10.1684,10.1684,10.1807,10.2461,10.3231,10.4071,10.4692,10.518,10.5166,10.5213,10.4873,10.4049,10.3302,10.296,10.2751,10.2083,10.1677,10.1677,10.1714,10.2045,10.2595,10.2558,10.1934,10.0882,10.1352,10.2422,10.3889,10.4926,10.5754,10.6438,10.7328,10.7521,10.7829,10.7982,10.8406,10.8367,10.8329,10.8867,10.8364,10.8052,10.7519,10.6197,10.5441,10.4414,10.3009,10.2271,10.1795,10.1567,10.087,10.0136,9.9402,9.9365,9.9512,9.9438,9.9255,9.9181,9.9145,9.9035,9.8924,9.8814,9.8337,9.8043,9.7823,9.7493,9.6942,9.6832,9.6906,9.6722,9.6722,9.6722,9.6722,9.6722,9.6722,9.6722,9.6722,9.6722,9.6722,9.6722,9.6722,9.6722,9.6877,9.7351,9.8058,9.8614,9.8853,9.9007,9.889,9.8467,9.786,10.9083,10.9798,10.9628,10.9657,10.9924,11.0494,11.0406,10.9867,10.9637,10.9098,10.8636,10.8367,10.829,10.8559,10.8598,10.8713,10.8944,10.8983,10.8906,10.8829,10.8355,10.7571,10.6815,10.5381,10.4427,10.4096,10.3481,10.3256,10.3264,10.3427,10.3986,10.4856,10.5154,10.5515,10.6015,10.6674,10.6567,10.5829,10.5575,10.5043,10.4459,10.3711,10.3256,10.3256,10.3219,10.3329,10.3549,10.3586,10.3476,10.3044,10.3168,10.4023,10.551,10.6429,10.7225,10.7971,10.8406,10.8598,10.8675,10.8829,10.8944,10.8906,10.9098,10.8906,10.8906,10.8906,10.8415,10.7406,10.6581,10.5671,10.4679,10.3711,10.3264,10.3109,10.2045,10.1127,10.087,10.087,10.087,10.0796,10.0319,10.0062,9.9879,9.9585,9.9255,9.9218,9.8998,9.8778,9.8631,9.8117,9.7566,9.7346,9.7236,9.6906,9.6722,9.6722,9.6722,9.6722,9.6722,9.6722,9.6722,9.6722,9.6722,9.6722,9.6722,9.6722,9.6915,9.7317,9.8058,9.8712,9.9235,9.9401,9.9455,9.9235,9.8405,11.0264,11.0749,11.0737,11.077,11.0836,11.1275,11.1214,11.0714,11.0329,10.9944,10.9444,10.9021,10.9098,10.9444,10.9444,10.9675,10.9944,10.9983,10.9983,11.0021,11.0021,10.9091,10.7798,10.6564,10.5926,10.5169,10.4725,10.4255,10.3934,10.3896,10.4533,10.5523,10.5709,10.6299,10.7479,10.7867,10.8009,10.7485,10.7126,10.6526,10.5725,10.4839,10.4255,10.4007,10.3917,10.399,10.432,10.4394,10.4284,10.3925,10.3933,10.4648,10.6239,10.7204,10.8003,10.8859,10.9521,11.0021,10.9983,11.0021,11.0175,11.0367,11.0252,11.0021,11.0021,10.9983,10.9649,10.8835,10.798,10.6927,10.5763,10.4649,10.4007,10.3733,10.3072,10.2375,10.2081,10.1971,10.1824,10.1494,10.109,10.0796,10.0796,10.0356,10.0172,10.0062,9.9842,9.9695,9.9512,9.8851,9.8264,9.8007,9.7676,9.7346,9.6979,9.6869,9.6869,9.6832,9.7052,9.6979,9.6906,9.6869,9.6722,9.6722,9.6722,9.6762,9.6915,9.7174,9.7492,9.8188,9.9122,9.9653,9.96,9.9706,9.889,11.1522,11.1522,11.1522,11.1522,11.1478,11.1522,11.1483,11.1329,11.0714,11.0406,11.0214,10.9521,10.979,11.0329,11.0329,11.0714,11.1406,11.1252,11.1329,11.1291,11.1132,11.0257,10.864,10.8217,10.7372,10.6318,10.5716,10.5247,10.4856,10.447,10.495,10.5926,10.6302,10.7186,10.817,10.8782,10.9021,10.8849,10.841,10.7814,10.7106,10.63,10.5654,10.514,10.5027,10.5201,10.5568,10.5605,10.5385,10.4541,10.421,10.5136,10.6639,10.771,10.863,10.9719,11.106,11.1752,11.1752,11.1752,11.2022,11.2406,11.206,11.1791,11.1752,11.1752,11.1401,11.0551,10.9744,10.8404,10.6762,10.521,10.4611,10.4476,10.421,10.3806,10.3146,10.2815,10.2412,10.1714,10.1567,10.1494,10.1494,10.1494,10.142,10.0833,10.065,10.0503,10.0246,9.9695,9.9108,9.8631,9.8227,9.7823,9.7419,9.7016,9.7016,9.7052,9.7419,9.7493,9.7346,9.7199,9.6869,9.6722,9.6722,9.6722,9.6762,9.699,9.7284,9.7964,9.9007,9.9291,9.9346,9.96,9.9235,11.1522,11.1522,11.1522,11.1522,11.1522,11.1522,11.1522,11.1483,11.1291,11.1137,11.1137,11.0983,11.1021,11.1214,11.1137,11.1329,11.1483,11.1522,11.1522,11.1522,11.1522,11.1325,11.0479,10.9913,10.9405,10.8779,10.8327,10.7637,10.6847,10.6027,10.5991,10.6385,10.6779,10.696,10.8042,10.9617,10.9944,10.9936,10.9771,10.9642,10.9277,10.8539,10.7889,10.7546,10.7492,10.7661,10.7918,10.8028,10.7918,10.7367,10.6129,10.6279,10.8614,10.9421,11.0532,11.2129,11.2945,11.3407,11.3445,11.3368,11.3483,11.3599,11.3445,11.3483,11.3445,11.3368,11.2983,11.2242,11.1351,10.9809,10.7804,10.7068,10.6349,10.5863,10.5725,10.5422,10.4614,10.3513,10.2815,10.2412,10.1934,10.1494,10.1531,10.1567,10.1567,10.1494,10.1384,10.1237,10.087,10.0429,9.9916,9.9328,9.9035,9.8631,9.819,9.7823,9.7676,9.7676,9.7933,9.8117,9.797,9.7676,9.7383,9.7016,9.6722,9.6795,9.7199,9.7056,9.7395,9.8188,9.8982,9.9631,10.0056,9.9972,9.9926,11.1522,11.1522,11.1522,11.1522,11.1522,11.1522,11.1522,11.1522,11.1522,11.1522,11.1522,11.1522,11.1522,11.1522,11.1522,11.1522,11.1522,11.1522,11.1522,11.1522,11.1522,11.1522,11.144,11.1055,11.0651,11.0214,10.9714,10.9057,10.8254,10.7472,10.7176,10.7637,10.7946,10.8757,10.9528,11.1016,11.194,11.2017,11.1984,11.1837,11.1326,11.0917,11.0068,10.9416,10.9067,10.8799,10.8725,10.8762,10.8762,10.8468,10.7672,10.7946,11.0186,11.0806,11.19,11.348,11.3984,11.4253,11.4407,11.4253,11.4137,11.4561,11.4253,11.4022,11.3984,11.3984,11.383,11.3286,11.2436,11.1107,10.9069,10.7846,10.7441,10.7052,10.6636,10.624,10.5605,10.4577,10.3623,10.3366,10.2925,10.2485,10.2265,10.2045,10.1714,10.1677,10.1531,10.142,10.1384,10.0943,10.0613,10.0136,9.9842,9.9512,9.9071,9.8741,9.8484,9.8484,9.8631,9.8704,9.8668,9.8337,9.797,9.775,9.7603,9.786,9.8154,9.7901,9.7907,9.8648,9.9535,10.0388,10.1026,10.1178,10.1118,11.1522,11.1522,11.1522,11.1522,11.1522,11.1522,11.1522,11.1522,11.1522,11.1522,11.1522,11.1522,11.1522,11.1522,11.1522,11.1522,11.1522,11.1522,11.1522,11.1522,11.1752,11.1829,11.1786,11.1857,11.1715,11.0844,11.0487,10.9997,10.9308,10.8524,10.8429,10.9057,10.9688,11.0152,11.1405,11.2828,11.3465,11.3555,11.3555,11.3412,11.2883,11.2639,11.1929,11.0685,11.0131,10.9607,10.9472,10.9386,10.9276,10.9166,10.9166,11.0026,11.1081,11.1674,11.2468,11.4195,11.4599,11.4907,11.5253,11.4984,11.483,11.5407,11.4907,11.4522,11.4484,11.4561,11.4445,11.4022,11.335,11.2158,11.052,10.9384,10.8316,10.7591,10.6931,10.6553,10.6266,10.5715,10.4981,10.421,10.366,10.3182,10.2925,10.2669,10.2265,10.1898,10.1751,10.1641,10.1641,10.142,10.1017,10.087,10.0613,10.0136,9.9695,9.9879,9.9622,9.9365,9.9438,9.9548,9.9622,9.9585,9.9365,9.8888,9.8814,9.8924,9.8888,9.8631,9.8786,9.9385,10.0108,10.1049,10.1741,10.2333,10.2251,11.1522,11.1522,11.1522,11.1522,11.1522,11.1522,11.1522,11.1522,11.1598,11.1522,11.1598,11.156,11.1637,11.156,11.1522,11.1522,11.156,11.1522,11.156,11.1714,11.2099,11.2406,11.2599,11.3022,11.3241,11.3049,11.2145,11.1237,11.089,11.0202,10.978,10.993,11.0158,11.0689,11.1513,11.2489,11.3682,11.4324,11.4368,11.4279,11.4094,11.3939,11.3365,11.2291,11.1828,11.1412,11.0882,11.0781,11.0781,11.0817,11.0781,11.1366,11.2029,11.2299,11.3591,11.5188,11.583,11.5907,11.6061,11.6099,11.6099,11.6253,11.5984,11.5945,11.5984,11.5907,11.5484,11.4907,11.417,11.3105,11.1389,11.074,10.9661,10.8391,10.7554,10.7168,10.6599,10.6119,10.5752,10.5018,10.4394,10.3843,10.3623,10.3403,10.3146,10.2705,10.2338,10.2228,10.2228,10.1861,10.1384,10.131,10.1347,10.0796,10.0283,10.0723,10.0833,10.0393,10.0393,10.0723,10.0833,10.1053,10.0833,10.0062,9.9548,9.9402,9.9328,9.9365,9.9793,10.0315,10.106,10.1749,10.2646,10.3438,10.3612,11.1522,11.1522,11.1522,11.1522,11.1522,11.1522,11.1752,11.2099,11.2137,11.2368,11.2676,11.2791,11.2522,11.2252,11.2137,11.1945,11.1598,11.1522,11.1752,11.2137,11.2522,11.3022,11.333,11.3868,11.3945,11.3791,11.3132,11.2774,11.2675,11.188,11.1236,11.0945,11.1081,11.1584,11.2268,11.3421,11.4311,11.5118,11.5638,11.5907,11.5939,11.5855,11.5171,11.4173,11.3709,11.3103,11.2036,11.1808,11.1588,11.1295,11.1184,11.1642,11.2356,11.3169,11.4071,11.5535,11.6262,11.6484,11.6484,11.6484,11.6446,11.6446,11.6484,11.6484,11.6484,11.6369,11.6138,11.5445,11.5061,11.4164,11.2925,11.2386,11.1254,10.9913,10.8868,10.8001,10.7237,10.6792,10.636,10.5983,10.5568,10.5054,10.4394,10.4173,10.4027,10.3586,10.3036,10.2889,10.2889,10.2338,10.1824,10.1788,10.1824,10.1604,10.12,10.1494,10.1824,10.1494,10.131,10.1641,10.1714,10.1751,10.142,10.0796,10.0393,10.0209,10.0356,10.0576,10.098,10.1307,10.2155,10.2996,10.3845,10.4444,10.4614,11.1522,11.1522,11.1522,11.1598,11.1752,11.1752,11.2214,11.2868,11.2945,11.3291,11.3907,11.3753,11.3368,11.3022,11.2753,11.2406,11.1945,11.1945,11.2252,11.2906,11.3291,11.3714,11.4099,11.4445,11.4638,11.4791,11.4599,11.4407,11.3996,11.3265,11.2623,11.2396,11.2694,11.2722,11.3137,11.392,11.5391,11.631,11.7285,11.7792,11.7999,11.7962,11.7269,11.5724,11.5391,11.4553,11.3192,11.2794,11.2359,11.2029,11.1897,11.2098,11.2752,11.3778,11.4691,11.5402,11.625,11.6547,11.6522,11.6792,11.6792,11.6522,11.6484,11.6484,11.6484,11.6446,11.6253,11.5676,11.5522,11.5176,11.4234,11.3644,11.2754,11.1634,11.0391,10.9298,10.8485,10.7872,10.7566,10.7179,10.6827,10.6082,10.5201,10.5128,10.5018,10.4467,10.3917,10.3806,10.3696,10.2925,10.2448,10.2301,10.2265,10.2265,10.2191,10.2265,10.2485,10.2448,10.2338,10.2522,10.2375,10.2228,10.1934,10.1861,10.1604,10.1494,10.1641,10.1494,10.1449,10.1907,10.3177,10.3935,10.4209,10.497,10.5575,11.1522,11.1522,11.1522,11.1906,11.2483,11.256,11.306,11.3791,11.3868,11.3907,11.4176,11.3407,11.3445,11.3599,11.306,11.3137,11.3253,11.2945,11.3022,11.383,11.4445,11.483,11.5253,11.5907,11.5869,11.583,11.5945,11.5753,11.524,11.4324,11.4104,11.422,11.3287,11.2958,11.3957,11.444,11.4488,11.5604,11.7098,11.8254,11.8831,11.8921,11.837,11.744,11.6565,11.5731,11.4609,11.388,11.3277,11.3203,11.3203,11.333,11.3696,11.5133,11.5887,11.6422,11.6903,11.733,11.6946,11.7292,11.7292,11.6869,11.6676,11.6522,11.6638,11.6638,11.6561,11.6407,11.6292,11.5945,11.5291,11.5009,11.4114,11.3227,11.2243,11.1157,11.0185,10.9267,10.8963,10.8357,10.8017,10.6801,10.5715,10.5899,10.5972,10.5348,10.4871,10.4724,10.4394,10.3586,10.3109,10.2999,10.2925,10.2925,10.2925,10.2999,10.3109,10.3219,10.3256,10.3256,10.3109,10.2999,10.3293,10.3182,10.2852,10.2412,10.2191,10.2015,10.1684,10.2315,10.341,10.3854,10.401,10.5064,10.6591,11.1522,11.156,11.1983,11.2368,11.2753,11.3214,11.3945,11.4599,11.4714,11.4984,11.5291,11.5061,11.483,11.4561,11.383,11.3637,11.3868,11.3637,11.3945,11.4561,11.5138,11.5522,11.5945,11.6292,11.6484,11.6484,11.6561,11.6676,11.6278,11.5821,11.546,11.5078,11.4526,11.4528,11.5195,11.5332,11.6278,11.7426,11.8576,11.9369,11.9792,12.0092,11.9813,11.8509,11.7925,11.6961,11.5829,11.4779,11.4064,11.3754,11.357,11.357,11.3991,11.5205,11.6288,11.6423,11.8196,11.8746,11.8215,11.8369,11.7984,11.7677,11.7561,11.783,11.7407,11.7176,11.6946,11.6522,11.6484,11.6292,11.6061,11.5984,11.531,11.4497,11.3776,11.2814,11.1904,11.1118,11.0376,10.9788,10.9119,10.8017,10.6948,10.6596,10.6559,10.6046,10.5458,10.5091,10.4724,10.4137,10.3806,10.3696,10.366,10.3696,10.3623,10.3623,10.366,10.3733,10.3733,10.3733,10.3733,10.3806,10.4137,10.4063,10.3586,10.3146,10.2779,10.2272,10.1838,10.2612,10.353,10.4129,10.4967,10.6629,10.774,11.1522,11.156,11.2137,11.2637,11.306,11.3714,11.4599,11.5561,11.5599,11.5907,11.6369,11.6369,11.5945,11.533,11.4638,11.4484,11.4676,11.4407,11.4868,11.533,11.5638,11.5945,11.6292,11.6484,11.6484,11.6522,11.6869,11.7138,11.7407,11.7316,11.6858,11.6132,11.6049,11.6183,11.6583,11.6812,11.747,11.9075,11.9746,12.0254,12.0677,12.1177,12.0707,11.9916,11.9191,11.8445,11.7003,11.5994,11.5134,11.4451,11.4341,11.4415,11.4663,11.5824,11.6807,11.7405,11.9023,11.9939,11.9622,11.9523,11.8985,11.8638,11.8484,11.8523,11.7869,11.7792,11.7446,11.6561,11.6484,11.6484,11.6484,11.6446,11.6054,11.5532,11.5034,11.4196,11.3456,11.2864,11.2014,11.1095,11.0476,10.9821,10.8754,10.7672,10.7147,10.667,10.6119,10.5568,10.5248,10.4963,10.4963,10.4926,10.4798,10.4798,10.4724,10.4614,10.4504,10.4357,10.4357,10.4504,10.4687,10.4761,10.4944,10.4687,10.432,10.41,10.388,10.286,10.2065,10.3093,10.4082,10.5171,10.6239,10.7954,10.8936,11.1522,11.1522,11.1598,11.2483,11.383,11.3945,11.4945,11.6176,11.633,11.6369,11.6484,11.6446,11.6061,11.5484,11.5368,11.5561,11.6176,11.5522,11.5715,11.6099,11.6407,11.6369,11.6484,11.6484,11.6561,11.6715,11.7176,11.76,11.8023,11.8638,11.8669,11.8738,11.7744,11.7628,11.7764,11.8065,11.8753,11.9968,12.0446,12.0793,12.1177,12.1523,12.1399,12.1178,12.049,11.9609,11.8633,11.7483,11.6491,11.5571,11.5479,11.5479,11.5605,11.6541,11.7343,11.8387,11.9376,12.0362,12.0727,12.0485,11.9869,11.9331,11.9061,11.8985,11.8369,11.7984,11.7446,11.683,11.6753,11.6561,11.6561,11.6446,11.6369,11.6208,11.5839,11.5456,11.4936,11.4856,11.392,11.2661,11.1798,11.1196,11.0175,10.9103,10.8028,10.7551,10.7492,10.6984,10.6645,10.6431,10.6423,10.6423,10.6129,10.6082,10.6082,10.5899,10.5532,10.5458,10.5458,10.5678,10.5935,10.5935,10.5642,10.5605,10.5311,10.5165,10.4871,10.3925,10.3426,10.3855,10.4653,10.5897,10.715,10.8672,10.9579,11.1522,11.1522,11.1522,11.2137,11.3291,11.433,11.5176,11.5792,11.6253,11.6484,11.6446,11.6446,11.633,11.6099,11.6022,11.6176,11.6446,11.6215,11.6292,11.6369,11.6484,11.6484,11.6484,11.6599,11.6753,11.7215,11.7715,11.8523,11.9408,11.9677,12.0177,12.0083,11.9237,11.9122,11.9187,11.9585,12.0361,12.0737,12.1062,12.1331,12.1408,12.16,12.16,12.1515,12.0676,11.9771,11.8778,11.7866,11.7006,11.6283,11.6048,11.5993,11.6048,11.6921,11.7748,11.8746,11.9609,12.0528,12.1381,12.1254,12.0946,12.0677,12.0177,11.9638,11.9177,11.9292,11.8561,11.7869,11.7292,11.7176,11.6599,11.6522,11.6446,11.6484,11.6477,11.6377,11.6205,11.6008,11.5321,11.3854,11.3206,11.2661,11.153,11.0377,10.9387,10.8517,10.8459,10.8422,10.7972,10.7676,10.7756,10.7353,10.6938,10.6633,10.6596,10.6486,10.6413,10.6449,10.6486,10.6523,10.6596,10.6376,10.6156,10.6229,10.6229,10.5972,10.5495,10.4798,10.4559,10.45,10.547,10.6752,10.8079,10.9427,11.0103,11.1522,11.1522,11.1522,11.1983,11.2829,11.4022,11.4676,11.4984,11.5445,11.5945,11.6138,11.633,11.6484,11.6484,11.6484,11.6446,11.6484,11.6446,11.6446,11.6484,11.6484,11.6484,11.6561,11.683,11.7253,11.783,11.8523,11.9292,12.01,12.0523,12.0908,12.0946,12.0523,12.0361,12.0592,12.1216,12.16,12.16,12.16,12.16,12.16,12.16,12.16,12.1562,12.0964,12.0264,11.9354,11.8462,11.7469,11.6701,11.6283,11.5993,11.6193,11.6701,11.7591,11.8568,11.9418,12.0321,12.1244,12.16,12.16,12.1293,12.1023,12.06,12.0369,12.0292,11.9408,11.8446,11.8177,11.7907,11.7215,11.7484,11.7523,11.7715,11.7677,11.7546,11.7124,11.6838,11.6021,11.5003,11.445,11.3693,11.2285,11.1144,11.0286,10.9629,10.9826,10.9603,10.9071,10.8888,10.8817,10.8231,10.7525,10.7147,10.6816,10.6926,10.7,10.6963,10.6963,10.6926,10.6853,10.6816,10.6816,10.6853,10.6816,10.6633,10.6192,10.5605,10.5201,10.4871,10.6251,10.7806,10.8916,11.0165,11.0801,11.1522,11.1522,11.1522,11.1945,11.2599,11.2753,11.3291,11.4022,11.4291,11.483,11.5599,11.6176,11.6484,11.6484,11.6484,11.6484,11.6484,11.6484,11.6484,11.6484,11.6484,11.6484,11.6753,11.7176,11.7715,11.8177,11.9061,11.9946,12.0446,12.1023,12.1447,12.1562,12.1254,12.1216,12.1485,12.1562,12.16,12.16,12.16,12.1716,12.1754,12.187,12.1985,12.1746,12.1698,12.1089,11.9931,11.9223,11.8316,11.7469,11.6751,11.6477,11.6336,11.6336,11.7099,11.8496,11.8778,11.9832,12.1342,12.1515,12.16,12.16,12.1331,12.1139,12.0562,12.0292,12.01,11.9215,11.9061,11.9023,11.8946,11.8908,11.8754,11.8638,11.8561,11.8446,11.7984,11.7753,11.699,11.6505,11.5592,11.4588,11.3,11.1761,11.102,11.0753,11.1038,11.0776,11.02,11.0125,11.0124,10.9289,10.8477,10.7881,10.7624,10.7587,10.7587,10.7551,10.7551,10.7551,10.7697,10.7881,10.7807,10.7624,10.733,10.7147,10.6816,10.6449,10.6339,10.6434,10.7547,10.8868,10.9976,11.0941,11.1615,11.1522,11.1522,11.1522,11.1637,11.1983,11.2522,11.2906,11.333,11.433,11.533,11.6022,11.6407,11.6484,11.6484,11.6484,11.6484,11.6484,11.6484,11.6484,11.6522,11.6561,11.6484,11.6792,11.7523,11.8177,11.8831,11.9831,12.0716,12.1177,12.1485,12.1562,12.16,12.16,12.1562,12.1562,12.16,12.16,12.1716,12.2062,12.2485,12.2485,12.2831,12.2947,12.2485,12.2447,12.1808,12.0607,12.006,11.9336,11.8537,11.7823,11.7469,11.7052,11.6921,11.7181,11.8093,11.8352,11.9671,12.1016,12.16,12.16,12.16,12.1523,12.1447,12.1139,12.1139,12.0677,12.0139,11.9946,11.9715,11.9215,11.91,11.8985,11.8985,11.8946,11.8908,11.8677,11.8638,11.8345,11.8036,11.7347,11.5612,11.4043,11.2958,11.2173,11.2029,11.233,11.1891,11.1319,11.1497,11.1559,11.0495,10.9547,10.8908,10.8468,10.8431,10.8395,10.8395,10.8395,10.8395,10.8578,10.8835,10.8688,10.8431,10.8028,10.7624,10.7551,10.7587,10.7881,10.8357,10.8817,10.934,11.0219,11.1403,11.2549,11.1522,11.156,11.1829,11.1752,11.1675,11.2368,11.2829,11.3368,11.4638,11.5599,11.6022,11.633,11.6484,11.6484,11.6484,11.6484,11.6484,11.6484,11.683,11.6869,11.6946,11.7253,11.7677,11.8177,11.9023,11.9677,12.0331,12.11,12.1485,12.1562,12.16,12.16,12.16,12.16,12.16,12.16,12.16,12.1716,12.2024,12.2447,12.2793,12.3216,12.3485,12.337,12.3168,12.2791,12.1725,12.097,12.041,11.9798,11.9143,11.8605,11.8018,11.7591,11.767,11.8018,11.8848,12.0051,12.1156,12.1562,12.16,12.16,12.16,12.16,12.16,12.1485,12.1293,12.0908,12.0716,12.0446,12.0023,11.9831,11.9831,11.9831,11.9869,11.9869,11.9523,11.9485,11.9331,11.9066,11.8574,11.6805,11.5247,11.4262,11.3408,11.3577,11.3731,11.2981,11.2359,11.2668,11.2617,11.1506,11.0569,10.9913,10.9386,10.9239,10.9202,10.9202,10.9202,10.9239,10.9423,10.9643,10.9459,10.9276,10.8982,10.8762,10.8652,10.8725,10.8725,10.8819,10.9077,10.9735,11.0423,11.1748,11.3189,11.1522,11.1637,11.2329,11.2175,11.1714,11.2445,11.3253,11.4022,11.4907,11.533,11.5484,11.6253,11.6484,11.6484,11.6484,11.6484,11.6484,11.6484,11.6984,11.7484,11.7561,11.8138,11.8831,11.96,11.9869,12.0408,12.0985,12.1331,12.16,12.16,12.16,12.16,12.16,12.16,12.16,12.16,12.16,12.1677,12.2216,12.2678,12.3178,12.3485,12.3947,12.4062,12.4053,12.3899,12.3151,12.2353,12.1695,12.0905,12.0039,11.9308,11.8605,11.7942,11.8242,11.8709,11.9546,12.0321,12.1156,12.1381,12.16,12.16,12.16,12.16,12.16,12.16,12.1447,12.1408,12.1293,12.1408,12.1331,12.1254,12.1216,12.1216,12.1254,12.0946,12.0485,12.0216,11.9985,11.9708,11.9361,11.8203,11.6827,11.5791,11.4703,11.4191,11.4166,11.3902,11.3438,11.3638,11.3383,11.2249,11.1452,11.0871,11.0464,11.0047,11.0047,11.0047,11.0047,11.0083,11.0304,11.0377,11.0267,11.012,11.0047,10.9826,10.9386,10.9202,10.9202,10.9391,10.9962,11.0567,11.1403,11.2565,11.3796,11.1522,11.1522,11.1752,11.1714,11.1752,11.3022,11.3791,11.4099,11.4907,11.5561,11.6176,11.6369,11.6484,11.6484,11.6484,11.6484,11.6484,11.6599,11.71,11.7523,11.7907,11.8407,11.9138,11.9946,12.0216,12.06,12.11,12.16,12.16,12.16,12.16,12.16,12.16,12.16,12.16,12.16,12.16,12.1793,12.2447,12.3101,12.387,12.4524,12.4909,12.5024,12.5024,12.4793,12.4043,12.3137,12.2525,12.2114,12.1334,12.0621,11.9771,11.9482,11.9482,11.8778,11.9119,11.9546,12.0472,12.1244,12.16,12.16,12.16,12.16,12.16,12.16,12.16,12.16,12.16,12.16,12.16,12.16,12.16,12.16,12.16,12.137,12.0946,12.0908,12.0677,12.0562,12.0216,11.9488,11.8196,11.7155,11.6137,11.5172,11.4562,11.4362,11.4135,11.4364,11.3864,11.2734,11.2099,11.1514,11.1139,11.0744,11.0817,11.0854,11.0744,11.0707,11.0817,11.0891,11.1001,11.0891,11.0671,11.0267,10.9826,10.979,10.9973,11.065,11.1161,11.1693,11.2411,11.3441,11.4497,11.1522,11.156,11.1829,11.1983,11.2137,11.306,11.3637,11.4137,11.5253,11.6099,11.6446,11.6484,11.6484,11.6484,11.6484,11.6484,11.6484,11.6522,11.6984,11.7677,11.8138,11.8908,11.96,12.0331,12.0793,12.1062,12.1216,12.16,12.16,12.16,12.16,12.16,12.16,12.16,12.16,12.16,12.16,12.1908,12.2485,12.3408,12.4293,12.5178,12.5409,12.587,12.5794,12.5293,12.4601,12.3755,12.3255,12.287,12.2062,12.1381,12.0621,12.0378,11.9709,11.9052,11.9354,11.9709,12.0359,12.1156,12.1429,12.16,12.16,12.16,12.16,12.16,12.16,12.16,12.16,12.16,12.16,12.16,12.16,12.16,12.16,12.16,12.1523,12.1523,12.1485,12.1447,12.1015,12.0372,11.9482,11.8485,11.7576,11.6619,11.5744,11.5165,11.4678,11.4364,11.3806,11.2813,11.2437,11.2072,11.1726,11.1272,11.1148,11.1074,11.1074,11.1074,11.1221,11.1184,11.1148,11.1148,11.1148,11.0817,11.0487,11.0744,11.1015,11.157,11.1874,11.217,11.2863,11.3949,11.5038,11.1522,11.156,11.2291,11.2483,11.2599,11.2714,11.3214,11.4137,11.5599,11.6407,11.6446,11.6484,11.6484,11.6484,11.6484,11.6484,11.6484,11.6522,11.6984,11.783,11.86,11.9331,12.0177,12.1062,12.1254,12.1485,12.16,12.16,12.16,12.16,12.16,12.16,12.16,12.16,12.16,12.16,12.16,12.1677,12.1947,12.2524,12.3601,12.4293,12.4793,12.6024,12.6178,12.5947,12.5255,12.4486,12.3716,12.2947,12.2177,12.1639,12.1244,12.0676,11.9771,11.9251,11.9418,11.9609,12.0051,12.073,12.1332,12.1515,12.16,12.16,12.16,12.16,12.16,12.16,12.16,12.16,12.16,12.16,12.16,12.16,12.16,12.16,12.16,12.16,12.1562,12.1523,12.1447,12.0843,12.0535,11.9544,11.8968,11.7998,11.675,11.5914,11.5393,11.4781,11.3995,11.3185,11.3,11.2662,11.1856,11.146,11.1272,11.1221,11.1221,11.1221,11.1221,11.1221,11.1221,11.1295,11.1368,11.1441,11.1331,11.1515,11.1662,11.1897,11.2221,11.2523,11.3296,11.4591,11.5642,11.1522,11.1522,11.1714,11.1791,11.1868,11.2445,11.3176,11.406,11.5099,11.5869,11.6407,11.6484,11.6484,11.6484,11.6484,11.6484,11.6484,11.6522,11.7061,11.7792,11.8638,11.9446,12.0292,12.11,12.1485,12.16,12.16,12.16,12.16,12.16,12.16,12.16,12.16,12.16,12.16,12.16,12.16,12.16,12.1677,12.2139,12.3139,12.3832,12.4447,12.4793,12.4755,12.514,12.4601,12.3947,12.3755,12.3485,12.2254,12.1754,12.1515,12.0676,11.9771,11.9089,11.9223,11.9482,11.9671,12.0321,12.1016,12.1429,12.16,12.16,12.16,12.16,12.16,12.16,12.16,12.16,12.16,12.16,12.16,12.16,12.16,12.16,12.16,12.16,12.16,12.16,12.16,12.1408,12.1139,12.0754,12.0216,11.8958,11.7223,11.614,11.5902,11.5365,11.4827,11.4098,11.3747,11.329,11.2348,11.1726,11.146,11.1272,11.1221,11.1221,11.1221,11.1368,11.1515,11.1515,11.1588,11.1845,11.2102,11.2139,11.2286,11.2469,11.2661,11.2975,11.4234,11.5516,11.6393,11.1522,11.1522,11.1522,11.1522,11.1598,11.1983,11.2637,11.3407,11.3945,11.483,11.5945,11.6292,11.6484,11.6484,11.6484,11.6484,11.6484,11.6484,11.6715,11.7407,11.8484,11.9215,12.0062,12.0985,12.1408,12.16,12.16,12.16,12.16,12.16,12.16,12.16,12.16,12.16,12.16,12.16,12.16,12.16,12.16,12.2062,12.2793,12.3332,12.3832,12.3909,12.4178,12.437,12.387,12.3293,12.3101,12.2908,12.1947,12.1677,12.1515,12.1156,12.0416,11.9893,11.9832,11.987,11.9832,12.0168,12.0964,12.1381,12.16,12.16,12.16,12.16,12.16,12.16,12.16,12.16,12.16,12.16,12.16,12.16,12.16,12.16,12.16,12.16,12.16,12.16,12.16,12.1523,12.1331,12.1331,12.0707,11.9824,11.8087,11.6658,11.6326,11.6,11.536,11.5101,11.4789,11.3791,11.2586,11.2065,11.181,11.1546,11.1419,11.1295,11.1368,11.1625,11.1808,11.1992,11.2286,11.2763,11.291,11.291,11.2983,11.313,11.3323,11.3524,11.4938,11.6345,11.714,11.1522,11.1522,11.1522,11.1522,11.1522,11.1522,11.2099,11.2829,11.2829,11.3753,11.5291,11.6061,11.633,11.6484,11.6484,11.6484,11.6484,11.6484,11.6561,11.7061,11.8369,11.9023,11.9792,12.0716,12.1293,12.16,12.16,12.16,12.16,12.16,12.16,12.16,12.16,12.16,12.16,12.16,12.16,12.16,12.1716,12.21,12.2524,12.2947,12.3447,12.3832,12.4024,12.3716,12.3293,12.2831,12.2485,12.21,12.1831,12.1639,12.16,12.1429,12.0912,12.0416,12.0472,12.0416,12.0378,12.0621,12.1156,12.1515,12.1562,12.16,12.16,12.16,12.16,12.16,12.16,12.16,12.16,12.16,12.16,12.16,12.16,12.16,12.16,12.16,12.16,12.16,12.16,12.16,12.1562,12.1562,12.1083,12.0235,11.9118,11.7889,11.6861,11.643,11.5949,11.5941,11.6043,11.4719,11.341,11.2688,11.2517,11.2327,11.2209,11.1764,11.1662,11.2212,11.2579,11.2689,11.302,11.357,11.3754,11.3754,11.3791,11.3937,11.3881,11.4236,11.5595,11.6851,11.7643,11.1522,11.1522,11.1522,11.1522,11.1522,11.1522,11.2329,11.3483,11.2945,11.3676,11.4868,11.5407,11.583,11.6484,11.6484,11.6484,11.6484,11.6484,11.6484,11.6792,11.8177,11.8831,11.96,12.0754,12.1408,12.16,12.16,12.16,12.16,12.16,12.16,12.16,12.16,12.16,12.16,12.16,12.16,12.16,12.1716,12.2024,12.2678,12.3062,12.3408,12.3755,12.4101,12.3985,12.3755,12.3216,12.2908,12.2524,12.1985,12.1677,12.16,12.1562,12.1105,12.073,12.0821,12.0676,12.0676,12.0768,12.1105,12.1562,12.16,12.16,12.16,12.16,12.16,12.16,12.16,12.16,12.16,12.16,12.16,12.16,12.16,12.16,12.16,12.16,12.16,12.16,12.16,12.16,12.1562,12.1562,12.1562,12.0683,11.969,11.8503,11.7879,11.7224,11.6519,11.6679,11.7016,11.6772,11.5848,11.4084,11.3548,11.3333,11.3056,11.2698,11.2689,11.313,11.3424,11.346,11.3901,11.4488,11.4561,11.4561,11.4818,11.4929,11.4708,11.5083,11.6289,11.7491,11.8493]},{"header":{"parameterUnit":"m.s-1","parameterCategory":1,"la1":31.0,"la2":29.5877,"lo1":-88.7671,"lo2":-86.6584,"dy":0.0162,"dx":0.0185,"nx":115,"ny":88,"refTime":"2026-03-16T00:00:00:Z","depth":0,"parameterNumber":3,"parameterNumberName":"V-component_of_WINDS"},"data":[0.0,0.0,0.0,0.0,0.0,0.0,0.0,0.0,0.0,0.0,0.0,0.0,0.0,0.0,0.0,0.0,0.0,0.0,0.0,0.0,0.0,0.0,0.0,0.0,0.0,0.0,0.0,0.0,0.0,0.0,0.0,0.0,0.0,0.0,0.0,0.0,0.0,0.0,0.0,0.0,0.0,0.0,0.0,0.0,0.0,0.0,0.0,0.0,0.0,0.0,0.0,0.0,0.0,0.0,0.0,0.0,0.0,0.0,0.0,0.0,0.0,0.0,0.0,0.0,0.0,0.0,0.0,0.0,0.0,0.0,0.0,0.0,0.0,0.0,0.0,0.0,0.0,0.0,0.0,0.0,0.0,0.0,0.0,0.0,0.0,0.0,0.0,0.0,0.0,0.0,0.0,0.0,0.0,0.0,0.0,0.0,0.0,0.0,0.0,0.0,0.0,0.0,0.0,0.0,0.0,0.0,0.0,0.0,0.0,0.0,0.0,0.0,0.0,0.0,0.0,0.0,0.0,0.0,0.0,0.0,0.0,0.0,0.0,0.0,0.0,0.0,0.0,0.0,0.0,0.0,0.0,0.0,0.0,0.0,0.0,0.0,0.0,0.0,0.0,0.0,0.0,0.0,0.0,0.0,0.0,0.0,0.0,0.0,0.0,0.0,0.0,0.0,0.0,0.0,0.0,0.0,0.0,0.0,0.0,0.0,0.0,0.0,0.0,0.0,0.0,0.0,0.0,0.0,0.0,0.0,0.0,0.0,0.0,0.0,0.0,0.0,0.0,0.0,0.0,0.0,0.0,0.0,0.0,0.0,0.0,0.0,0.0,0.0,0.0,0.0,0.0,0.0,0.0,0.0,0.0,0.0,0.0,0.0,0.0,0.0,0.0,0.0,0.0,0.0,0.0,0.0,0.0,0.0,0.0,0.0,0.0,0.0,0.0,0.0,0.0,0.0,0.0,0.0,0.0,0.0,0.0,0.0,0.0,0.0,0.0,0.0,0.0,0.0,0.0,0.0,0.0,0.0,0.0,0.0,0.0,0.0,0.0,0.0,0.0,0.0,0.0,0.0,0.0,0.0,0.0,0.0,0.0,0.0,0.0,0.0,0.0,0.0,0.0,0.0,0.0,0.0,0.0,0.0,0.0,0.0,0.0,0.0,0.0,0.0,0.0,0.0,0.0,0.0,0.0,0.0,0.0,0.0,0.0,0.0,0.0,0.0,0.0,0.0,0.0,0.0,0.0,0.0,0.0,0.0,0.0,0.0,0.0,0.0,0.0,0.0,0.0,0.0,0.0,0.0,0.0,0.0,0.0,0.0,0.0,0.0,0.0,0.0,0.0,0.0,0.0,0.0,0.0,0.0,0.0,0.0,0.0,0.0,0.0,0.0,0.0,0.0,0.0,0.0,0.0,0.0,0.0,0.0,0.0,0.0,0.0,0.0,0.0,0.0,0.0,0.0,0.0,0.0,0.0,0.0,0.0,0.0,0.0,0.0,0.0,0.0,0.0,0.0,0.0,0.0,0.0,0.0,0.0,0.0,0.0,0.0,0.0,0.0,0.0,0.0,0.0,0.0,0.0,0.0,0.0,0.0,0.0,0.0,0.0,0.0,0.0,0.0,0.0,0.0,0.0,0.0,0.0,0.0,0.0,0.0,0.0,0.0,0.0,0.0,0.0,0.0,0.0,0.0,0.0,0.0,0.0,0.0,0.0,0.0,0.0,0.0,0.0,0.0,0.0,0.0,0.0,0.0,0.0,0.0,0.0,0.0,0.0,0.0,0.0,0.0,0.0,0.0,0.0,0.0,0.0,0.0,0.0,0.0,0.0,0.0,0.0,0.0,0.0,0.0,0.0,0.0,0.0,0.0,0.0,0.0,0.0,0.0,0.0,0.0,0.0,0.0,0.0,0.0,0.0,0.0,0.0,0.0,0.0,0.0,0.0,0.0,0.0,0.0,0.0,0.0,0.0,0.0,0.0,0.0,0.0,0.0,0.0,0.0,0.0,0.0,0.0,0.0,0.0,0.0,0.0,0.0,0.0,0.0,0.0,0.0,0.0,0.0,0.0,0.0,0.0,0.0,0.0,0.0,0.0,0.0,0.0,0.0,0.0,0.0,0.0,0.0,0.0,0.0,0.0,0.0,0.0,0.0,0.0,0.0,0.0,0.0,0.0,0.0,0.0,0.0,0.0,0.0,0.0,0.0,0.0,0.0,0.0,0.0,0.0,0.0,0.0,0.0,0.0,0.0,0.0,0.0,0.0,0.0,0.0,0.0,0.0,0.0,0.0,0.0,0.0,0.0,0.0,0.0,0.0,0.0,0.0,0.0,0.0,0.0,0.0,0.0,0.0,0.0,0.0,0.0,0.0,0.0,0.0,0.0,0.0,0.0,0.0,0.0,0.0,0.0,0.0,0.0,0.0,0.0,0.0,0.0,0.0,0.0,0.0,0.0,0.0,0.0,0.0,0.0,0.0,0.0,0.0,0.0,0.0,0.0,0.0,0.0,0.0,0.0,0.0,0.0,0.0,0.0,0.0,0.0,0.0,0.0,0.0,0.0,0.0,0.0,0.0,0.0,0.0,0.0,0.0,0.0,0.0,0.0,0.0,0.0,0.0,0.0,0.0,0.0,0.0,0.0,0.0,0.0,0.0,0.0,0.0,0.0,0.0,0.0,0.0,0.0,0.0,0.0,0.0,0.0,0.0,0.0,0.0,0.0,0.0,0.0,0.0,0.0,0.0,0.0,0.0,0.0,0.0,0.0,0.0,0.0,0.0,0.0,0.0,0.0,0.0,0.0,0.0,0.0,0.0,0.0,0.0,0.0,0.0,0.0,0.0,0.0,0.0,0.0,0.0,0.0,0.0,0.0,0.0,0.0,0.0,0.0,0.0,0.0,0.0,0.0,0.0,0.0,0.0,0.0,0.0,0.0,0.0,0.0,0.0,0.0,0.0,0.0,0.0,0.0,0.0,0.0,0.0,0.0,0.0,0.0,0.0,0.0,0.0,0.0,0.0,0.0,0.0,0.0,0.0,0.0,0.0,0.0,0.0,0.0,0.0,0.0,0.0,0.0,0.0,0.0,0.0,0.0,0.0,0.0,0.0,0.0,0.0,0.0,0.0,0.0,0.0,0.0,0.0,0.0,0.0,0.0,0.0,0.0,0.0,0.0,0.0,0.0,0.0,0.0,0.0,0.0,0.0,0.0,0.0,0.0,0.0,0.0,0.0,0.0,0.0,0.0,0.0,0.0,0.0,0.0,0.0,0.0,0.0,0.0,0.0,0.0,0.0,0.0,0.0,0.0,0.0,0.0,0.0,0.0,0.0,0.0,0.0,0.0,0.0,0.0,0.0,0.0,0.0,0.0,0.0,0.0,0.0,0.0,0.0,0.0,0.0,0.0,0.0,0.0,0.0,0.0,0.0,0.0,0.0,0.0,0.0,0.0,0.0,0.0,0.0,0.0,0.0,0.0,0.0,0.0,0.0,0.0,0.0,0.0,0.0,0.0,0.0,0.0,0.0,0.0,0.0,0.0,0.0,0.0,0.0,0.0,0.0,0.0,0.0,0.0,0.0,0.0,0.0,0.0,0.0,0.0,0.0,0.0,0.0,0.0,0.0,0.0,0.0,0.0,0.0,0.0,0.0,0.0,0.0,0.0,0.0,0.0,0.0,0.0,0.0,0.0,0.0,0.0,0.0,0.0,0.0,0.0,0.0,0.0,0.0,0.0,0.0,0.0,0.0,0.0,0.0,0.0,0.0,0.0,0.0,0.0,0.0,0.0,0.0,0.0,0.0,0.0,0.0,0.0,0.0,0.0,0.0,0.0,0.0,0.0,0.0,0.0,0.0,0.0,0.0,0.0,0.0,0.0,0.0,0.0,0.0,0.0,0.0,0.0,0.0,0.0,0.0,0.0,0.0,0.0,0.0,0.0,0.0,0.0,0.0,0.0,0.0,0.0,0.0,0.0,0.0,0.0,0.0,0.0,0.0,0.0,0.0,0.0,0.0,0.0,0.0,0.0,0.0,0.0,0.0,0.0,0.0,0.0,0.0,0.0,0.0,0.0,0.0,0.0,0.0,0.0,0.0,0.0,0.0,0.0,0.0,0.0,0.0,0.0,0.0,0.0,0.0,0.0,0.0,0.0,0.0,0.0,0.0,0.0,0.0,0.0,0.0,0.0,0.0,0.0,0.0,0.0,0.0,0.0,0.0,0.0,0.0,0.0,0.0,0.0,0.0,0.0,0.0,0.0,0.0,0.0,0.0,0.0,0.0,0.0,-2.0605,0.0,0.0,0.0,0.0,0.0,0.0,0.0,0.0,0.0,0.0,0.0,0.0,0.0,0.0,0.0,0.0,0.0,0.0,0.0,0.0,0.0,0.0,0.0,0.0,0.0,0.0,0.0,0.0,0.0,0.0,0.0,0.0,0.0,0.0,0.0,0.0,0.0,0.0,0.0,0.0,0.0,0.0,0.0,0.0,0.0,0.0,0.0,0.0,0.0,0.0,0.0,0.0,0.0,0.0,0.0,0.0,0.0,0.0,0.0,0.0,0.0,0.0,0.0,0.0,0.0,0.0,0.0,0.0,0.0,0.0,0.0,0.0,0.0,0.0,0.0,0.0,0.0,0.0,0.0,0.0,0.0,0.0,0.0,0.0,0.0,0.0,0.0,0.0,0.0,0.0,0.0,0.0,0.0,0.0,0.0,0.0,0.0,0.0,0.0,0.0,0.0,0.0,0.0,0.0,0.0,0.0,0.0,0.0,0.0,0.0,-2.2852,-2.2832,-2.2227,-2.1699,-2.1289,0.0,0.0,0.0,0.0,0.0,0.0,0.0,0.0,0.0,0.0,0.0,0.0,0.0,0.0,0.0,0.0,0.0,0.0,0.0,0.0,0.0,0.0,0.0,0.0,0.0,0.0,0.0,0.0,0.0,0.0,0.0,0.0,0.0,0.0,0.0,0.0,0.0,0.0,0.0,0.0,0.0,0.0,0.0,0.0,0.0,0.0,0.0,0.0,0.0,0.0,0.0,0.0,0.0,0.0,0.0,0.0,0.0,0.0,0.0,0.0,0.0,0.0,0.0,0.0,0.0,0.0,0.0,0.0,0.0,0.0,0.0,0.0,0.0,0.0,0.0,0.0,0.0,0.0,0.0,0.0,0.0,0.0,0.0,0.0,0.0,0.0,0.0,0.0,0.0,0.0,0.0,0.0,0.0,0.0,0.0,0.0,0.0,0.0,0.0,0.0,0.0,0.0,0.0,0.0,0.0,0.0,0.0,0.0,0.0,0.0,0.0,0.0,-2.2754,-2.2227,-2.2012,0.0,0.0,0.0,0.0,0.0,0.0,0.0,0.0,0.0,0.0,0.0,0.0,0.0,0.0,0.0,0.0,0.0,0.0,0.0,0.0,0.0,0.0,0.0,0.0,0.0,0.0,0.0,0.0,0.0,0.0,0.0,0.0,0.0,0.0,0.0,0.0,0.0,0.0,0.0,0.0,0.0,0.0,0.0,0.0,0.0,0.0,0.0,0.0,0.0,0.0,0.0,0.0,0.0,0.0,0.0,0.0,0.0,0.0,0.0,0.0,0.0,0.0,0.0,0.0,0.0,0.0,0.0,0.0,0.0,0.0,0.0,0.0,0.0,0.0,0.0,0.0,0.0,0.0,0.0,0.0,0.0,0.0,0.0,0.0,0.0,0.0,0.0,0.0,0.0,0.0,0.0,0.0,0.0,0.0,0.0,0.0,0.0,0.0,0.0,0.0,0.0,0.0,0.0,0.0,0.0,0.0,0.0,0.0,0.0,0.0,-2.3691,-2.4844,-2.4043,0.0,-2.2519,0.0,0.0,0.0,0.0,0.0,0.0,0.0,0.0,0.0,0.0,0.0,0.0,0.0,0.0,0.0,0.0,0.0,0.0,0.0,0.0,0.0,0.0,0.0,0.0,0.0,0.0,0.0,0.0,0.0,0.0,0.0,0.0,0.0,0.0,0.0,0.0,0.0,0.0,0.0,0.0,0.0,0.0,0.0,0.0,0.0,0.0,0.0,0.0,0.0,0.0,0.0,0.0,0.0,0.0,0.0,0.0,0.0,0.0,0.0,0.0,0.0,0.0,0.0,0.0,0.0,0.0,0.0,0.0,0.0,0.0,0.0,0.0,0.0,0.0,0.0,0.0,0.0,0.0,0.0,0.0,0.0,0.0,0.0,0.0,0.0,0.0,0.0,0.0,0.0,0.0,0.0,0.0,0.0,0.0,0.0,0.0,0.0,0.0,0.0,0.0,0.0,0.0,0.0,0.0,0.0,0.0,0.0,0.0,0.0,0.0,-2.4531,-2.5059,-2.4238,-2.3281,0.0,0.0,0.0,0.0,0.0,0.0,0.0,0.0,0.0,0.0,0.0,0.0,0.0,0.0,0.0,0.0,0.0,0.0,0.0,0.0,0.0,0.0,0.0,0.0,0.0,0.0,0.0,0.0,0.0,0.0,0.0,0.0,0.0,0.0,0.0,0.0,0.0,0.0,0.0,0.0,0.0,0.0,0.0,0.0,0.0,0.0,0.0,0.0,0.0,0.0,0.0,0.0,0.0,0.0,0.0,0.0,0.0,0.0,0.0,0.0,0.0,0.0,0.0,0.0,0.0,0.0,0.0,0.0,0.0,0.0,0.0,0.0,0.0,0.0,0.0,0.0,0.0,0.0,0.0,0.0,0.0,0.0,0.0,0.0,0.0,0.0,0.0,0.0,0.0,0.0,0.0,0.0,0.0,0.0,0.0,0.0,0.0,0.0,0.0,0.0,0.0,0.0,0.0,0.0,0.0,0.0,0.0,0.0,0.0,0.0,-2.4785,0.0,-2.5215,-2.4648,-2.3555,-2.1953,0.0,0.0,0.0,0.0,0.0,0.0,0.0,0.0,0.0,0.0,0.0,0.0,0.0,0.0,0.0,0.0,0.0,0.0,0.0,0.0,0.0,0.0,0.0,0.0,0.0,0.0,0.0,0.0,0.0,0.0,0.0,0.0,0.0,0.0,0.0,0.0,0.0,0.0,0.0,0.0,0.0,0.0,0.0,0.0,0.0,0.0,0.0,0.0,0.0,0.0,0.0,0.0,0.0,0.0,0.0,0.0,0.0,0.0,0.0,0.0,0.0,0.0,0.0,0.0,0.0,0.0,0.0,0.0,0.0,0.0,0.0,0.0,0.0,0.0,0.0,0.0,0.0,0.0,0.0,0.0,0.0,0.0,0.0,0.0,0.0,0.0,0.0,0.0,0.0,0.0,0.0,0.0,0.0,0.0,0.0,0.0,0.0,0.0,0.0,0.0,0.0,0.0,0.0,0.0,0.0,0.0,0.0,0.0,0.0,-2.5664,-2.5273,-2.5625,-2.5664,-2.4473,0.0,0.0,0.0,0.0,0.0,0.0,0.0,0.0,0.0,0.0,0.0,0.0,0.0,0.0,0.0,0.0,0.0,0.0,0.0,0.0,0.0,0.0,0.0,0.0,0.0,0.0,0.0,0.0,0.0,0.0,0.0,0.0,0.0,0.0,0.0,0.0,0.0,0.0,0.0,0.0,0.0,0.0,0.0,0.0,0.0,0.0,0.0,0.0,0.0,0.0,0.0,0.0,0.0,0.0,0.0,0.0,0.0,0.0,0.0,0.0,0.0,0.0,0.0,0.0,0.0,0.0,0.0,0.0,0.0,0.0,0.0,0.0,0.0,0.0,0.0,0.0,0.0,0.0,0.0,0.0,0.0,0.0,0.0,0.0,0.0,0.0,0.0,0.0,0.0,0.0,0.0,0.0,0.0,0.0,0.0,0.0,0.0,0.0,0.0,0.0,0.0,0.0,0.0,0.0,0.0,0.0,0.0,0.0,0.0,-2.44,-2.4089,-2.4585,-2.6068,-2.4324,-2.3294,0.0,0.0,0.0,0.0,0.0,0.0,0.0,0.0,0.0,0.0,0.0,0.0,0.0,0.0,0.0,0.0,0.0,0.0,0.0,0.0,0.0,0.0,0.0,0.0,0.0,0.0,0.0,0.0,0.0,0.0,0.0,0.0,0.0,0.0,0.0,0.0,0.0,0.0,0.0,0.0,0.0,0.0,0.0,0.0,0.0,0.0,0.0,0.0,0.0,0.0,0.0,0.0,0.0,0.0,0.0,0.0,0.0,0.0,0.0,0.0,0.0,0.0,0.0,0.0,0.0,0.0,0.0,0.0,0.0,0.0,0.0,0.0,0.0,0.0,0.0,0.0,0.0,0.0,0.0,0.0,0.0,0.0,0.0,0.0,0.0,0.0,0.0,0.0,0.0,0.0,0.0,0.0,0.0,0.0,0.0,0.0,0.0,0.0,0.0,0.0,0.0,0.0,0.0,0.0,0.0,0.0,0.0,0.0,0.0,-2.3522,0.0,-2.4034,0.0,-2.3061,-2.2005,0.0,0.0,0.0,0.0,0.0,0.0,0.0,0.0,0.0,0.0,0.0,0.0,0.0,0.0,0.0,0.0,0.0,0.0,0.0,0.0,0.0,0.0,0.0,0.0,0.0,0.0,0.0,0.0,0.0,0.0,0.0,0.0,0.0,0.0,0.0,0.0,0.0,0.0,0.0,0.0,0.0,0.0,0.0,0.0,0.0,0.0,0.0,0.0,0.0,0.0,0.0,0.0,0.0,0.0,0.0,0.0,0.0,0.0,0.0,0.0,0.0,0.0,0.0,0.0,0.0,0.0,0.0,0.0,0.0,0.0,0.0,0.0,0.0,0.0,0.0,0.0,0.0,0.0,0.0,0.0,0.0,0.0,0.0,0.0,0.0,0.0,0.0,0.0,0.0,0.0,0.0,0.0,0.0,0.0,0.0,0.0,0.0,0.0,0.0,0.0,0.0,0.0,0.0,0.0,0.0,0.0,0.0,0.0,-2.3541,-2.4399,-2.4132,-2.3386,-2.2215,-2.1841,-2.0779,0.0,0.0,0.0,0.0,0.0,0.0,0.0,0.0,0.0,0.0,0.0,0.0,0.0,0.0,0.0,0.0,0.0,0.0,0.0,0.0,0.0,0.0,0.0,0.0,0.0,0.0,0.0,0.0,0.0,0.0,0.0,0.0,0.0,0.0,0.0,0.0,0.0,0.0,0.0,0.0,0.0,0.0,0.0,0.0,0.0,0.0,0.0,0.0,0.0,0.0,0.0,0.0,0.0,0.0,0.0,0.0,0.0,0.0,0.0,0.0,0.0,0.0,0.0,0.0,0.0,0.0,0.0,0.0,0.0,0.0,0.0,0.0,0.0,0.0,0.0,0.0,0.0,0.0,0.0,0.0,0.0,0.0,0.0,0.0,0.0,0.0,0.0,0.0,0.0,0.0,0.0,0.0,0.0,0.0,0.0,0.0,0.0,0.0,0.0,0.0,0.0,0.0,0.0,0.0,0.0,0.0,0.0,0.0,0.0,-2.1929,-2.1616,-2.1872,-2.2628,-2.0588,-1.987,0.0,0.0,0.0,0.0,0.0,0.0,0.0,0.0,0.0,0.0,0.0,0.0,0.0,0.0,0.0,0.0,0.0,0.0,0.0,0.0,0.0,0.0,0.0,0.0,0.0,0.0,0.0,0.0,0.0,0.0,0.0,0.0,0.0,0.0,0.0,0.0,0.0,0.0,0.0,0.0,0.0,0.0,0.0,0.0,0.0,0.0,0.0,0.0,0.0,0.0,0.0,0.0,0.0,0.0,0.0,0.0,0.0,0.0,0.0,0.0,0.0,0.0,0.0,0.0,0.0,0.0,0.0,0.0,0.0,0.0,0.0,0.0,0.0,0.0,0.0,0.0,0.0,0.0,0.0,0.0,0.0,0.0,0.0,0.0,0.0,0.0,0.0,0.0,0.0,0.0,0.0,0.0,0.0,0.0,0.0,0.0,0.0,0.0,0.0,0.0,0.0,0.0,0.0,0.0,0.0,0.0,0.0,0.0,0.0,-2.2131,-2.1481,-2.1512,-2.2276,-2.0003,-1.9286,-2.0429,0.0,0.0,0.0,0.0,0.0,0.0,0.0,0.0,0.0,0.0,0.0,0.0,0.0,0.0,0.0,0.0,0.0,0.0,0.0,0.0,0.0,0.0,0.0,0.0,0.0,0.0,0.0,0.0,0.0,0.0,0.0,0.0,0.0,0.0,0.0,0.0,0.0,0.0,0.0,0.0,0.0,0.0,0.0,0.0,0.0,0.0,0.0,0.0,0.0,0.0,0.0,0.0,0.0,0.0,0.0,0.0,0.0,0.0,0.0,0.0,0.0,0.0,0.0,0.0,0.0,0.0,0.0,0.0,0.0,0.0,0.0,0.0,0.0,0.0,0.0,0.0,0.0,0.0,0.0,0.0,0.0,0.0,0.0,0.0,0.0,0.0,0.0,0.0,0.0,0.0,0.0,0.0,0.0,0.0,0.0,0.0,0.0,0.0,0.0,0.0,0.0,0.0,0.0,0.0,0.0,0.0,0.0,0.0,-2.4318,-2.3281,-2.2285,-2.1443,-2.0147,-1.9209,0.0,0.0,0.0,0.0,0.0,0.0,0.0,0.0,0.0,0.0,0.0,0.0,0.0,0.0,0.0,0.0,0.0,0.0,0.0,0.0,0.0,0.0,0.0,0.0,0.0,0.0,0.0,0.0,0.0,0.0,0.0,0.0,0.0,0.0,0.0,0.0,0.0,0.0,0.0,0.0,0.0,0.0,0.0,0.0,0.0,0.0,0.0,0.0,0.0,0.0,0.0,0.0,0.0,0.0,0.0,0.0,0.0,0.0,0.0,0.0,0.0,0.0,0.0,0.0,0.0,0.0,0.0,0.0,0.0,0.0,0.0,0.0,0.0,0.0,0.0,0.0,0.0,0.0,0.0,0.0,0.0,0.0,0.0,0.0,0.0,0.0,0.0,0.0,0.0,0.0,0.0,0.0,0.0,0.0,0.0,0.0,0.0,0.0,0.0,0.0,0.0,0.0,0.0,0.0,0.0,0.0,0.0,0.0,0.0,-2.5273,-2.5827,-2.5585,-2.4663,-2.2071,-2.0348,0.0,0.0,0.0,0.0,0.0,0.0,0.0,0.0,0.0,0.0,0.0,0.0,0.0,0.0,0.0,0.0,0.0,0.0,0.0,0.0,0.0,0.0,0.0,0.0,0.0,0.0,0.0,0.0,0.0,0.0,0.0,0.0,0.0,0.0,0.0,0.0,0.0,0.0,0.0,0.0,0.0,0.0,0.0,0.0,0.0,0.0,0.0,0.0,0.0,0.0,0.0,0.0,0.0,0.0,0.0,0.0,0.0,0.0,0.0,0.0,0.0,0.0,0.0,0.0,0.0,0.0,0.0,0.0,0.0,0.0,0.0,0.0,0.0,0.0,0.0,0.0,0.0,0.0,0.0,0.0,0.0,0.0,0.0,0.0,0.0,0.0,0.0,0.0,0.0,0.0,0.0,0.0,0.0,0.0,0.0,0.0,0.0,0.0,0.0,0.0,0.0,0.0,0.0,0.0,0.0,0.0,0.0,0.0,-2.4495,-2.636,-2.8016,-2.8511,-2.8003,-2.473,-2.2151,0.0,0.0,0.0,0.0,0.0,0.0,0.0,0.0,0.0,0.0,0.0,0.0,0.0,0.0,0.0,0.0,0.0,0.0,0.0,0.0,0.0,0.0,0.0,0.0,0.0,0.0,0.0,0.0,0.0,0.0,0.0,0.0,0.0,0.0,0.0,0.0,0.0,0.0,0.0,0.0,0.0,0.0,0.0,0.0,0.0,0.0,0.0,0.0,0.0,0.0,0.0,0.0,0.0,0.0,0.0,0.0,0.0,0.0,0.0,0.0,0.0,0.0,0.0,0.0,0.0,0.0,0.0,0.0,0.0,0.0,0.0,0.0,0.0,0.0,0.0,0.0,0.0,0.0,0.0,0.0,0.0,0.0,0.0,0.0,0.0,0.0,0.0,0.0,0.0,0.0,0.0,0.0,0.0,0.0,0.0,0.0,0.0,0.0,0.0,0.0,0.0,0.0,0.0,0.0,0.0,0.0,0.0,0.0,-2.5842,-2.7268,-2.9646,-3.0862,-3.0728,-2.7415,-2.4102,0.0,0.0,0.0,0.0,0.0,0.0,0.0,0.0,0.0,0.0,0.0,0.0,0.0,0.0,0.0,0.0,0.0,0.0,0.0,0.0,0.0,0.0,0.0,0.0,0.0,0.0,0.0,0.0,0.0,0.0,0.0,0.0,0.0,0.0,0.0,0.0,0.0,0.0,0.0,0.0,0.0,0.0,0.0,0.0,0.0,0.0,0.0,0.0,0.0,0.0,0.0,0.0,0.0,0.0,0.0,0.0,0.0,0.0,0.0,0.0,0.0,0.0,0.0,0.0,0.0,0.0,0.0,0.0,0.0,0.0,0.0,0.0,0.0,0.0,0.0,0.0,0.0,0.0,0.0,0.0,0.0,0.0,0.0,0.0,0.0,0.0,0.0,0.0,0.0,0.0,0.0,0.0,0.0,0.0,0.0,0.0,0.0,0.0,0.0,0.0,0.0,0.0,0.0,0.0,0.0,0.0,0.0,0.0,-2.5702,-2.7589,-3.014,-3.137,-3.1116,-2.7709,-2.477,0.0,0.0,0.0,0.0,0.0,0.0,0.0,0.0,0.0,0.0,0.0,0.0,0.0,0.0,0.0,0.0,0.0,0.0,0.0,0.0,0.0,0.0,0.0,0.0,0.0,0.0,0.0,0.0,0.0,0.0,0.0,0.0,0.0,0.0,0.0,0.0,0.0,0.0,0.0,0.0,0.0,0.0,0.0,0.0,0.0,0.0,0.0,0.0,-2.1244,0.0,0.0,0.0,0.0,0.0,0.0,0.0,0.0,0.0,0.0,0.0,0.0,0.0,0.0,0.0,0.0,0.0,0.0,0.0,0.0,0.0,0.0,0.0,0.0,0.0,0.0,0.0,0.0,0.0,0.0,0.0,0.0,0.0,0.0,0.0,0.0,0.0,0.0,0.0,0.0,0.0,0.0,0.0,0.0,0.0,0.0,0.0,0.0,0.0,0.0,0.0,0.0,0.0,0.0,0.0,0.0,0.0,0.0,0.0,-2.6319,-2.8511,-3.0862,-3.1944,-3.1557,-2.9018,-2.6319,0.0,0.0,0.0,0.0,0.0,0.0,0.0,0.0,0.0,0.0,0.0,0.0,0.0,0.0,0.0,0.0,0.0,0.0,0.0,0.0,0.0,0.0,0.0,0.0,0.0,0.0,0.0,0.0,0.0,0.0,0.0,0.0,0.0,0.0,0.0,0.0,0.0,0.0,0.0,0.0,0.0,0.0,0.0,0.0,0.0,0.0,0.0,0.0,0.0,0.0,0.0,0.0,0.0,0.0,0.0,0.0,0.0,0.0,0.0,0.0,0.0,0.0,0.0,0.0,0.0,0.0,0.0,0.0,0.0,0.0,0.0,0.0,0.0,0.0,0.0,0.0,0.0,0.0,0.0,0.0,0.0,0.0,0.0,0.0,0.0,0.0,0.0,0.0,0.0,0.0,0.0,0.0,0.0,0.0,0.0,0.0,0.0,0.0,0.0,0.0,0.0,0.0,0.0,0.0,0.0,0.0,0.0,-2.4275,-2.7081,-2.9619,-3.1557,-3.2412,-3.2091,-3.0528,-2.8043,-2.4609,0.0,0.0,0.0,0.0,0.0,0.0,0.0,0.0,0.0,0.0,0.0,0.0,0.0,0.0,0.0,0.0,0.0,0.0,0.0,0.0,0.0,0.0,0.0,0.0,0.0,0.0,0.0,0.0,0.0,0.0,0.0,0.0,0.0,0.0,0.0,0.0,0.0,0.0,-1.9621,-2.054,0.0,0.0,0.0,0.0,0.0,0.0,0.0,0.0,-2.1133,0.0,0.0,0.0,0.0,0.0,0.0,0.0,0.0,0.0,0.0,0.0,0.0,0.0,0.0,0.0,0.0,0.0,0.0,0.0,0.0,0.0,0.0,0.0,0.0,0.0,0.0,0.0,0.0,0.0,0.0,0.0,0.0,0.0,0.0,0.0,0.0,0.0,0.0,0.0,0.0,0.0,0.0,0.0,0.0,0.0,0.0,0.0,0.0,0.0,0.0,0.0,0.0,0.0,0.0,0.0,0.0,-2.3915,-2.481,-2.6961,-3.0488,-3.1864,-3.2412,-3.2091,-3.1116,-2.9032,-2.5772,0.0,0.0,0.0,0.0,0.0,0.0,0.0,0.0,0.0,0.0,0.0,0.0,0.0,0.0,0.0,0.0,0.0,0.0,0.0,0.0,0.0,0.0,0.0,0.0,0.0,0.0,0.0,0.0,0.0,0.0,0.0,0.0,0.0,0.0,0.0,0.0,0.0,0.0,0.0,-2.2223,-2.2775,0.0,0.0,0.0,0.0,0.0,0.0,0.0,0.0,-2.0119,0.0,0.0,0.0,0.0,0.0,0.0,0.0,0.0,0.0,0.0,0.0,0.0,0.0,0.0,0.0,0.0,0.0,0.0,0.0,0.0,0.0,0.0,0.0,0.0,0.0,0.0,0.0,0.0,0.0,0.0,0.0,0.0,0.0,0.0,0.0,0.0,0.0,0.0,0.0,0.0,0.0,0.0,0.0,0.0,0.0,0.0,0.0,0.0,0.0,0.0,0.0,0.0,0.0,0.0,0.0,-2.3808,-2.5892,-2.8243,-3.0915,-3.1864,-3.2251,-3.2064,-3.0368,-2.8337,0.0,0.0,0.0,0.0,0.0,0.0,0.0,0.0,0.0,0.0,0.0,0.0,0.0,0.0,0.0,0.0,0.0,0.0,0.0,0.0,0.0,0.0,0.0,0.0,0.0,0.0,0.0,0.0,0.0,0.0,0.0,0.0,0.0,0.0,0.0,0.0,0.0,0.0,0.0,0.0,-2.2297,-2.2509,-2.0957,0.0,0.0,0.0,0.0,0.0,0.0,-2.0284,-1.9445,0.0,0.0,0.0,0.0,0.0,0.0,0.0,0.0,0.0,0.0,0.0,0.0,0.0,0.0,0.0,0.0,0.0,0.0,0.0,0.0,0.0,0.0,0.0,0.0,0.0,0.0,0.0,0.0,0.0,0.0,0.0,0.0,0.0,0.0,0.0,0.0,0.0,0.0,0.0,0.0,0.0,0.0,0.0,0.0,0.0,0.0,0.0,0.0,0.0,0.0,0.0,0.0,0.0,0.0,0.0,-2.3394,-2.6587,-2.9272,-3.1303,-3.1864,-3.2131,-3.2144,-2.9847,-2.7736,0.0,0.0,0.0,0.0,0.0,0.0,0.0,0.0,0.0,0.0,0.0,0.0,0.0,0.0,0.0,0.0,0.0,0.0,0.0,0.0,0.0,0.0,0.0,0.0,0.0,0.0,0.0,0.0,0.0,0.0,0.0,0.0,0.0,0.0,0.0,0.0,0.0,0.0,0.0,0.0,0.0,-2.272,-2.1354,-2.083,0.0,0.0,0.0,0.0,-2.1028,-2.0612,0.0,0.0,0.0,0.0,0.0,0.0,0.0,0.0,0.0,0.0,0.0,0.0,0.0,0.0,0.0,0.0,0.0,0.0,0.0,0.0,0.0,0.0,0.0,0.0,0.0,0.0,0.0,0.0,0.0,0.0,0.0,0.0,0.0,0.0,0.0,0.0,0.0,0.0,0.0,0.0,0.0,0.0,0.0,0.0,0.0,0.0,0.0,0.0,0.0,0.0,0.0,0.0,0.0,0.0,0.0,0.0,-2.3634,-2.5905,-2.8644,-3.181,-3.2064,-3.2225,-3.2465,-3.0942,-2.8671,0.0,0.0,0.0,0.0,0.0,0.0,0.0,0.0,0.0,0.0,0.0,0.0,0.0,0.0,0.0,0.0,0.0,0.0,0.0,0.0,0.0,0.0,0.0,0.0,0.0,0.0,0.0,0.0,0.0,0.0,0.0,0.0,0.0,0.0,0.0,0.0,0.0,0.0,0.0,0.0,0.0,-2.5219,-2.2952,-2.1575,-2.1025,0.0,0.0,-2.152,-2.3825,-2.3676,0.0,0.0,0.0,0.0,0.0,0.0,0.0,0.0,0.0,0.0,0.0,0.0,0.0,0.0,0.0,0.0,0.0,0.0,0.0,0.0,0.0,0.0,0.0,0.0,0.0,0.0,0.0,0.0,0.0,0.0,0.0,0.0,0.0,0.0,0.0,0.0,0.0,0.0,0.0,0.0,0.0,0.0,0.0,0.0,0.0,0.0,0.0,0.0,0.0,0.0,0.0,0.0,0.0,0.0,0.0,-2.1269,-2.3794,-2.7268,-3.006,-3.2011,-3.2265,-3.2412,-3.2532,-3.0154,-2.7802,0.0,0.0,0.0,0.0,0.0,0.0,0.0,0.0,0.0,0.0,0.0,0.0,0.0,0.0,0.0,0.0,0.0,0.0,0.0,0.0,0.0,0.0,0.0,0.0,0.0,0.0,0.0,0.0,0.0,0.0,0.0,0.0,0.0,0.0,0.0,0.0,0.0,0.0,0.0,0.0,0.0,0.0,-2.4656,-2.3161,0.0,0.0,0.0,-2.258,-2.3928,0.0,0.0,0.0,0.0,0.0,0.0,0.0,0.0,0.0,0.0,0.0,0.0,0.0,0.0,0.0,0.0,0.0,0.0,0.0,0.0,0.0,0.0,0.0,0.0,0.0,0.0,0.0,0.0,0.0,0.0,0.0,0.0,0.0,0.0,0.0,0.0,0.0,0.0,0.0,0.0,0.0,0.0,0.0,0.0,0.0,0.0,0.0,0.0,0.0,0.0,0.0,0.0,0.0,0.0,0.0,0.0,0.0,-2.3928,-2.843,-3.1249,-3.2171,-3.2425,-3.2545,-3.2492,-2.982,0.0,0.0,0.0,0.0,0.0,0.0,0.0,0.0,0.0,0.0,0.0,0.0,0.0,0.0,0.0,0.0,0.0,0.0,0.0,0.0,0.0,0.0,0.0,0.0,0.0,0.0,0.0,-1.4766,0.0,0.0,0.0,0.0,0.0,0.0,0.0,0.0,0.0,0.0,0.0,0.0,0.0,0.0,-2.589,-2.5736,-2.4706,-2.4142,0.0,0.0,-2.4222,-2.4583,-2.5211,-2.4676,0.0,0.0,0.0,0.0,0.0,0.0,0.0,0.0,0.0,0.0,0.0,0.0,0.0,0.0,0.0,0.0,0.0,0.0,0.0,0.0,0.0,0.0,0.0,0.0,0.0,0.0,0.0,0.0,0.0,0.0,0.0,0.0,0.0,0.0,0.0,0.0,0.0,0.0,0.0,0.0,0.0,0.0,0.0,0.0,0.0,0.0,0.0,0.0,0.0,0.0,0.0,0.0,0.0,0.0,0.0,-2.4249,-2.8537,-3.1356,-3.2465,-3.2532,-3.2545,-3.2519,-3.1009,-2.8457,0.0,0.0,0.0,0.0,0.0,0.0,0.0,0.0,0.0,0.0,0.0,0.0,0.0,0.0,0.0,0.0,0.0,0.0,0.0,0.0,0.0,0.0,0.0,0.0,0.0,0.0,0.0,0.0,0.0,0.0,0.0,0.0,0.0,0.0,0.0,0.0,0.0,0.0,0.0,0.0,0.0,-2.6372,-2.5688,-2.5769,-2.6079,0.0,-2.6547,-2.6386,-2.6947,-2.8417,-2.7896,-2.3113,0.0,0.0,0.0,0.0,0.0,0.0,0.0,0.0,0.0,0.0,0.0,0.0,0.0,0.0,0.0,0.0,0.0,0.0,0.0,0.0,0.0,0.0,0.0,0.0,0.0,0.0,0.0,0.0,0.0,0.0,0.0,0.0,0.0,0.0,0.0,0.0,0.0,0.0,0.0,0.0,0.0,0.0,0.0,0.0,0.0,0.0,0.0,0.0,0.0,0.0,0.0,0.0,0.0,-2.2605,-2.4235,-2.8911,-3.173,-3.2519,-3.2893,-3.3,-3.2812,-3.1396,-2.9005,0.0,0.0,0.0,0.0,0.0,0.0,0.0,0.0,0.0,0.0,0.0,0.0,0.0,0.0,0.0,0.0,0.0,0.0,0.0,0.0,0.0,0.0,0.0,0.0,0.0,0.0,0.0,0.0,-1.9222,-1.8921,-1.7729,0.0,0.0,0.0,0.0,0.0,0.0,0.0,0.0,0.0,0.0,-2.6979,-2.7973,-2.7817,0.0,0.0,-2.8283,-2.8096,-2.8323,-2.831,-2.7201,-2.4022,-2.2298,0.0,0.0,0.0,0.0,0.0,0.0,0.0,0.0,0.0,0.0,0.0,0.0,0.0,0.0,0.0,0.0,0.0,0.0,0.0,0.0,0.0,0.0,0.0,0.0,0.0,0.0,0.0,0.0,0.0,0.0,0.0,0.0,0.0,0.0,0.0,0.0,0.0,0.0,0.0,0.0,0.0,0.0,0.0,0.0,0.0,0.0,0.0,0.0,0.0,0.0,0.0,0.0,-2.2939,-2.4596,-2.9259,-3.1998,-3.2666,-3.316,-3.328,-3.2959,-3.173,-2.9579,0.0,0.0,0.0,0.0,0.0,0.0,0.0,0.0,0.0,0.0,0.0,0.0,0.0,0.0,0.0,0.0,0.0,0.0,0.0,0.0,0.0,0.0,0.0,0.0,0.0,0.0,0.0,0.0,-2.0043,-1.9175,-1.7349,0.0,0.0,0.0,0.0,0.0,0.0,0.0,0.0,0.0,0.0,-2.7387,-2.8901,-2.881,-2.8885,-2.9285,-2.9018,-2.8764,-2.8764,-2.8217,-2.6974,-2.4596,0.0,0.0,0.0,0.0,0.0,0.0,0.0,0.0,0.0,0.0,0.0,0.0,0.0,0.0,0.0,0.0,0.0,0.0,0.0,0.0,0.0,0.0,0.0,0.0,0.0,0.0,0.0,-1.5364,0.0,0.0,-1.4496,0.0,0.0,0.0,0.0,0.0,0.0,0.0,0.0,0.0,0.0,0.0,0.0,0.0,0.0,0.0,0.0,0.0,0.0,0.0,0.0,0.0,0.0,-2.3407,-2.5491,-2.9553,-3.2091,-3.2933,-3.3253,-3.328,-3.2973,-3.2118,-3.0261,-2.7268,0.0,0.0,0.0,0.0,0.0,0.0,0.0,0.0,0.0,0.0,0.0,0.0,0.0,0.0,0.0,0.0,0.0,0.0,0.0,0.0,0.0,0.0,0.0,0.0,0.0,0.0,-1.9552,-1.8662,-1.7813,0.0,0.0,0.0,0.0,0.0,0.0,0.0,0.0,0.0,0.0,-2.5898,-2.7734,-2.7687,-2.847,-2.9058,-2.9085,-2.8577,-2.819,-2.8217,-2.8604,-2.7909,0.0,0.0,0.0,0.0,0.0,0.0,0.0,0.0,0.0,0.0,0.0,0.0,0.0,0.0,0.0,0.0,0.0,0.0,0.0,0.0,0.0,0.0,0.0,0.0,0.0,0.0,0.0,-1.7876,-1.7141,0.0,0.0,0.0,0.0,0.0,0.0,0.0,0.0,0.0,0.0,0.0,-1.8673,-1.94,0.0,0.0,0.0,0.0,0.0,0.0,0.0,0.0,0.0,0.0,0.0,0.0,-2.3247,-2.5571,-2.9379,-3.1797,-3.2666,-3.316,-3.336,-3.3253,-3.2412,-2.9093,-2.3073,0.0,0.0,0.0,0.0,0.0,0.0,0.0,0.0,0.0,0.0,0.0,0.0,0.0,0.0,0.0,0.0,0.0,0.0,0.0,0.0,0.0,0.0,0.0,0.0,0.0,-2.0264,0.0,0.0,0.0,0.0,0.0,0.0,0.0,0.0,0.0,0.0,0.0,-2.3037,-2.4853,-2.6196,-2.7431,-2.8136,-2.9058,-2.9686,0.0,0.0,0.0,0.0,0.0,0.0,0.0,0.0,0.0,0.0,0.0,0.0,0.0,0.0,-2.3981,-2.0323,-1.9456,-1.9166,-1.8749,0.0,0.0,0.0,0.0,0.0,0.0,0.0,0.0,0.0,0.0,0.0,0.0,0.0,0.0,-1.9773,0.0,-1.8122,0.0,0.0,0.0,0.0,0.0,0.0,0.0,0.0,-2.1095,-2.0889,-1.9941,-2.0512,-2.0569,0.0,-2.019,-1.9711,0.0,0.0,0.0,0.0,0.0,0.0,0.0,0.0,-2.3607,-2.6012,-2.9539,-3.181,-3.2666,-3.316,-3.3414,-3.3387,-3.2358,-2.8471,-2.1426,-1.9446,-1.5939,0.0,0.0,0.0,0.0,0.0,0.0,0.0,0.0,0.0,0.0,0.0,0.0,0.0,0.0,0.0,0.0,0.0,0.0,0.0,0.0,0.0,0.0,0.0,-1.9755,0.0,0.0,0.0,0.0,0.0,0.0,0.0,0.0,0.0,-2.1246,-2.2674,-2.4266,-2.5968,-2.6915,-2.7722,-2.8497,0.0,0.0,0.0,0.0,0.0,0.0,0.0,-2.7321,-2.6921,-2.6092,-2.5491,-2.5545,-2.6279,-2.668,-2.6079,0.0,0.0,-2.2645,-2.1777,-2.1643,-2.163,-2.2017,-2.2365,-2.2472,-2.31,-2.3594,0.0,0.0,0.0,0.0,0.0,0.0,0.0,0.0,-2.0922,-2.1216,0.0,-1.8722,0.0,0.0,0.0,0.0,0.0,-2.0916,0.0,0.0,-2.2745,-2.2774,-2.2066,-2.2282,-2.2442,-2.2383,-2.4409,-2.4494,-2.2762,-2.0026,0.0,0.0,0.0,0.0,0.0,0.0,-2.4502,-2.6841,-3.0007,-3.2078,-3.2919,-3.3253,-3.34,-3.336,-3.2024,-2.8327,-2.2417,-2.1116,-1.769,-1.1699,-1.05,0.0,0.0,0.0,0.0,0.0,0.0,0.0,0.0,0.0,0.0,0.0,0.0,0.0,0.0,0.0,0.0,0.0,0.0,0.0,0.0,-1.9445,0.0,0.0,0.0,0.0,0.0,0.0,0.0,0.0,0.0,0.0,-2.242,-2.4545,-2.6171,-2.6733,0.0,0.0,0.0,0.0,-2.9072,-2.9112,-2.8871,-2.8711,-2.8724,-2.9138,-2.9085,-2.7989,0.0,0.0,-2.7642,-2.811,-2.8323,-2.7188,-2.7736,-2.7949,-2.7068,-2.5825,-2.509,-2.5077,-2.4877,-2.4863,-2.5157,-2.5665,-2.6066,-2.293,0.0,0.0,0.0,0.0,-2.2819,-2.3634,-2.4756,-2.4756,-2.4382,-2.3728,-2.2562,0.0,0.0,0.0,0.0,0.0,0.0,-2.0816,-2.1948,-2.1007,-2.0071,-1.9315,-1.9517,-1.9581,-1.9526,-1.9751,-2.1254,-2.3524,-2.2049,-2.0219,-1.849,0.0,0.0,0.0,0.0,-2.5104,-2.7442,-3.0034,-3.1784,-3.2652,-3.316,-3.3307,-3.3106,-3.2291,-2.9807,-2.5815,-2.3097,-1.961,-1.5225,-1.2617,0.0,0.0,0.0,0.0,0.0,0.0,0.0,0.0,0.0,0.0,0.0,0.0,0.0,0.0,0.0,0.0,0.0,0.0,0.0,-1.8996,-1.943,-1.9199,0.0,0.0,0.0,0.0,0.0,0.0,0.0,0.0,0.0,-2.5337,-2.5855,-2.6316,0.0,0.0,-2.8043,-2.8243,-2.8898,-2.9499,-2.9913,-3.0087,0.0,-3.0448,-3.0087,-2.982,-2.9887,-3.0368,-3.0581,-3.0167,-3.0301,-3.0368,-2.9993,-2.9993,-2.994,-2.9633,-2.8177,-2.7041,-2.6947,-2.7041,-2.7308,-2.7802,-2.8217,-2.8524,-2.3324,-2.2945,-2.2682,-2.2928,-2.3618,-2.4974,-2.6119,-2.7268,-2.7268,-2.6436,-2.4895,-2.3551,-2.1995,-2.0168,-2.0737,0.0,0.0,0.0,-2.1156,-2.1491,-1.9827,-1.8743,-1.8459,-1.8652,-1.8702,-1.8618,-1.9053,-2.0654,-2.3009,-2.3087,-2.2165,-2.0323,0.0,0.0,-2.1857,-2.4088,-2.6226,-2.823,-3.0434,-3.1891,-3.2532,-3.3106,-3.3267,-3.2986,-3.2519,-3.0803,-2.7517,-2.4288,-2.0959,-1.7408,-1.4109,-1.1714,0.0,0.0,0.0,0.0,0.0,0.0,0.0,0.0,0.0,0.0,0.0,-1.4402,-1.3875,0.0,0.0,0.0,-1.7759,-1.9006,-2.0258,-2.0236,0.0,0.0,0.0,0.0,0.0,0.0,0.0,-2.2098,-2.4115,-2.5892,-2.7175,-2.7455,-2.7762,-2.8417,-2.8537,-2.8684,-2.8978,0.0,-3.0087,-3.0782,-3.1022,-3.1236,-3.1517,-3.1236,-3.1089,-3.1436,-3.1623,-3.1744,-3.1744,-3.1744,-3.1744,-3.1704,-3.1423,-3.1142,-3.1142,-2.9913,-2.8925,-2.8938,-2.9165,-2.9486,-2.9847,-3.0047,-3.0234,-2.2257,-2.1869,-2.1979,-2.2436,-2.3422,-2.6058,-2.7667,-2.8419,-2.8632,-2.7695,-2.5701,-2.2738,-2.0567,-1.9052,-2.0277,0.0,-2.1412,-2.256,-2.2086,-2.0802,-1.9044,-1.829,-1.8666,-1.883,-1.8822,-1.8658,-2.0722,-2.1703,-2.181,-2.3315,-2.3706,-2.2999,-2.3817,-2.4262,-2.4396,-2.6052,-2.7642,-2.9072,-3.1049,-3.2238,-3.2612,-3.3133,-3.328,-3.2986,-3.2679,-3.1114,-2.8162,-2.4988,-2.1752,-1.8804,-1.5217,-1.2786,-1.1775,0.0,0.0,0.0,0.0,0.0,0.0,0.0,0.0,0.0,0.0,0.0,0.0,0.0,0.0,0.0,-1.829,0.0,-2.2515,-2.1479,0.0,0.0,0.0,-2.0668,-2.1349,-2.2418,-2.3554,-2.4703,0.0,0.0,-2.8243,-2.9312,-3.014,-3.0461,-3.0181,-3.0074,-3.0381,-3.0474,-3.0795,-3.161,-3.1784,-3.1904,-3.2198,-3.2385,-3.2519,-3.2545,-3.2612,-3.2599,-3.2585,-3.2559,-3.2572,-3.2545,-3.2118,-3.1744,-3.1744,-3.1236,-3.0929,-3.0889,-3.0982,-3.1129,-3.1116,-3.1116,-3.1129,-1.9692,-1.7825,-1.9714,-2.1206,-2.2578,-2.5692,-2.7099,-2.7476,-2.9559,-3.003,-2.9093,-2.6174,-2.3321,-2.0637,-2.0948,-2.1353,-2.1638,-2.028,-1.9541,-1.9276,-1.7307,-1.643,-1.6693,-1.6736,-1.6933,-1.6889,-1.7238,-1.9338,-2.2713,-2.2984,-2.4722,-2.7599,-2.8114,-2.7148,-2.5344,-2.6947,-2.8337,-2.9379,-3.0955,-3.2238,-3.3173,-3.3347,-3.328,-3.2986,-3.2478,-3.1699,-3.0285,-2.5571,-2.2452,-2.1351,-1.6641,-1.3539,-1.2827,-1.1172,0.0,0.0,0.0,0.0,0.0,0.0,0.0,0.0,0.0,-1.6567,-1.4576,0.0,-1.7368,0.0,-1.9492,-2.1088,-2.2107,-2.1727,0.0,0.0,-2.2352,-2.2498,-2.3968,-2.4783,-2.5585,-2.6533,-2.7802,-2.8925,-2.974,-3.0461,-3.1102,-3.1597,-3.0862,-3.0434,-3.0929,-3.141,-3.1837,-3.2265,-3.2692,-3.3013,-3.3053,-3.3146,-3.32,-3.32,-3.32,-3.32,-3.32,-3.3026,-3.2879,-3.2853,-3.2585,-3.2358,-3.2332,-3.2211,-3.2131,-3.2064,-3.149,-3.0969,-3.1169,-3.1236,-3.1303,-1.8077,-1.69,-1.8049,-1.9107,-1.9936,-2.383,-2.5633,-2.5935,-2.743,-2.7268,-2.5739,-2.2755,-2.1123,-2.029,-2.0281,-2.0483,-2.0353,-1.9398,-1.848,-1.7634,-1.6518,-1.6117,-1.6279,-1.6279,-1.6279,-1.6279,-1.6279,-1.7496,-2.007,-2.224,-2.4415,-2.6735,-2.8951,-2.9259,-2.7776,-2.8511,-2.9312,-3.006,-3.1383,-3.2505,-3.3374,-3.3414,-3.3146,-3.2599,-3.2144,-3.1503,-3.0662,-2.6265,-2.321,-2.1954,-1.7594,-1.4587,-1.299,-1.1782,-1.0799,0.0,0.0,0.0,0.0,0.0,0.0,0.0,0.0,0.0,0.0,0.0,-1.9052,-1.9746,-2.1203,-2.2392,-2.31,-2.314,-2.3607,-2.481,-2.4609,-2.493,-2.6293,-2.6974,-2.7615,-2.8364,-2.9259,-3.01,-3.0849,-3.1343,-3.1837,-3.2412,-3.1931,-3.1637,-3.1944,-3.2291,-3.2599,-3.2893,-3.32,-3.3414,-3.3414,-3.3641,-3.3708,-3.348,-3.3534,-3.3587,-3.344,-3.328,-3.3173,-3.316,-3.2933,-3.2732,-3.2732,-3.2625,-3.2545,-3.2452,-3.2038,-3.169,-3.1784,-3.181,-3.1877,-1.7182,-1.7154,-1.7032,-1.6904,-1.7169,-2.1326,-2.325,-2.3977,-2.4608,-2.3298,-2.0708,-1.7818,-1.7411,-1.8801,-1.8809,-1.8728,-1.8615,-1.9061,-1.8298,-1.6151,-1.6402,-1.653,-1.6551,-1.6551,-1.6551,-1.6551,-1.6953,-1.701,-1.6729,-2.1827,-2.4125,-2.4072,-2.8644,-3.0795,-3.0474,-3.0247,-3.0394,-3.0915,-3.1998,-3.2812,-3.3334,-3.332,-3.2879,-3.2038,-3.1677,-3.0955,-2.9793,-2.6672,-2.3715,-2.1384,-1.847,-1.5601,-1.3109,-1.2291,-1.1558,0.0,-1.0127,0.0,0.0,0.0,0.0,0.0,0.0,0.0,0.0,-2.0294,-2.1189,-2.2231,-2.318,-2.4062,-2.4903,-2.5277,-2.5812,-2.6627,-2.6987,-2.7495,-2.8337,-2.8898,-2.9446,-3.006,-3.0595,-3.1129,-3.169,-3.2038,-3.2425,-3.2919,-3.3026,-3.3,-3.3066,-3.304,-3.3093,-3.3387,-3.344,-3.3507,-3.3547,-3.3948,-3.4122,-3.3681,-3.3761,-3.3841,-3.3601,-3.3547,-3.3534,-3.3507,-3.3307,-3.312,-3.3093,-3.2866,-3.2679,-3.2692,-3.2639,-3.2572,-3.2492,-3.2465,-3.2545,-1.7127,-1.7019,-1.6992,-1.6965,-1.6937,-1.8035,-1.9568,-2.1785,-2.6424,-2.6786,-2.3923,-2.088,-1.8575,-1.6947,-1.6947,-1.6933,-1.6912,-1.6996,-1.6835,-1.6435,-1.6497,-1.6585,-1.6707,-1.6707,-1.6707,-1.6707,-1.8937,-1.9849,-1.9638,-2.5012,-2.7353,-2.6862,-3.0166,-3.1597,-3.1102,0.0,0.0,0.0,-3.2185,-3.2719,-3.304,-3.2826,-3.2291,-3.1423,-3.0875,0.0,-2.8925,-2.6376,-2.3715,-2.1241,-1.8867,0.0,0.0,0.0,0.0,0.0,0.0,0.0,0.0,0.0,0.0,0.0,-1.7994,-2.0039,-2.0823,-2.2418,-2.3647,-2.4115,-2.5157,-2.6079,-2.6707,-2.7255,-2.7829,-2.8457,-2.8804,-2.9232,-2.986,-3.0047,-3.0421,-3.1236,-3.1436,-3.173,-3.2278,-3.2639,-3.2946,-3.3293,-3.3561,-3.3708,-3.3708,-3.3494,-3.336,-3.3414,-3.3654,-3.3801,-3.3788,-3.4108,-3.4336,-3.4175,-3.4175,-3.4202,-3.4135,-3.4122,-3.4135,-3.4122,-3.3908,-3.3708,-3.3694,-3.3454,-3.324,-3.324,-3.324,-3.3106,-3.2652,-3.2545,-3.2545,-1.8711,0.0,-1.7385,-1.7331,0.0,-1.7277,-1.806,-1.9376,-2.2161,-2.2571,-2.1221,-1.9599,-1.8048,-1.6748,-1.6666,-1.6632,-1.6632,-1.6632,-1.6714,-1.6849,-1.6849,-1.6897,-1.6965,-1.6971,-1.6931,-1.6863,-1.8299,-1.8823,-1.8868,-2.2692,-2.5126,-2.6179,-2.8872,-3.0779,-3.1891,-3.2171,-3.2251,-3.2104,-3.2532,-3.2893,-3.3173,-3.3053,-3.2478,-3.1476,-3.0875,0.0,0.0,0.0,0.0,0.0,0.0,0.0,0.0,0.0,0.0,-1.2942,-1.2522,-1.2237,-1.2169,-1.2899,-1.4153,-1.5638,-1.9761,-2.2742,-2.3479,-2.473,-2.5678,-2.6119,-2.6974,-2.7669,-2.811,-2.8671,-2.9205,-2.9646,-2.9953,-3.0301,-3.0728,-3.1049,-3.1383,-3.1784,-3.2011,-3.2278,-3.2706,-3.3013,-3.3307,-3.3627,-3.3908,-3.4095,-3.4095,-3.3975,-3.3868,-3.3868,-3.4122,-3.4255,-3.4175,-3.4482,-3.4616,-3.4429,-3.4442,-3.4469,-3.4336,-3.4322,-3.4322,-3.4309,-3.4189,-3.4068,-3.3908,-3.3855,-3.3814,-3.3708,-3.3761,-3.3721,-3.3293,-3.308,-3.2973,-1.9875,-1.7623,-1.7738,-1.7643,-1.7419,-1.7446,-1.7473,-1.7494,0.0,0.0,0.0,-1.806,-1.7509,-1.6978,-1.687,-1.6829,-1.6829,-1.6856,-1.6985,-1.7188,-1.7195,-1.7175,-1.7154,-1.7182,-1.7121,-1.6985,-1.7419,-1.7349,-1.6996,-1.9846,-2.2387,-2.4618,-2.7236,-2.9873,-3.2509,-3.2933,-3.2959,-3.2799,-3.2919,-3.312,-3.34,-3.336,-3.2826,-3.177,-3.1183,-3.0207,-2.8818,-2.8056,-2.5715,-2.1259,-2.0447,-1.8402,-1.4477,-1.3916,-1.3695,-1.381,-1.3824,-1.3824,-1.3824,-1.3851,-1.4714,-1.6933,-2.1556,-2.4925,-2.652,-2.7014,-2.7535,-2.8123,-2.8631,-2.9058,-2.9392,-2.9913,-3.0341,-3.0635,-3.0929,-3.1196,-3.145,-3.1864,-3.2185,-3.2332,-3.2559,-3.2839,-3.32,-3.344,-3.3694,-3.3988,-3.4255,-3.4429,-3.4442,-3.4362,-3.4269,-3.4282,-3.4482,-3.4643,-3.4536,-3.4817,-3.4977,-3.4603,-3.4696,-3.4736,-3.4549,-3.4469,-3.4469,-3.4523,-3.4442,-3.4309,-3.4122,-3.4175,-3.4242,-3.4015,-3.4148,-3.4242,-3.4015,-3.3761,-3.3534,-1.7899,-1.7453,-1.7473,-1.746,-1.7433,-1.7561,-1.7684,-1.7985,-1.9929,-2.0783,-2.0767,-2.0602,-1.9276,-1.6985,-1.7087,-1.7127,-1.7141,-1.727,-1.7283,-1.7195,-1.7195,-1.7127,-1.7019,-1.7134,-1.7121,-1.7209,-1.9384,-1.9376,-1.7789,-2.2087,-2.4635,-2.5063,-2.7672,-3.0625,-3.3094,-3.3334,-3.3467,-3.3681,-3.3227,-3.312,-3.34,-3.3173,-3.2719,-3.2064,-3.1476,-3.0595,-2.9419,-2.9245,-2.7759,-2.4975,-2.3005,-2.0779,-1.8279,-1.5845,-1.4563,-1.4584,-1.4584,-1.4584,-1.459,-1.4706,-1.592,-1.8242,-2.1558,-2.5023,-2.8561,-2.9058,-2.9352,-2.9913,-3.0047,-3.0327,-3.0849,-3.1196,-3.1503,-3.1797,-3.2104,-3.2318,-3.2345,-3.2452,-3.2719,-3.316,-3.3253,-3.3507,-3.3948,-3.4122,-3.4269,-3.4549,-3.4643,-3.4776,-3.4883,-3.4629,-3.4349,-3.4349,-3.4576,-3.4723,-3.475,-3.4963,-3.511,-3.5097,-3.507,-3.5084,-3.5017,-3.499,-3.5004,-3.5057,-3.4843,-3.4683,-3.4603,-3.4442,-3.4362,-3.4269,-3.4336,-3.4336,-3.4282,-3.4189,-3.4002,-1.9117,-1.7555,-1.7629,-1.7616,-1.7555,-1.7704,-1.7758,-1.7944,-2.0515,-2.1464,-2.1661,-2.1483,-2.0717,-1.9174,-1.7706,-1.7121,-1.7195,-1.7263,-1.8145,-1.9425,-1.7946,-1.8124,-1.9114,-1.791,-1.7236,-1.7319,-1.8412,-1.8368,-1.7405,-1.9662,-2.2087,-2.5063,-2.9248,-3.2183,-3.3213,-3.3587,-3.3734,-3.3881,-3.3614,-3.3614,-3.3895,-3.3774,-3.3507,-3.308,-3.2345,-3.1623,-3.0929,-3.0448,-2.8951,-2.6461,-2.4,-2.1655,-1.9268,-1.6703,-1.5262,-1.5337,-1.5425,-1.5466,-1.5466,-1.5533,-1.678,-1.9229,-2.0747,-2.3688,-2.8478,-3.0082,-3.0782,-3.1049,-3.1209,-3.141,-3.1677,-3.1971,-3.2198,-3.2332,-3.2732,-3.3,-3.3053,-3.3334,-3.3614,-3.3855,-3.3908,-3.4015,-3.4282,-3.4456,-3.4589,-3.4763,-3.4883,-3.5044,-3.5177,-3.4977,-3.479,-3.4817,-3.491,-3.4977,-3.5004,-3.5097,-3.5191,-3.5204,-3.5204,-3.5204,-3.5204,-3.5204,-3.5204,-3.5191,-3.507,-3.4937,-3.4817,-3.4803,-3.4723,-3.4589,-3.471,-3.4736,-3.4616,-3.4442,-3.4229,-1.9807,-1.7758,-1.7833,-1.7799,-1.7711,-1.7819,-1.7799,-1.7916,-2.0706,-2.1766,-2.1699,-2.1728,-2.1356,-2.0173,-1.796,-1.7161,-1.7283,-1.7297,-1.8416,-2.0221,-1.8323,-1.8517,-2.0182,-1.8302,-1.7392,-1.7256,-1.7243,-1.7168,-1.7039,-1.6998,-1.9871,-2.5215,-3.0129,-3.2838,-3.3521,-3.3761,-3.3948,-3.4068,-3.4095,-3.4189,-3.4402,-3.4416,-3.4309,-3.4055,-3.3347,-3.2812,-3.2492,-3.177,-3.0512,-2.858,-2.5316,-2.2652,-2.0744,-1.7614,-1.5995,-1.6103,-1.6218,-1.6286,-1.6286,-1.6279,-1.7127,-1.9243,-2.0091,-2.2571,-2.7126,-2.9886,-3.1526,-3.1753,-3.2104,-3.2305,-3.2425,-3.2679,-3.2866,-3.2959,-3.3334,-3.3601,-3.3668,-3.4042,-3.4362,-3.4389,-3.4416,-3.4429,-3.4536,-3.471,-3.4857,-3.491,-3.5057,-3.5191,-3.5204,-3.5204,-3.5204,-3.5204,-3.5204,-3.5177,-3.5204,-3.5191,-3.5204,-3.5204,-3.5204,-3.5204,-3.5204,-3.5204,-3.5204,-3.5191,-3.5191,-3.511,-3.4937,-3.5017,-3.5057,-3.491,-3.5004,-3.5084,-3.4897,-3.4723,-3.4456,-1.828,-1.803,-1.7928,-1.786,-1.7853,-1.7867,-1.786,-1.8281,-2.0889,-2.2092,-2.1724,-2.1523,-2.0174,-1.8037,-1.7586,-1.7446,-1.7582,-1.7602,-1.782,-1.8038,-1.7623,-1.7772,-1.8295,-1.7772,-1.7548,-1.7412,-1.7614,-1.7532,-1.7175,-1.7264,-1.9879,-2.5009,-2.8291,-3.1111,-3.3612,-3.3881,-3.4148,-3.467,-3.4683,-3.4683,-3.471,-3.4723,-3.471,-3.4683,-3.4336,-3.4028,-3.3681,-3.3374,-3.3146,-3.2523,-2.7806,-2.4982,-2.4167,-1.9704,-1.6856,-1.6863,-1.6883,-1.6897,-1.689,-1.6897,-1.7099,-1.7336,-1.971,-2.249,-2.5634,-2.8482,-3.0883,-3.2209,-3.2746,-3.3013,-3.3267,-3.3547,-3.3788,-3.3975,-3.4135,-3.4242,-3.4229,-3.4282,-3.4416,-3.4696,-3.4723,-3.4817,-3.5004,-3.5097,-3.5137,-3.511,-3.5151,-3.5204,-3.5204,-3.5204,-3.5204,-3.5204,-3.5204,-3.5204,-3.5204,-3.5204,-3.5204,-3.5204,-3.5204,-3.5204,-3.5204,-3.5204,-3.5204,-3.5204,-3.5204,-3.5164,-3.5151,-3.5191,-3.5177,-3.5124,-3.5151,-3.5177,-3.5151,-3.5097,-3.4897,-1.8226,-1.8219,-1.8158,-1.8131,-1.8131,-1.8131,-1.8084,-1.8225,-1.9315,-1.9662,-1.9513,-1.9431,-1.9514,-1.9754,-1.8051,-1.7453,-1.7514,-1.7609,-1.8458,-1.9877,-2.017,-2.1035,-2.2474,-2.2741,-2.1881,-2.0116,-2.0116,-1.9178,-1.776,-1.8947,-2.1635,-2.5599,-2.8309,-3.1289,-3.3944,-3.4322,-3.4536,-3.4763,-3.4937,-3.5017,-3.5017,-3.5017,-3.5017,-3.499,-3.4736,-3.4536,-3.4389,-3.4108,-3.3948,-3.3528,-2.8516,-2.5599,-2.5589,-2.0385,-1.7236,-1.7243,-1.7243,-1.7243,-1.7243,-1.7243,-1.7243,-1.7236,-1.8344,-2.0906,-2.5311,-2.6871,-2.925,-3.2898,-3.3708,-3.3828,-3.3935,-3.4068,-3.4202,-3.4322,-3.4469,-3.4576,-3.4576,-3.4736,-3.4897,-3.5004,-3.5017,-3.5057,-3.5164,-3.5204,-3.5204,-3.5204,-3.5204,-3.5204,-3.5204,-3.5204,-3.5204,-3.5204,-3.5204,-3.5204,-3.5204,-3.5204,-3.5204,-3.5204,-3.5204,-3.5204,-3.5204,-3.5204,-3.5204,-3.5204,-3.5204,-3.5204,-3.5191,-3.5204,-3.5204,-3.5204,-3.5204,-3.5204,-3.5204,-3.5204,-3.5057,-1.905,-1.8369,-1.8335,-1.8321,-1.8321,-1.8321,-1.8253,-1.8165,-1.8152,-1.807,-1.7935,-1.7921,-1.887,-2.0124,-1.8359,-1.75,-1.7548,-1.7616,-1.8683,-2.0539,-2.1516,-2.308,-2.501,-2.6072,-2.5215,-2.3494,-2.3233,-2.1615,-1.8918,-1.9539,-2.1865,-2.4596,-2.6703,-2.948,-3.2955,-3.359,-3.415,-3.4897,-3.5097,-3.5204,-3.5191,-3.5204,-3.5204,-3.5177,-3.499,-3.4883,-3.4883,-3.467,-3.4563,-3.4342,-2.9863,-2.6891,-2.5831,-2.1375,-1.8401,-1.7541,-1.7541,-1.7541,-1.7541,-1.7541,-1.7541,-1.7541,-1.7541,-1.9677,-2.3926,-2.5619,-2.8169,-3.2408,-3.4135,-3.4536,-3.4442,-3.4509,-3.4563,-3.4576,-3.4763,-3.4883,-3.4897,-3.5084,-3.5177,-3.5204,-3.5164,-3.5204,-3.5204,-3.5204,-3.5204,-3.5204,-3.5204,-3.5204,-3.5204,-3.5204,-3.5204,-3.5204,-3.5204,-3.5204,-3.5204,-3.5204,-3.5204,-3.5204,-3.5204,-3.5204,-3.5204,-3.5204,-3.5204,-3.5204,-3.5204,-3.5204,-3.5204,-3.5204,-3.5204,-3.5204,-3.5204,-3.5204,-3.5204,-3.5204,-3.5204,-2.123,-1.8726,-1.8382,-1.8335,-1.8321,-1.8335,-1.8321,-1.8308,-1.8308,-1.8219,-1.8091,-1.8084,-1.8218,-1.8274,-1.7717,-1.7717,-1.7812,-1.7724,-1.7731,-1.8473,-2.1108,-2.242,-2.263,-2.5221,-2.6509,-2.6283,-2.6092,-2.4409,-2.1464,-1.9126,-1.8904,-2.1661,-2.2317,-2.4924,-2.9768,-3.0891,-3.209,-3.4478,-3.5177,-3.5204,-3.5204,-3.5204,-3.5217,-3.5217,-3.5177,-3.5151,-3.5164,-3.5164,-3.5137,-3.5151,-3.2075,-2.927,-2.6488,-2.3466,-2.0435,-1.8267,-1.7833,-1.7833,-1.7826,-1.7819,-1.7819,-1.7826,-1.7806,-1.9133,-2.2344,-2.4928,-2.7942,-3.0787,-3.3582,-3.503,-3.4803,-3.4923,-3.5084,-3.5097,-3.5137,-3.5164,-3.5164,-3.5164,-3.5191,-3.5204,-3.5204,-3.5204,-3.5204,-3.5204,-3.5204,-3.5204,-3.5204,-3.5204,-3.5204,-3.5204,-3.5204,-3.5204,-3.5204,-3.5204,-3.5204,-3.5204,-3.5204,-3.5204,-3.5204,-3.5204,-3.5204,-3.5204,-3.5204,-3.5204,-3.5204,-3.5204,-3.5204,-3.5204,-3.5204,-3.5204,-3.5204,-3.5204,-3.5204,-3.5204,-3.5204,-2.2539,-2.163,-2.1567,-2.0415,-1.8606,-1.8606,-1.8545,-1.8457,-1.8457,-1.8375,-1.8253,-1.824,-1.8206,-1.8152,-1.8104,-1.805,-1.8009,-1.7955,-1.7962,-1.8663,-2.304,-2.5214,-2.5869,-3.0004,-3.1319,-2.9765,-2.9326,-2.6796,-2.2449,-2.0939,-2.0939,-2.1799,-2.2007,-2.398,-2.746,-2.9842,-3.1401,-3.2573,-3.4108,-3.5204,-3.5231,-3.5378,-3.5471,-3.5458,-3.5284,-3.5204,-3.5204,-3.5204,-3.5204,-3.5204,-3.2361,-2.9551,-2.6529,-2.1992,-1.8957,-1.8081,-1.786,-1.786,-1.786,-1.786,-1.786,-1.786,-1.786,-1.9184,-2.1992,-2.4806,-2.7823,-3.0656,-3.3638,-3.5338,-3.5137,-3.5137,-3.5204,-3.5204,-3.5204,-3.5204,-3.5204,-3.5204,-3.5204,-3.5204,-3.5204,-3.5204,-3.5204,-3.5204,-3.5204,-3.5204,-3.5204,-3.5204,-3.5204,-3.5204,-3.5204,-3.5204,-3.5204,-3.5204,-3.5204,-3.5204,-3.5204,-3.5204,-3.5204,-3.5204,-3.5204,-3.5204,-3.5204,-3.5204,-3.5204,-3.5204,-3.5204,-3.4755,-3.4768,-3.4755,-3.4768,-3.4544,-3.5204,-3.498,-3.498,-2.3318,-2.3318,-2.3318,-2.1502,-1.8987,-1.8762,-1.8708,-1.8606,-1.8606,-1.8525,-1.8409,-1.8389,-1.8362,-1.8335,-1.8369,-1.8335,-1.8233,-1.8192,-1.8165,-1.8832,-2.4338,-2.6964,-2.806,-3.3119,-3.4678,-3.289,-3.163,-2.8923,-2.5442,-2.326,-2.2388,-2.2388,-2.1514,-2.2354,-2.5128,-2.728,-2.8792,-3.0963,-3.2935,-3.4289,-3.5272,-3.5672,-3.5778,-3.5752,-3.5578,-3.5485,-3.5471,-3.5391,-3.5338,-3.5126,-3.345,-3.0877,-2.6741,-2.1237,-1.7955,-1.7996,-1.7962,-1.7962,-1.8002,-1.8009,-1.8016,-1.8009,-1.8009,-1.8886,-2.0859,-2.347,-2.6523,-2.9389,-3.2336,-3.4347,-3.5325,-3.5485,-3.5404,-3.5271,-3.5271,-3.5284,-3.5217,-3.5204,-3.5204,-3.5204,-3.5204,-3.5204,-3.5204,-3.5204,-3.5204,-3.5204,-3.5204,-3.5204,-3.5204,-3.5204,-3.5204,-3.5204,-3.5204,-3.5204,-3.5204,-3.5204,-3.5204,-3.5204,-3.5204,-3.5204,-3.5204,-3.5204,-3.5204,-3.5204,-3.5204,-3.5204,-3.498,-3.4332,-3.4108,-3.3896,-3.3447,-3.301,-3.3672,-3.4544,-3.4755,-2.3326,-2.3581,-2.3326,-2.1756,-1.9486,-1.9035,-1.8776,-1.8769,-1.8762,-1.8674,-1.8545,-1.8531,-1.847,-1.8389,-1.8484,-1.8531,-1.8498,-1.8396,-1.8335,-1.8994,-2.4093,-2.6975,-2.7639,-3.2956,-3.5829,-3.5587,-3.3161,-3.1816,-3.0676,-2.5798,-2.3139,-2.2287,-2.0057,-1.9975,-2.226,-2.3135,-2.5767,-2.9717,-3.1461,-3.3119,-3.5587,-3.6059,-3.6072,-3.6072,-3.6046,-3.6046,-3.6072,-3.5792,-3.5631,-3.5658,-3.5657,-3.3161,-2.7336,-2.1478,-1.8152,-1.824,-1.8165,-1.8172,-1.8274,-1.8287,-1.8267,-1.8267,-1.8294,-1.8493,-1.9149,-2.1374,-2.4253,-2.7346,-3.0261,-3.2919,-3.5357,-3.6059,-3.5859,-3.5364,-3.5485,-3.5525,-3.5338,-3.5231,-3.5217,-3.5257,-3.5271,-3.5217,-3.5217,-3.5204,-3.5204,-3.5204,-3.5204,-3.5204,-3.5204,-3.5204,-3.5204,-3.5204,-3.5204,-3.5204,-3.5204,-3.5204,-3.5204,-3.5204,-3.5204,-3.5204,-3.5204,-3.5204,-3.5204,-3.5204,-3.5204,-3.5204,-3.4755,-3.4108,-3.2361,-3.1935,-3.1497,-3.1497,-3.2361,-3.3235,-3.4531,-2.4606,-2.6432,-2.4472,-2.3116,-2.2071,-1.9989,-1.9013,-1.8925,-1.8918,-1.8837,-1.8708,-1.8694,-1.8667,-1.864,-1.8674,-1.8694,-1.8687,-1.864,-1.8572,-1.9163,-2.2511,-2.5638,-2.7865,-3.1438,-3.4246,-3.5653,-3.518,-3.3634,-3.1414,-2.787,-2.4976,-2.276,-1.9884,-1.874,-1.9803,-2.1566,-2.4661,-2.8196,-3.04,-3.2882,-3.5869,-3.6273,-3.6366,-3.6366,-3.638,-3.646,-3.6633,-3.6193,-3.5939,-3.5939,-3.6019,-3.3404,-2.7407,-2.1607,-1.85,-1.8301,-1.828,-1.826,-1.8308,-1.8328,-1.8342,-1.8328,-1.8328,-1.8321,-1.8541,-2.0786,-2.3896,-2.6793,-2.9988,-3.2944,-3.5502,-3.6446,-3.638,-3.5859,-3.5872,-3.5899,-3.5778,-3.5765,-3.5792,-3.5778,-3.5618,-3.5511,-3.5458,-3.5364,-3.5257,-3.5244,-3.5231,-3.5217,-3.5204,-3.5217,-3.5204,-3.5204,-3.5204,-3.5204,-3.5204,-3.5204,-3.5204,-3.5204,-3.5204,-3.5204,-3.5204,-3.5204,-3.5204,-3.5204,-3.5204,-3.498,-3.4544,-3.3447,-3.1497,-2.9979,-2.9551,-2.9979,-3.0846,-3.1923,-3.3222,-2.4121,-2.4771,-2.3974,-2.3064,-2.1993,-1.9901,-1.9156,-1.9067,-1.9013,-1.8938,-1.885,-1.8789,-1.8796,-1.8837,-1.8843,-1.8877,-1.8925,-1.8925,-1.8877,-1.9219,-2.182,-2.4278,-2.6524,-3.0343,-3.3654,-3.5983,-3.6393,-3.5493,-3.3481,-3.0564,-2.7662,-2.4758,-2.1629,-1.9576,-1.863,-2.0184,-2.2645,-2.5543,-2.865,-3.1577,-3.4385,-3.5895,-3.6674,-3.6674,-3.666,-3.6821,-3.7048,-3.674,-3.646,-3.6055,-3.5337,-3.2249,-2.7652,-2.298,-1.9612,-1.872,-1.8538,-1.8572,-1.8572,-1.8647,-1.8647,-1.8647,-1.8647,-1.8654,-1.8877,-2.0682,-2.2701,-2.5573,-2.8592,-3.1739,-3.4266,-3.6234,-3.652,-3.6446,-3.6286,-3.6193,-3.6112,-3.6072,-3.6059,-3.6006,-3.5899,-3.5819,-3.5738,-3.5672,-3.5525,-3.5511,-3.5431,-3.5351,-3.5324,-3.5271,-3.5231,-3.5204,-3.5204,-3.5204,-3.5204,-3.5204,-3.5204,-3.5204,-3.5204,-3.5204,-3.5204,-3.5204,-3.5204,-3.5204,-3.5204,-3.5204,-3.4755,-3.2586,-3.0846,-2.9326,-2.7812,-2.8038,-2.8897,-3.0407,-3.1923,-2.2016,-1.9929,-2.2488,-2.2032,-1.9951,-1.9489,-1.9244,-1.9196,-1.9088,-1.9033,-1.8979,-1.8884,-1.8884,-1.8979,-1.9,-1.9061,-1.9176,-1.9162,-1.9149,-1.9775,-2.1464,-2.3155,-2.4517,-2.9749,-3.3824,-3.5857,-3.6759,-3.6759,-3.6302,-3.3292,-3.0823,-2.7399,-2.4411,-2.1638,-1.9254,-1.8552,-2.0385,-2.3544,-2.6475,-2.9523,-3.2644,-3.5399,-3.7008,-3.7008,-3.7021,-3.7141,-3.7342,-3.7328,-3.7101,-3.622,-3.3912,-3.1069,-2.808,-2.4949,-2.1756,-1.9247,-1.8925,-1.8959,-1.9013,-1.904,-1.9115,-1.9108,-1.9101,-1.9196,-1.9351,-1.9539,-2.0899,-2.3786,-2.6779,-2.9694,-3.2479,-3.5215,-3.6799,-3.6967,-3.6714,-3.6446,-3.6179,-3.6166,-3.6219,-3.6193,-3.6126,-3.6099,-3.6086,-3.6046,-3.6006,-3.5965,-3.5792,-3.5685,-3.5605,-3.5485,-3.5284,-3.5244,-3.5271,-3.5204,-3.5204,-3.5204,-3.5204,-3.5204,-3.5204,-3.5204,-3.5204,-3.5204,-3.5204,-3.5204,-3.5204,-3.5204,-3.4544,-3.2573,-2.9979,-2.7812,-2.695,-2.6529,-2.6961,-2.8468,-3.0621,-2.1451,-2.2838,-2.1309,-2.1564,-2.2614,-2.0728,-1.9468,-1.9373,-1.9332,-1.9237,-1.9156,-1.9108,-1.9094,-1.9142,-1.9149,-1.9169,-1.921,-1.9217,-1.9203,-1.9189,-1.9838,-2.1641,-2.4415,-2.9721,-3.3176,-3.4326,-3.6137,-3.7582,-3.733,-3.4356,-3.1296,-2.8096,-2.5003,-2.1947,-1.9171,-1.881,-2.0473,-2.3462,-2.6568,-2.9625,-3.2685,-3.5711,-3.7582,-3.7582,-3.7569,-3.7609,-3.7689,-3.7702,-3.7662,-3.725,-3.4269,-3.1307,-2.8518,-2.5551,-2.2547,-1.9768,-1.9115,-1.9149,-1.9162,-1.9189,-1.921,-1.9203,-1.9237,-1.9203,-1.9203,-1.9203,-2.0583,-2.3566,-2.6574,-2.9554,-3.2504,-3.5711,-3.733,-3.7529,-3.7141,-3.6807,-3.6714,-3.6714,-3.6714,-3.6687,-3.6513,-3.642,-3.6353,-3.6246,-3.6126,-3.6112,-3.6032,-3.5952,-3.5899,-3.5712,-3.5511,-3.5431,-3.5391,-3.5271,-3.5204,-3.5204,-3.5204,-3.5204,-3.5204,-3.5204,-3.5204,-3.5204,-3.5204,-3.5204,-3.5204,-3.5204,-3.4319,-3.2798,-2.9979,-2.7607,-2.5664,-2.5014,-2.4797,-2.5664,-2.8682,-2.0685,-2.2281,-2.0274,-2.053,-2.2047,-2.0373,-1.961,-1.9522,-1.9454,-1.9386,-1.9298,-1.9223,-1.9237,-1.9298,-1.9298,-1.9339,-1.9386,-1.9393,-1.9393,-1.94,-1.94,-2.1205,-2.4145,-2.8056,-3.0374,-3.316,-3.4787,-3.6408,-3.7316,-3.5774,-3.2709,-2.8769,-2.6356,-2.3323,-1.9193,-1.902,-1.9775,-2.1868,-2.4978,-2.8046,-3.1067,-3.4317,-3.6408,-3.7342,-3.7823,-3.7849,-3.7969,-3.7996,-3.7956,-3.7569,-3.5787,-3.2995,-2.8964,-2.6978,-2.3944,-1.9685,-1.9312,-1.94,-1.9393,-1.94,-1.9427,-1.9461,-1.944,-1.94,-1.94,-1.9393,-2.057,-2.1896,-2.4929,-2.7902,-3.1078,-3.5015,-3.7342,-3.7756,-3.7515,-3.7261,-3.7155,-3.7114,-3.7061,-3.6941,-3.6794,-3.6687,-3.6687,-3.6527,-3.646,-3.642,-3.634,-3.6286,-3.6219,-3.5979,-3.5765,-3.5672,-3.5551,-3.5431,-3.5297,-3.5257,-3.5257,-3.5244,-3.5324,-3.5297,-3.5271,-3.5257,-3.5204,-3.5204,-3.5204,-3.498,-3.4319,-3.346,-3.2148,-2.9551,-2.6097,-2.4155,-2.4372,-2.3937,-2.6961,-1.9664,-1.9664,-1.9664,-1.9664,-1.9908,-1.9664,-1.9657,-1.963,-1.9522,-1.9468,-1.9434,-1.9312,-1.9359,-1.9454,-1.9454,-1.9522,-1.9644,-1.9617,-1.963,-1.9624,-1.9846,-2.0933,-2.2844,-2.4239,-2.7269,-3.0989,-3.2321,-3.4451,-3.6105,-3.6739,-3.4354,-3.0374,-2.8732,-2.5239,-2.1026,-1.9671,-1.9223,-2.0174,-2.2796,-2.5635,-2.8449,-3.174,-3.4839,-3.6717,-3.7968,-3.829,-3.8424,-3.8437,-3.8357,-3.805,-3.7929,-3.4414,-2.9574,-2.8609,-2.5579,-2.0831,-1.9583,-1.9705,-1.9705,-1.9705,-1.9752,-1.982,-1.9759,-1.9712,-1.9705,-1.9705,-1.9894,-1.9991,-2.2328,-2.6025,-2.9859,-3.4439,-3.7045,-3.7768,-3.7929,-3.7782,-3.7542,-3.7422,-3.7275,-3.7021,-3.6967,-3.6941,-3.6941,-3.6941,-3.6914,-3.67,-3.6633,-3.658,-3.6487,-3.6286,-3.6072,-3.5899,-3.5752,-3.5605,-3.5458,-3.5311,-3.5311,-3.5324,-3.5458,-3.5485,-3.5431,-3.5378,-3.5257,-3.5204,-3.5204,-3.5204,-3.498,-3.4108,-3.326,-3.0419,-2.6529,-2.5447,-2.5231,-2.4372,-2.5664,-1.9664,-1.9664,-1.9664,-1.9664,-1.9664,-1.9664,-1.9664,-1.9657,-1.9624,-1.9596,-1.9596,-1.9569,-1.9576,-1.961,-1.9596,-1.963,-1.9657,-1.9664,-1.9664,-1.9664,-1.9664,-1.988,-2.1225,-2.2862,-2.5007,-2.7122,-2.9026,-3.1628,-3.3945,-3.4706,-3.3928,-3.2271,-2.9362,-2.6668,-2.3212,-2.0316,-1.9386,-1.988,-2.2583,-2.4307,-2.6235,-3.0611,-3.4017,-3.5463,-3.7801,-3.9185,-3.9279,-3.9319,-3.9279,-3.9078,-3.8366,-3.556,-3.0632,-2.9319,-2.6027,-2.1542,-1.9915,-1.9997,-2.0003,-1.999,-2.001,-2.0031,-2.0003,-2.001,-2.0003,-1.999,-1.9922,-2.0297,-2.2655,-2.6363,-3.0912,-3.3502,-3.5842,-3.7488,-3.822,-3.837,-3.8076,-3.7676,-3.7422,-3.7275,-3.7101,-3.6941,-3.6954,-3.6967,-3.6967,-3.6941,-3.6901,-3.6847,-3.6714,-3.6553,-3.6366,-3.6153,-3.6046,-3.5899,-3.5738,-3.5605,-3.5551,-3.5551,-3.5645,-3.5712,-3.5658,-3.5551,-3.5444,-3.5311,-3.5204,-3.5231,-3.5378,-3.5086,-3.425,-3.0488,-2.7218,-2.5535,-2.4483,-2.4001,-2.4683,-1.9664,-1.9664,-1.9664,-1.9664,-1.9664,-1.9664,-1.9664,-1.9664,-1.9664,-1.9664,-1.9664,-1.9664,-1.9664,-1.9664,-1.9664,-1.9664,-1.9664,-1.9664,-1.9664,-1.9664,-1.9664,-1.9664,-1.9901,-2.1336,-2.2764,-2.4434,-2.6087,-2.8712,-3.1041,-3.2857,-3.3023,-3.1628,-2.9683,-2.7368,-2.4282,-2.1328,-1.999,-2.0004,-2.1261,-2.3008,-2.519,-2.7912,-3.2082,-3.4499,-3.7555,-3.9599,-3.9573,-3.9586,-3.9586,-3.9479,-3.8924,-3.6118,-3.0816,-2.9431,-2.6349,-2.1545,-2.0098,-2.0146,-2.0173,-2.0146,-2.0126,-2.02,-2.0146,-2.0105,-2.0098,-2.0098,-2.0071,-2.023,-2.1601,-2.4378,-2.897,-3.2972,-3.4651,-3.6079,-3.7762,-3.8406,-3.8437,-3.8063,-3.7716,-3.7622,-3.7462,-3.7301,-3.7221,-3.7141,-3.7021,-3.7008,-3.6954,-3.6914,-3.6901,-3.674,-3.662,-3.6446,-3.634,-3.6219,-3.6059,-3.5939,-3.5845,-3.5845,-3.5899,-3.5925,-3.5912,-3.5792,-3.5658,-3.5578,-3.5525,-3.5618,-3.5725,-3.5391,-3.4911,-3.3007,-2.9957,-2.6196,-2.3788,-2.3824,-2.4743,-1.9664,-1.9664,-1.9664,-1.9664,-1.9664,-1.9664,-1.9664,-1.9664,-1.9664,-1.9664,-1.9664,-1.9664,-1.9664,-1.9664,-1.9664,-1.9664,-1.9664,-1.9664,-1.9664,-1.9664,-1.9705,-1.9719,-1.9962,-2.0227,-2.121,-2.3561,-2.3737,-2.5395,-2.8524,-3.1375,-3.2118,-3.0501,-3.0419,-2.9001,-2.572,-2.2443,-2.0774,-2.0278,-2.0278,-2.1276,-2.3737,-2.5229,-2.8686,-3.4369,-3.6849,-3.9083,-3.9574,-3.9813,-3.9773,-3.9733,-3.9733,-3.6547,-3.2377,-2.9662,-2.7001,-2.0907,-2.0207,-2.0261,-2.0322,-2.0275,-2.0248,-2.0349,-2.0261,-2.0193,-2.0187,-2.02,-2.018,-2.0105,-2.0753,-2.1801,-2.4502,-2.8543,-3.2085,-3.4182,-3.6558,-3.7994,-3.8678,-3.8477,-3.821,-3.7929,-3.7729,-3.7555,-3.7462,-3.7368,-3.7221,-3.7088,-3.7034,-3.6994,-3.6994,-3.6914,-3.6767,-3.6714,-3.662,-3.6446,-3.6286,-3.6353,-3.6259,-3.6166,-3.6193,-3.6233,-3.6259,-3.6246,-3.6166,-3.5992,-3.5965,-3.6006,-3.5992,-3.5899,-3.5468,-3.495,-3.1804,-2.6604,-2.4661,-2.3861,-2.4548,-1.9664,-1.9664,-1.9664,-1.9664,-1.9664,-1.9664,-1.9664,-1.9664,-1.9678,-1.9664,-1.9678,-1.9671,-1.9685,-1.9671,-1.9664,-1.9664,-1.9671,-1.9664,-1.9671,-1.9698,-1.9766,-1.982,-1.9854,-1.9929,-2.0477,-2.0443,-2.1038,-2.2631,-2.5346,-2.85,-3.0961,-3.2824,-3.3154,-3.1478,-2.858,-2.5712,-2.2355,-2.0416,-2.0166,-2.0665,-2.1662,-2.4218,-2.8265,-3.4063,-3.6066,-3.7819,-3.9811,-4.0321,-4.0321,-4.0334,-4.0321,-3.8075,-3.4518,-3.1672,-2.7009,-2.239,-2.0424,-2.0438,-2.0465,-2.0471,-2.0471,-2.0499,-2.0451,-2.0444,-2.0451,-2.0438,-2.0363,-2.0261,-2.0388,-2.1218,-2.4185,-2.6331,-2.8871,-3.2107,-3.4428,-3.5858,-3.7749,-3.8624,-3.8491,-3.8223,-3.7996,-3.7796,-3.7716,-3.7635,-3.7542,-3.7382,-3.7248,-3.7208,-3.7208,-3.7074,-3.6901,-3.6874,-3.6887,-3.6687,-3.65,-3.666,-3.67,-3.654,-3.654,-3.666,-3.67,-3.678,-3.67,-3.642,-3.6233,-3.6179,-3.6153,-3.6166,-3.4849,-3.3809,-3.0175,-2.6551,-2.4406,-2.2695,-2.226,-1.9664,-1.9664,-1.9664,-1.9664,-1.9664,-1.9664,-1.9705,-1.9766,-1.9773,-1.9813,-1.9868,-1.9888,-1.9841,-1.9793,-1.9773,-1.9739,-1.9678,-1.9664,-1.9705,-1.9773,-1.9841,-1.9929,-1.9983,-2.0078,-2.0092,-2.0064,-2.0203,-2.0647,-2.2412,-2.5573,-2.9027,-3.129,-3.2377,-3.147,-2.9558,-2.6707,-2.3777,-2.1076,-2.039,-2.0438,-2.0704,-2.3834,-2.8449,-3.1931,-3.5036,-3.757,-3.9949,-4.0695,-4.0615,-4.0508,-4.0468,-3.8714,-3.5696,-3.2184,-2.8177,-2.4031,-2.1548,-2.0539,-2.0539,-2.0539,-2.0532,-2.0532,-2.0539,-2.0539,-2.0539,-2.0519,-2.0478,-2.0356,-2.0288,-2.0644,-2.195,-2.3632,-2.6197,-2.8681,-3.1732,-3.4312,-3.6141,-3.7555,-3.8187,-3.8313,-3.8424,-3.8237,-3.7996,-3.7916,-3.7863,-3.7702,-3.7502,-3.7448,-3.7448,-3.7248,-3.7061,-3.7048,-3.7061,-3.6981,-3.6834,-3.6941,-3.7061,-3.6941,-3.6874,-3.6994,-3.7021,-3.7034,-3.6914,-3.6687,-3.654,-3.6473,-3.6527,-3.6607,-3.4524,-3.2672,-2.9775,-2.6876,-2.3736,-2.1724,-2.1284,-1.9664,-1.9664,-1.9664,-1.9678,-1.9705,-1.9705,-1.9786,-1.9902,-1.9915,-1.9976,-2.0085,-2.0058,-1.999,-1.9929,-1.9881,-1.982,-1.9739,-1.9739,-1.9793,-1.9908,-1.9976,-2.0051,-2.0119,-2.018,-2.0214,-2.0241,-2.0207,-2.0173,-2.1128,-2.3817,-2.6519,-2.9067,-2.9933,-3.0731,-2.9786,-2.8139,-2.4527,-2.2345,-2.0944,-2.077,-2.1604,-2.3464,-2.6535,-2.9928,-3.3361,-3.6393,-3.9252,-4.0497,-4.0895,-4.0775,-4.0451,-3.9421,-3.6635,-3.2894,-2.9394,-2.6643,-2.286,-2.1075,-2.0546,-2.0594,-2.0594,-2.0546,-2.0539,-2.0539,-2.0539,-2.0532,-2.0499,-2.0397,-2.037,-2.0309,-2.0914,-2.2347,-2.3967,-2.5773,-2.9321,-3.2895,-3.4465,-3.6093,-3.7827,-3.8217,-3.8618,-3.8611,-3.829,-3.8263,-3.8223,-3.8023,-3.7823,-3.7782,-3.7742,-3.7462,-3.7288,-3.7235,-3.7221,-3.7221,-3.7195,-3.7221,-3.7301,-3.7288,-3.7248,-3.7315,-3.7261,-3.7208,-3.7101,-3.7074,-3.6981,-3.6941,-3.6994,-3.6941,-3.5676,-3.3604,-3.0318,-2.7606,-2.5259,-2.2073,-2.0044,-1.9664,-1.9664,-1.9664,-1.9732,-1.9834,-1.9847,-1.9936,-2.0064,-2.0078,-2.0085,-2.0132,-1.9997,-2.0003,-2.0031,-1.9936,-1.9949,-1.9969,-1.9915,-1.9929,-2.0071,-2.018,-2.0248,-2.0322,-2.0438,-2.0431,-2.0424,-2.0444,-2.041,-2.0839,-2.3519,-2.5296,-2.6895,-3.0886,-3.3192,-2.9737,-2.8798,-2.828,-2.4836,-2.1967,-2.0851,-2.0953,-2.1773,-2.3814,-2.6843,-3.0417,-3.3732,-3.7239,-3.9769,-4.1229,-4.1203,-4.1203,-4.0969,-3.9704,-3.4377,-3.1594,-2.8758,-2.5115,-2.0689,-2.0621,-2.0682,-2.0682,-2.0607,-2.0573,-2.0546,-2.0566,-2.0566,-2.0553,-2.0526,-2.0505,-2.0444,-2.0329,-2.0797,-2.2181,-2.3809,-2.5913,-2.9784,-3.2377,-3.3667,-3.5404,-3.7575,-3.7721,-3.8346,-3.8477,-3.8544,-3.8571,-3.8344,-3.817,-3.8116,-3.7996,-3.7702,-3.7529,-3.7489,-3.7462,-3.7462,-3.7462,-3.7489,-3.7529,-3.7569,-3.7582,-3.7582,-3.7529,-3.7489,-3.7595,-3.7555,-3.7435,-3.7275,-3.7195,-3.6879,-3.6759,-3.4234,-3.0631,-2.8801,-2.7626,-2.4015,-1.9275,-1.9664,-1.9671,-1.9746,-1.9813,-1.9881,-1.9963,-2.0092,-2.0207,-2.0227,-2.0275,-2.0329,-2.0288,-2.0248,-2.02,-2.0071,-2.0037,-2.0078,-2.0037,-2.0092,-2.02,-2.0302,-2.037,-2.0444,-2.0505,-2.0539,-2.0539,-2.0553,-2.0573,-2.1026,-2.1989,-2.3228,-2.5776,-2.8289,-2.9086,-2.8188,-2.7955,-2.5778,-2.3357,-2.1709,-2.1048,-2.1123,-2.1446,-2.2747,-2.6002,-2.9675,-3.2986,-3.6243,-3.9802,-4.1234,-4.1403,-4.1336,-4.1336,-3.9807,-3.5222,-3.1159,-3.0652,-2.4854,-2.1205,-2.0845,-2.0872,-2.0804,-2.075,-2.0729,-2.0777,-2.0702,-2.0661,-2.0621,-2.0546,-2.0539,-2.0505,-2.0465,-2.0451,-2.1111,-2.2256,-2.3665,-2.6045,-2.894,-3.0816,-3.2695,-3.4879,-3.7041,-3.7721,-3.8398,-3.8798,-3.8784,-3.8597,-3.8384,-3.825,-3.8116,-3.7903,-3.7782,-3.7742,-3.7729,-3.7742,-3.7716,-3.7716,-3.7729,-3.7756,-3.7756,-3.7756,-3.7756,-3.7782,-3.7903,-3.7876,-3.7702,-3.7542,-3.7408,-3.6972,-3.6564,-3.3836,-3.0913,-2.9122,-2.6902,-2.2908,-1.9725,-1.9664,-1.9671,-1.9773,-1.9861,-1.9936,-2.0051,-2.0207,-2.0376,-2.0383,-2.0438,-2.0519,-2.0519,-2.0444,-2.0336,-2.0214,-2.0187,-2.022,-2.0173,-2.0254,-2.0336,-2.039,-2.0444,-2.0505,-2.0539,-2.0539,-2.0546,-2.0607,-2.0655,-2.0702,-2.1214,-2.2186,-2.442,-2.5728,-2.6023,-2.5846,-2.5897,-2.4701,-2.1801,-2.1384,-2.1204,-2.1279,-2.1367,-2.2644,-2.5216,-2.8615,-3.2014,-3.5214,-3.853,-4.0207,-4.1657,-4.1617,-4.1644,-4.0604,-3.6519,-3.2668,-3.091,-2.5843,-2.25,-2.1631,-2.1075,-2.098,-2.0919,-2.0892,-2.0899,-2.0783,-2.077,-2.0709,-2.0553,-2.0539,-2.0539,-2.0539,-2.0532,-2.0725,-2.1413,-2.236,-2.3753,-2.5153,-2.7357,-3.0801,-3.4496,-3.643,-3.7279,-3.7979,-3.8924,-3.8998,-3.8825,-3.8624,-3.8424,-3.8047,-3.7686,-3.7686,-3.7672,-3.8143,-3.8143,-3.8116,-3.8076,-3.8036,-3.7983,-3.7983,-3.8036,-3.8103,-3.813,-3.8197,-3.8103,-3.7969,-3.7889,-3.7809,-3.7184,-3.6394,-3.4494,-3.2318,-2.8427,-2.5506,-2.1718,-1.9699,-1.9664,-1.9664,-1.9678,-1.9834,-2.0071,-2.0092,-2.0268,-2.0485,-2.0512,-2.0519,-2.0539,-2.0532,-2.0465,-2.0363,-2.0343,-2.0376,-2.0485,-2.037,-2.0404,-2.0471,-2.0526,-2.0519,-2.0539,-2.0539,-2.0553,-2.058,-2.0661,-2.0736,-2.0811,-2.0919,-2.1192,-2.1471,-2.3955,-2.5271,-2.5569,-2.5096,-2.3891,-2.1694,-2.1238,-2.1299,-2.1367,-2.1428,-2.1679,-2.2459,-2.5336,-2.8716,-3.2065,-3.5918,-3.926,-4.1779,-4.2031,-4.2031,-4.1222,-3.7867,-3.4759,-3.1169,-2.7835,-2.4214,-2.2103,-2.1245,-2.1136,-2.1041,-2.0994,-2.098,-2.0872,-2.0804,-2.0709,-2.06,-2.0587,-2.0553,-2.0553,-2.0532,-2.0519,-2.0752,-2.147,-2.2442,-2.3645,-2.4413,-2.8139,-3.3372,-3.5518,-3.5862,-3.7936,-3.8635,-3.9319,-3.9145,-3.7801,-3.7361,-3.7503,-3.7167,-3.7425,-3.7425,-3.8366,-3.8611,-3.8611,-3.8544,-3.841,-3.8384,-3.8384,-3.8464,-3.8557,-3.8557,-3.845,-3.8437,-3.833,-3.8277,-3.817,-3.7569,-3.6879,-3.6014,-3.3751,-2.9617,-2.5725,-2.211,-2.0309,-1.9664,-1.9664,-1.9664,-1.9773,-1.9976,-2.0159,-2.0309,-2.0417,-2.0499,-2.0539,-2.0532,-2.0532,-2.0512,-2.0471,-2.0458,-2.0485,-2.0532,-2.0492,-2.0505,-2.0519,-2.0539,-2.0539,-2.0539,-2.056,-2.0587,-2.0668,-2.0756,-2.0899,-2.1055,-2.1102,-2.119,-2.1715,-2.2638,-2.2616,-2.2898,-2.3516,-2.2579,-2.1833,-2.1346,-2.1394,-2.1408,-2.1441,-2.1441,-2.17,-2.4826,-2.8202,-3.1827,-3.5193,-3.8583,-4.1178,-4.1952,-4.2218,-4.1952,-3.8838,-3.5719,-3.2096,-2.8716,-2.5344,-2.2223,-2.138,-2.1326,-2.1279,-2.119,-2.1095,-2.1014,-2.1034,-2.0906,-2.0783,-2.0682,-2.0661,-2.056,-2.0546,-2.0532,-2.0539,-2.08,-2.1569,-2.2062,-2.3075,-2.5039,-2.9975,-3.2194,-3.3372,-3.597,-3.8545,-3.9005,-3.9229,-3.7876,-3.6541,-3.6652,-3.6551,-3.6316,-3.7489,-3.8658,-3.8811,-3.8798,-3.8758,-3.8731,-3.8744,-3.8758,-3.8771,-3.8798,-3.8718,-3.8638,-3.8664,-3.8664,-3.8571,-3.8397,-3.8143,-3.754,-3.7006,-3.4269,-3.0611,-2.6697,-2.2512,-2.0904,-1.9664,-1.9664,-1.9664,-1.9746,-1.9895,-2.0105,-2.022,-2.0275,-2.0356,-2.0444,-2.0478,-2.0512,-2.0539,-2.0539,-2.0539,-2.0532,-2.0539,-2.0532,-2.0532,-2.0539,-2.0539,-2.0539,-2.0553,-2.06,-2.0675,-2.0777,-2.0899,-2.1034,-2.1177,-2.1252,-2.1319,-2.1326,-2.1252,-2.1494,-2.1535,-2.1374,-2.1441,-2.1441,-2.1441,-2.1441,-2.1441,-2.1441,-2.1441,-2.1435,-2.3787,-2.6387,-2.9758,-3.3131,-3.6756,-3.9615,-4.1178,-4.2218,-4.1432,-3.9615,-3.6232,-3.2603,-2.9498,-2.6124,-2.2745,-2.1441,-2.1441,-2.1387,-2.134,-2.1265,-2.1224,-2.1211,-2.1055,-2.0885,-2.0838,-2.079,-2.0668,-2.0716,-2.0722,-2.0756,-2.075,-2.1256,-2.1179,-2.1655,-2.3605,-2.6286,-2.8271,-3.073,-3.5403,-3.7999,-3.7974,-3.7481,-3.4628,-3.4295,-3.5702,-3.538,-3.5094,-3.6739,-3.8871,-3.8998,-3.8878,-3.8918,-3.8945,-3.8931,-3.8931,-3.8918,-3.8891,-3.8878,-3.8878,-3.8891,-3.8878,-3.8811,-3.8651,-3.8437,-3.829,-3.817,-3.4267,-2.9897,-2.64,-2.2413,-2.0786,-1.9664,-1.9664,-1.9664,-1.9739,-1.9854,-1.9881,-1.9976,-2.0105,-2.0153,-2.0248,-2.0383,-2.0485,-2.0539,-2.0539,-2.0539,-2.0539,-2.0539,-2.0539,-2.0539,-2.0539,-2.0539,-2.0539,-2.0587,-2.0661,-2.0756,-2.0838,-2.0994,-2.115,-2.1238,-2.134,-2.1414,-2.1435,-2.138,-2.1374,-2.1421,-2.1435,-2.1441,-2.1441,-2.1441,-2.1462,-2.1469,-2.1489,-2.1509,-2.1741,-2.2007,-2.4361,-2.7688,-3.0279,-3.3647,-3.6756,-3.9348,-4.0391,-4.0911,-4.0911,-3.8048,-3.2862,-3.1827,-2.7941,-2.2216,-2.17,-2.1441,-2.1441,-2.1394,-2.136,-2.1258,-2.1211,-2.1177,-2.1021,-2.0994,-2.0987,-2.0973,-2.0967,-2.0939,-2.0919,-2.0906,-2.0885,-2.0804,-2.0763,-2.2741,-2.3968,-2.5626,-2.8039,-3.374,-3.7395,-3.7147,-3.5452,-3.2102,-3.2026,-3.4218,-3.4195,-3.3668,-3.6038,-3.8414,-3.9265,-3.9172,-3.9159,-3.9159,-3.9145,-3.9145,-3.9145,-3.9199,-3.9265,-3.9239,-3.9172,-3.9065,-3.8998,-3.8878,-3.8744,-3.8704,-3.8214,-3.288,-2.8663,-2.5137,-2.2319,-2.0687,-1.9664,-1.9664,-1.9664,-1.9685,-1.9746,-1.9841,-1.9908,-1.9983,-2.0159,-2.0336,-2.0458,-2.0526,-2.0539,-2.0539,-2.0539,-2.0539,-2.0539,-2.0539,-2.0539,-2.0546,-2.0553,-2.0539,-2.0594,-2.0722,-2.0838,-2.0953,-2.1129,-2.1285,-2.1367,-2.1421,-2.1435,-2.1441,-2.1441,-2.1435,-2.1435,-2.1441,-2.1441,-2.1462,-2.1523,-2.1597,-2.1597,-2.1658,-2.1679,-2.1597,-2.1591,-2.3126,-2.5911,-2.7994,-3.0308,-3.3152,-3.5741,-3.6756,-3.8315,-3.8838,-3.7792,-3.4421,-3.3379,-2.8455,-2.3523,-2.1441,-2.1441,-2.1441,-2.1428,-2.1414,-2.136,-2.136,-2.1279,-2.1184,-2.115,-2.1109,-2.1021,-2.1001,-2.098,-2.098,-2.0973,-2.0967,-2.0926,-2.0919,-2.1667,-2.2677,-2.4141,-2.829,-3.3241,-3.5345,-3.5368,-3.4518,-3.1416,-3.182,-3.3768,-3.2762,-3.1989,-3.5104,-3.772,-3.8834,-3.9479,-3.9466,-3.9452,-3.9452,-3.9452,-3.9452,-3.9519,-3.9613,-3.9559,-3.9466,-3.9319,-3.9172,-3.9145,-3.9159,-3.9265,-3.7575,-3.3269,-3.0066,-2.7481,-2.3934,-2.0352,-1.9664,-1.9671,-1.9719,-1.9705,-1.9691,-1.9813,-1.9895,-1.999,-2.0214,-2.0383,-2.0458,-2.0512,-2.0539,-2.0539,-2.0539,-2.0539,-2.0539,-2.0539,-2.06,-2.0607,-2.0621,-2.0675,-2.075,-2.0838,-2.0987,-2.1102,-2.1218,-2.1353,-2.1421,-2.1435,-2.1441,-2.1441,-2.1441,-2.1441,-2.1441,-2.1441,-2.1441,-2.1462,-2.1516,-2.1591,-2.1652,-2.1726,-2.1774,-2.1753,-2.1995,-2.2758,-2.4765,-2.6265,-2.7522,-2.9591,-3.1368,-3.2614,-3.4679,-3.6232,-3.5975,-3.4679,-3.1567,-2.7165,-2.3002,-2.1435,-2.1441,-2.1441,-2.1441,-2.1441,-2.1441,-2.1421,-2.1387,-2.1319,-2.1285,-2.1238,-2.1163,-2.1129,-2.1129,-2.1129,-2.1136,-2.1136,-2.1075,-2.1068,-2.1041,-2.2068,-2.278,-2.7504,-3.142,-3.2764,-3.3324,-3.2032,-3.074,-3.213,-3.3016,-3.1511,-3.0967,-3.4091,-3.7264,-3.8922,-3.9813,-3.976,-3.9746,-3.9746,-3.9746,-3.976,-3.9827,-3.9907,-3.984,-3.9773,-3.9666,-3.9586,-3.9546,-3.9573,-3.9573,-3.8268,-3.5178,-3.2245,-3.0105,-2.5799,-2.0978,-1.9664,-1.9685,-1.9807,-1.978,-1.9698,-1.9827,-1.9969,-2.0105,-2.0261,-2.0336,-2.0363,-2.0499,-2.0539,-2.0539,-2.0539,-2.0539,-2.0539,-2.0539,-2.0627,-2.0716,-2.0729,-2.0831,-2.0953,-2.1089,-2.1136,-2.1231,-2.1333,-2.1394,-2.1441,-2.1441,-2.1441,-2.1441,-2.1441,-2.1441,-2.1441,-2.1441,-2.1441,-2.1455,-2.155,-2.1631,-2.172,-2.1774,-2.1855,-2.1876,-2.2153,-2.2126,-2.3381,-2.4615,-2.5867,-2.7635,-2.9096,-3.0578,-3.2614,-3.4936,-3.3905,-3.2086,-2.8976,-2.6124,-2.3002,-2.2223,-2.1441,-2.1441,-2.1441,-2.1441,-2.1441,-2.1441,-2.1414,-2.1408,-2.1387,-2.1408,-2.1394,-2.138,-2.1374,-2.1374,-2.138,-2.1326,-2.1245,-2.1197,-2.1157,-2.1377,-2.1315,-2.4049,-2.724,-2.887,-3.0735,-3.1132,-3.0324,-3.0254,-3.0927,-3.0184,-3.0381,-3.325,-3.6213,-3.9261,-3.9933,-4.0054,-4.0054,-4.0054,-4.0054,-4.0067,-4.0147,-4.0174,-4.0134,-4.008,-4.0054,-3.9974,-3.9813,-3.9746,-3.9746,-3.7933,-3.5994,-3.3014,-3.0372,-2.5729,-2.1348,-1.9664,-1.9664,-1.9705,-1.9698,-1.9705,-1.9929,-2.0064,-2.0119,-2.0261,-2.0376,-2.0485,-2.0519,-2.0539,-2.0539,-2.0539,-2.0539,-2.0539,-2.056,-2.0648,-2.0722,-2.079,-2.0878,-2.1007,-2.115,-2.1197,-2.1265,-2.1353,-2.1441,-2.1441,-2.1441,-2.1441,-2.1441,-2.1441,-2.1441,-2.1441,-2.1441,-2.1441,-2.1475,-2.1591,-2.1706,-2.1842,-2.1957,-2.2025,-2.2045,-2.2045,-2.2004,-2.2431,-2.2822,-2.3539,-2.4013,-2.4135,-2.5089,-2.8202,-2.9237,-2.9237,-3.1827,-3.0529,-2.8976,-2.5607,-2.2745,-2.1441,-2.1441,-2.1441,-2.1441,-2.1441,-2.1441,-2.1441,-2.1441,-2.1441,-2.1441,-2.1441,-2.1441,-2.1441,-2.1441,-2.1441,-2.1401,-2.1326,-2.1319,-2.1279,-2.1258,-2.1197,-2.2146,-2.4854,-2.5973,-2.7614,-2.925,-2.9895,-2.9576,-2.9517,-2.8779,-3.0244,-3.3126,-3.5345,-3.8125,-3.9903,-4.0308,-4.0334,-4.0348,-4.0308,-4.0294,-4.0334,-4.0361,-4.0401,-4.0361,-4.0281,-4.0134,-3.9974,-3.996,-4.0027,-3.9183,-3.7464,-3.4148,-3.0384,-2.5929,-2.2256,-1.9664,-1.9671,-1.9719,-1.9746,-1.9773,-1.9936,-2.0037,-2.0126,-2.0322,-2.0471,-2.0532,-2.0539,-2.0539,-2.0539,-2.0539,-2.0539,-2.0539,-2.0546,-2.0627,-2.075,-2.0831,-2.0967,-2.1089,-2.1218,-2.1299,-2.1346,-2.1374,-2.1441,-2.1441,-2.1441,-2.1441,-2.1441,-2.1441,-2.1441,-2.1441,-2.1441,-2.1441,-2.1496,-2.1597,-2.176,-2.1916,-2.2072,-2.2113,-2.2194,-2.2181,-2.2093,-2.1971,-2.1821,-2.1733,-2.1665,-2.1523,-2.2223,-2.5089,-2.5862,-2.8464,-3.0789,-2.9758,-2.8464,-2.6133,-2.3002,-2.1958,-2.1441,-2.1441,-2.1441,-2.1441,-2.1441,-2.1441,-2.1441,-2.1441,-2.1441,-2.1441,-2.1441,-2.1441,-2.1441,-2.1441,-2.1441,-2.1428,-2.1428,-2.1421,-2.1414,-2.1611,-2.231,-2.3225,-2.3837,-2.4188,-2.532,-2.6722,-2.7649,-2.8327,-2.8779,-3.0761,-3.3684,-3.5182,-3.6956,-3.847,-4.0225,-4.0454,-4.0428,-4.0428,-4.0428,-4.0481,-4.0468,-4.0454,-4.0454,-4.0454,-4.0334,-4.0214,-4.0308,-4.0132,-3.9509,-3.8521,-3.5636,-3.1831,-2.7357,-2.3928,-1.9664,-1.9671,-1.98,-1.9834,-1.9854,-1.9875,-1.9963,-2.0126,-2.0383,-2.0526,-2.0532,-2.0539,-2.0539,-2.0539,-2.0539,-2.0539,-2.0539,-2.0546,-2.0627,-2.0777,-2.0912,-2.1041,-2.119,-2.1346,-2.138,-2.1421,-2.1441,-2.1441,-2.1441,-2.1441,-2.1441,-2.1441,-2.1441,-2.1441,-2.1441,-2.1441,-2.1441,-2.1455,-2.1502,-2.1604,-2.1794,-2.1916,-2.2004,-2.2221,-2.2249,-2.2208,-2.2086,-2.195,-2.1815,-2.1679,-2.1543,-2.1448,-2.2745,-2.4826,-2.8202,-3.0009,-2.9498,-2.8716,-2.7165,-2.4563,-2.2488,-2.17,-2.1441,-2.1441,-2.1441,-2.1441,-2.1441,-2.1441,-2.1441,-2.1441,-2.1441,-2.1441,-2.1441,-2.1441,-2.1441,-2.1441,-2.1441,-2.1441,-2.1435,-2.1428,-2.1414,-2.2124,-2.2068,-2.2696,-2.2587,-2.2669,-2.5082,-2.7027,-2.7703,-2.8884,-3.0812,-3.3527,-3.374,-3.4983,-3.797,-3.947,-4.0225,-4.0481,-4.0481,-4.0481,-4.0481,-4.0481,-4.0481,-4.0508,-4.0535,-4.0561,-4.0521,-4.0588,-4.0642,-4.0451,-3.9189,-3.6833,-3.3291,-2.8836,-2.4844,-1.9664,-1.9664,-1.9698,-1.9712,-1.9725,-1.9827,-1.9956,-2.0112,-2.0295,-2.0431,-2.0526,-2.0539,-2.0539,-2.0539,-2.0539,-2.0539,-2.0539,-2.0546,-2.0641,-2.077,-2.0919,-2.1062,-2.1211,-2.1353,-2.1421,-2.1441,-2.1441,-2.1441,-2.1441,-2.1441,-2.1441,-2.1441,-2.1441,-2.1441,-2.1441,-2.1441,-2.1441,-2.1441,-2.1455,-2.1536,-2.1713,-2.1835,-2.1943,-2.2004,-2.1998,-2.2065,-2.1971,-2.1855,-2.1821,-2.1774,-2.1557,-2.1469,-2.17,-2.4826,-2.8202,-3.0799,-3.0279,-2.9237,-2.8455,-2.6124,-2.3523,-2.1958,-2.1441,-2.1441,-2.1441,-2.1441,-2.1441,-2.1441,-2.1441,-2.1441,-2.1441,-2.1441,-2.1441,-2.1441,-2.1441,-2.1441,-2.1441,-2.1441,-2.1441,-2.1441,-2.1441,-2.1408,-2.136,-2.1292,-2.1197,-2.3662,-2.7602,-3.0036,-2.9705,-3.0373,-2.9964,-3.191,-3.1278,-3.2753,-3.6233,-3.847,-3.947,-4.0225,-4.0481,-4.0481,-4.0481,-4.0535,-4.0588,-4.0588,-4.0615,-4.0708,-4.0802,-4.0815,-4.0869,-4.0935,-4.0172,-3.8075,-3.4653,-3.0413,-2.6337,-1.9664,-1.9664,-1.9664,-1.9664,-1.9678,-1.9746,-1.9861,-1.9997,-2.0092,-2.0248,-2.0444,-2.0505,-2.0539,-2.0539,-2.0539,-2.0539,-2.0539,-2.0539,-2.058,-2.0702,-2.0892,-2.1021,-2.117,-2.1333,-2.1408,-2.1441,-2.1441,-2.1441,-2.1441,-2.1441,-2.1441,-2.1441,-2.1441,-2.1441,-2.1441,-2.1441,-2.1441,-2.1441,-2.1441,-2.1523,-2.1652,-2.1747,-2.1835,-2.1848,-2.1896,-2.193,-2.1842,-2.174,-2.1706,-2.1672,-2.1502,-2.1455,-2.17,-2.3002,-2.587,-2.7679,-2.7941,-2.795,-2.7941,-2.6641,-2.3787,-2.2223,-2.1441,-2.1441,-2.1441,-2.1441,-2.1441,-2.1441,-2.1441,-2.1441,-2.1441,-2.1441,-2.1441,-2.1441,-2.1441,-2.1441,-2.1441,-2.1441,-2.1441,-2.1441,-2.1441,-2.1428,-2.1394,-2.1394,-2.1556,-2.2478,-2.6991,-3.0986,-3.1169,-3.1625,-3.1451,-3.0304,-2.9954,-3.1557,-3.5228,-3.7225,-3.8227,-3.9227,-4.0278,-4.0508,-4.0535,-4.0628,-4.0695,-4.0762,-4.0869,-4.1042,-4.1096,-4.1096,-4.1122,-4.1176,-4.0408,-3.9367,-3.5689,-3.1992,-2.8123,-1.9664,-1.9664,-1.9664,-1.9664,-1.9664,-1.9664,-1.9766,-1.9895,-1.9895,-2.0058,-2.0329,-2.0465,-2.0512,-2.0539,-2.0539,-2.0539,-2.0539,-2.0539,-2.0553,-2.0641,-2.0872,-2.0987,-2.1123,-2.1285,-2.1387,-2.1441,-2.1441,-2.1441,-2.1441,-2.1441,-2.1441,-2.1441,-2.1441,-2.1441,-2.1441,-2.1441,-2.1441,-2.1441,-2.1462,-2.153,-2.1604,-2.1679,-2.1767,-2.1835,-2.1869,-2.1815,-2.174,-2.1658,-2.1597,-2.153,-2.1482,-2.1448,-2.1441,-2.1958,-2.4051,-2.587,-2.5607,-2.587,-2.5862,-2.5089,-2.3002,-2.17,-2.1435,-2.1441,-2.1441,-2.1441,-2.1441,-2.1441,-2.1441,-2.1441,-2.1441,-2.1441,-2.1441,-2.1441,-2.1441,-2.1441,-2.1441,-2.1441,-2.1441,-2.1441,-2.1441,-2.1441,-2.1435,-2.1435,-2.1895,-2.2827,-2.5591,-2.8847,-3.1586,-3.2563,-3.2974,-3.0795,-2.8664,-3.1276,-3.3594,-3.6072,-3.7102,-3.8403,-3.946,-4.0128,-4.0642,-4.0842,-4.0976,-4.1016,-4.1136,-4.1336,-4.1403,-4.1403,-4.1416,-4.147,-4.1168,-4.0173,-3.6725,-3.3231,-3.0151,-1.9664,-1.9664,-1.9664,-1.9664,-1.9664,-1.9664,-1.9807,-2.001,-1.9915,-2.0044,-2.0254,-2.0349,-2.0424,-2.0539,-2.0539,-2.0539,-2.0539,-2.0539,-2.0539,-2.0594,-2.0838,-2.0953,-2.1089,-2.1292,-2.1408,-2.1441,-2.1441,-2.1441,-2.1441,-2.1441,-2.1441,-2.1441,-2.1441,-2.1441,-2.1441,-2.1441,-2.1441,-2.1441,-2.1462,-2.1516,-2.1631,-2.1699,-2.176,-2.1821,-2.1882,-2.1862,-2.1821,-2.1726,-2.1672,-2.1604,-2.1509,-2.1455,-2.1441,-2.1435,-2.3266,-2.4563,-2.4307,-2.4826,-2.4826,-2.457,-2.3266,-2.1435,-2.1441,-2.1441,-2.1441,-2.1441,-2.1441,-2.1441,-2.1441,-2.1441,-2.1441,-2.1441,-2.1441,-2.1441,-2.1441,-2.1441,-2.1441,-2.1441,-2.1441,-2.1441,-2.1441,-2.1441,-2.1435,-2.1435,-2.1435,-2.3185,-2.6809,-3.0096,-3.1861,-3.3061,-3.4238,-3.181,-2.8634,-2.6959,-2.7813,-3.3793,-3.6074,-3.7372,-3.8928,-4.0185,-4.1016,-4.1176,-4.1283,-4.1296,-4.1456,-4.167,-4.1697,-4.1697,-4.179,-4.1831,-4.175,-4.0471,-3.7504,-3.369,-2.9818]}]]